[[{"header":{"parameterUnit":"m.s-1","parameterCategory":1,"la1":31.0,"la2":29.5877,"lo1":-88.7671,"lo2":-86.6584,"dy":0.0162,"dx":0.0185,"nx":115,"ny":88,"refTime":"2023-05-31T12:00:00:Z","depth":0,"parameterNumber":2,"parameterNumberName":"U-component_of_WINDS"},"data":[0.0,0.0,0.0,0.0,0.0,0.0,0.0,0.0,0.0,0.0,0.0,0.0,0.0,0.0,0.0,0.0,0.0,0.0,0.0,0.0,0.0,0.0,0.0,0.0,0.0,0.0,0.0,0.0,0.0,0.0,0.0,0.0,0.0,0.0,0.0,0.0,0.0,0.0,0.0,0.0,0.0,0.0,0.0,0.0,0.0,0.0,0.0,0.0,0.0,0.0,0.0,0.0,0.0,0.0,0.0,0.0,0.0,0.0,0.0,0.0,0.0,0.0,0.0,0.0,0.0,0.0,0.0,0.0,0.0,0.0,0.0,0.0,0.0,0.0,0.0,0.0,0.0,0.0,0.0,0.0,0.0,0.0,0.0,0.0,0.0,0.0,0.0,0.0,0.0,0.0,0.0,0.0,0.0,0.0,0.0,0.0,0.0,0.0,0.0,0.0,0.0,0.0,0.0,0.0,0.0,0.0,0.0,0.0,0.0,0.0,0.0,0.0,0.0,0.0,0.0,0.0,0.0,0.0,0.0,0.0,0.0,0.0,0.0,0.0,0.0,0.0,0.0,0.0,0.0,0.0,0.0,0.0,0.0,0.0,0.0,0.0,0.0,0.0,0.0,0.0,0.0,0.0,0.0,0.0,0.0,0.0,0.0,0.0,0.0,0.0,0.0,0.0,0.0,0.0,0.0,0.0,0.0,0.0,0.0,0.0,0.0,0.0,0.0,0.0,0.0,0.0,0.0,0.0,0.0,0.0,0.0,0.0,0.0,0.0,0.0,0.0,0.0,0.0,0.0,0.0,0.0,0.0,0.0,0.0,0.0,0.0,0.0,0.0,0.0,0.0,0.0,0.0,0.0,0.0,0.0,0.0,0.0,0.0,0.0,0.0,0.0,0.0,0.0,0.0,0.0,0.0,0.0,0.0,0.0,0.0,0.0,0.0,0.0,0.0,0.0,0.0,0.0,0.0,0.0,0.0,0.0,0.0,0.0,0.0,0.0,0.0,0.0,0.0,0.0,0.0,0.0,0.0,0.0,0.0,0.0,0.0,0.0,0.0,0.0,0.0,0.0,0.0,0.0,0.0,0.0,0.0,0.0,0.0,0.0,0.0,0.0,0.0,0.0,0.0,0.0,0.0,0.0,0.0,0.0,0.0,0.0,0.0,0.0,0.0,0.0,0.0,0.0,0.0,0.0,0.0,0.0,0.0,0.0,0.0,0.0,0.0,0.0,0.0,0.0,0.0,0.0,0.0,0.0,0.0,0.0,0.0,0.0,0.0,0.0,0.0,0.0,0.0,0.0,0.0,0.0,0.0,0.0,0.0,0.0,0.0,0.0,0.0,0.0,0.0,0.0,0.0,0.0,0.0,0.0,0.0,0.0,0.0,0.0,0.0,0.0,0.0,0.0,0.0,0.0,0.0,0.0,0.0,0.0,0.0,0.0,0.0,0.0,0.0,0.0,0.0,0.0,0.0,0.0,0.0,0.0,0.0,0.0,0.0,0.0,0.0,0.0,0.0,0.0,0.0,0.0,0.0,0.0,0.0,0.0,0.0,0.0,0.0,0.0,0.0,0.0,0.0,0.0,0.0,0.0,0.0,0.0,0.0,0.0,0.0,0.0,0.0,0.0,0.0,0.0,0.0,0.0,0.0,0.0,0.0,0.0,0.0,0.0,0.0,0.0,0.0,0.0,0.0,0.0,0.0,0.0,0.0,0.0,0.0,0.0,0.0,0.0,0.0,0.0,0.0,0.0,0.0,0.0,0.0,0.0,0.0,0.0,0.0,0.0,0.0,0.0,0.0,0.0,0.0,0.0,0.0,0.0,0.0,0.0,0.0,0.0,0.0,0.0,0.0,0.0,0.0,0.0,0.0,0.0,0.0,0.0,0.0,0.0,0.0,0.0,0.0,0.0,0.0,0.0,0.0,0.0,0.0,0.0,0.0,0.0,0.0,0.0,0.0,0.0,0.0,0.0,0.0,0.0,0.0,0.0,0.0,0.0,0.0,0.0,0.0,0.0,0.0,0.0,0.0,0.0,0.0,0.0,0.0,0.0,0.0,0.0,0.0,0.0,0.0,0.0,0.0,0.0,0.0,0.0,0.0,0.0,0.0,0.0,0.0,0.0,0.0,0.0,0.0,0.0,0.0,0.0,0.0,0.0,0.0,0.0,0.0,0.0,0.0,0.0,0.0,0.0,0.0,0.0,0.0,0.0,0.0,0.0,0.0,0.0,0.0,0.0,0.0,0.0,0.0,0.0,0.0,0.0,0.0,0.0,0.0,0.0,0.0,0.0,0.0,0.0,0.0,0.0,0.0,0.0,0.0,0.0,0.0,0.0,0.0,0.0,0.0,0.0,0.0,0.0,0.0,0.0,0.0,0.0,0.0,0.0,0.0,0.0,0.0,0.0,0.0,0.0,0.0,0.0,0.0,0.0,0.0,0.0,0.0,0.0,0.0,0.0,0.0,0.0,0.0,0.0,0.0,0.0,0.0,0.0,0.0,0.0,0.0,0.0,0.0,0.0,0.0,0.0,0.0,0.0,0.0,0.0,0.0,0.0,0.0,0.0,0.0,0.0,0.0,0.0,0.0,0.0,0.0,0.0,0.0,0.0,0.0,0.0,0.0,0.0,0.0,0.0,0.0,0.0,0.0,0.0,0.0,0.0,0.0,0.0,0.0,0.0,0.0,0.0,0.0,0.0,0.0,0.0,0.0,0.0,0.0,0.0,0.0,0.0,0.0,0.0,0.0,0.0,0.0,0.0,0.0,0.0,0.0,0.0,0.0,0.0,0.0,0.0,0.0,0.0,0.0,0.0,0.0,0.0,0.0,0.0,0.0,0.0,0.0,0.0,0.0,0.0,0.0,0.0,0.0,0.0,0.0,0.0,0.0,0.0,0.0,0.0,0.0,0.0,0.0,0.0,0.0,0.0,0.0,0.0,0.0,0.0,0.0,0.0,0.0,0.0,0.0,0.0,0.0,0.0,0.0,0.0,0.0,0.0,0.0,0.0,0.0,0.0,0.0,0.0,0.0,0.0,0.0,0.0,0.0,0.0,0.0,0.0,0.0,0.0,0.0,0.0,0.0,0.0,0.0,0.0,0.0,0.0,0.0,0.0,0.0,0.0,0.0,0.0,0.0,0.0,0.0,0.0,0.0,0.0,0.0,0.0,0.0,0.0,0.0,0.0,0.0,0.0,0.0,0.0,0.0,0.0,0.0,0.0,0.0,0.0,0.0,0.0,0.0,0.0,0.0,0.0,0.0,0.0,0.0,0.0,0.0,0.0,0.0,0.0,0.0,0.0,0.0,0.0,0.0,0.0,0.0,0.0,0.0,0.0,0.0,0.0,0.0,0.0,0.0,0.0,0.0,0.0,0.0,0.0,0.0,0.0,0.0,0.0,0.0,0.0,0.0,0.0,0.0,0.0,0.0,0.0,0.0,0.0,0.0,0.0,0.0,0.0,0.0,0.0,0.0,0.0,0.0,0.0,0.0,0.0,0.0,0.0,0.0,0.0,0.0,0.0,0.0,0.0,0.0,0.0,0.0,0.0,0.0,0.0,0.0,0.0,0.0,0.0,0.0,0.0,0.0,0.0,0.0,0.0,0.0,0.0,0.0,0.0,0.0,0.0,0.0,0.0,0.0,0.0,0.0,0.0,0.0,0.0,0.0,0.0,0.0,0.0,0.0,0.0,0.0,0.0,0.0,0.0,0.0,0.0,0.0,0.0,0.0,0.0,0.0,0.0,0.0,0.0,0.0,0.0,0.0,0.0,0.0,0.0,0.0,0.0,0.0,0.0,0.0,0.0,0.0,0.0,0.0,0.0,0.0,0.0,0.0,0.0,0.0,0.0,0.0,0.0,0.0,0.0,0.0,0.0,0.0,0.0,0.0,0.0,0.0,0.0,0.0,0.0,0.0,0.0,0.0,0.0,0.0,0.0,0.0,0.0,0.0,0.0,0.0,0.0,0.0,0.0,0.0,0.0,0.0,0.0,0.0,0.0,0.0,0.0,0.0,0.0,0.0,0.0,0.0,0.0,0.0,0.0,0.0,0.0,0.0,0.0,0.0,0.0,0.0,0.0,0.0,0.0,0.0,0.0,0.0,0.0,0.0,0.0,0.0,0.0,0.0,0.0,0.0,0.0,0.0,0.0,0.0,0.0,0.0,0.0,0.0,0.0,0.0,0.0,0.0,0.0,0.0,0.0,0.0,0.0,0.0,0.0,0.0,0.0,0.0,0.0,0.0,0.0,0.0,0.0,0.0,0.0,0.0,0.0,0.0,1.7846,0.0,0.0,0.0,0.0,0.0,0.0,0.0,0.0,0.0,0.0,0.0,0.0,0.0,0.0,0.0,0.0,0.0,0.0,0.0,0.0,0.0,0.0,0.0,0.0,0.0,0.0,0.0,0.0,0.0,0.0,0.0,0.0,0.0,0.0,0.0,0.0,0.0,0.0,0.0,0.0,0.0,0.0,0.0,0.0,0.0,0.0,0.0,0.0,0.0,0.0,0.0,0.0,0.0,0.0,0.0,0.0,0.0,0.0,0.0,0.0,0.0,0.0,0.0,0.0,0.0,0.0,0.0,0.0,0.0,0.0,0.0,0.0,0.0,0.0,0.0,0.0,0.0,0.0,0.0,0.0,0.0,0.0,0.0,0.0,0.0,0.0,0.0,0.0,0.0,0.0,0.0,0.0,0.0,0.0,0.0,0.0,0.0,0.0,0.0,0.0,0.0,0.0,0.0,0.0,0.0,0.0,0.0,0.0,0.0,0.0,1.8171,2.0653,1.8043,1.7093,1.8205,0.0,0.0,0.0,0.0,0.0,0.0,0.0,0.0,0.0,0.0,0.0,0.0,0.0,0.0,0.0,0.0,0.0,0.0,0.0,0.0,0.0,0.0,0.0,0.0,0.0,0.0,0.0,0.0,0.0,0.0,0.0,0.0,0.0,0.0,0.0,0.0,0.0,0.0,0.0,0.0,0.0,0.0,0.0,0.0,0.0,0.0,0.0,0.0,0.0,0.0,0.0,0.0,0.0,0.0,0.0,0.0,0.0,0.0,0.0,0.0,0.0,0.0,0.0,0.0,0.0,0.0,0.0,0.0,0.0,0.0,0.0,0.0,0.0,0.0,0.0,0.0,0.0,0.0,0.0,0.0,0.0,0.0,0.0,0.0,0.0,0.0,0.0,0.0,0.0,0.0,0.0,0.0,0.0,0.0,0.0,0.0,0.0,0.0,0.0,0.0,0.0,0.0,0.0,0.0,0.0,0.0,0.0,0.0,0.0,0.0,0.0,0.0,1.8238,1.7099,1.7843,0.0,0.0,0.0,0.0,0.0,0.0,0.0,0.0,0.0,0.0,0.0,0.0,0.0,0.0,0.0,0.0,0.0,0.0,0.0,0.0,0.0,0.0,0.0,0.0,0.0,0.0,0.0,0.0,0.0,0.0,0.0,0.0,0.0,0.0,0.0,0.0,0.0,0.0,0.0,0.0,0.0,0.0,0.0,0.0,0.0,0.0,0.0,0.0,0.0,0.0,0.0,0.0,0.0,0.0,0.0,0.0,0.0,0.0,0.0,0.0,0.0,0.0,0.0,0.0,0.0,0.0,0.0,0.0,0.0,0.0,0.0,0.0,0.0,0.0,0.0,0.0,0.0,0.0,0.0,0.0,0.0,0.0,0.0,0.0,0.0,0.0,0.0,0.0,0.0,0.0,0.0,0.0,0.0,0.0,0.0,0.0,0.0,0.0,0.0,0.0,0.0,0.0,0.0,0.0,0.0,0.0,0.0,0.0,0.0,0.0,1.9196,2.1405,1.9634,0.0,1.6868,0.0,0.0,0.0,0.0,0.0,0.0,0.0,0.0,0.0,0.0,0.0,0.0,0.0,0.0,0.0,0.0,0.0,0.0,0.0,0.0,0.0,0.0,0.0,0.0,0.0,0.0,0.0,0.0,0.0,0.0,0.0,0.0,0.0,0.0,0.0,0.0,0.0,0.0,0.0,0.0,0.0,0.0,0.0,0.0,0.0,0.0,0.0,0.0,0.0,0.0,0.0,0.0,0.0,0.0,0.0,0.0,0.0,0.0,0.0,0.0,0.0,0.0,0.0,0.0,0.0,0.0,0.0,0.0,0.0,0.0,0.0,0.0,0.0,0.0,0.0,0.0,0.0,0.0,0.0,0.0,0.0,0.0,0.0,0.0,0.0,0.0,0.0,0.0,0.0,0.0,0.0,0.0,0.0,0.0,0.0,0.0,0.0,0.0,0.0,0.0,0.0,0.0,0.0,0.0,0.0,0.0,0.0,0.0,0.0,0.0,1.9279,2.0527,1.9563,1.8287,0.0,0.0,0.0,0.0,0.0,0.0,0.0,0.0,0.0,0.0,0.0,0.0,0.0,0.0,0.0,0.0,0.0,0.0,0.0,0.0,0.0,0.0,0.0,0.0,0.0,0.0,0.0,0.0,0.0,0.0,0.0,0.0,0.0,0.0,0.0,0.0,0.0,0.0,0.0,0.0,0.0,0.0,0.0,0.0,0.0,0.0,0.0,0.0,0.0,0.0,0.0,0.0,0.0,0.0,0.0,0.0,0.0,0.0,0.0,0.0,0.0,0.0,0.0,0.0,0.0,0.0,0.0,0.0,0.0,0.0,0.0,0.0,0.0,0.0,0.0,0.0,0.0,0.0,0.0,0.0,0.0,0.0,0.0,0.0,0.0,0.0,0.0,0.0,0.0,0.0,0.0,0.0,0.0,0.0,0.0,0.0,0.0,0.0,0.0,0.0,0.0,0.0,0.0,0.0,0.0,0.0,0.0,0.0,0.0,0.0,1.8153,1.8884,1.9367,1.8881,1.8038,1.691,0.0,0.0,0.0,0.0,0.0,0.0,0.0,0.0,0.0,0.0,0.0,0.0,0.0,0.0,0.0,0.0,0.0,0.0,0.0,0.0,0.0,0.0,0.0,0.0,0.0,0.0,0.0,0.0,0.0,0.0,0.0,0.0,0.0,0.0,0.0,0.0,0.0,0.0,0.0,0.0,0.0,0.0,0.0,0.0,0.0,0.0,0.0,0.0,0.0,0.0,0.0,0.0,0.0,0.0,0.0,0.0,0.0,0.0,0.0,0.0,0.0,0.0,0.0,0.0,0.0,0.0,0.0,0.0,0.0,0.0,0.0,0.0,0.0,0.0,0.0,0.0,0.0,0.0,0.0,0.0,0.0,0.0,0.0,0.0,0.0,0.0,0.0,0.0,0.0,0.0,0.0,0.0,0.0,0.0,0.0,0.0,0.0,0.0,0.0,0.0,0.0,0.0,0.0,0.0,0.0,0.0,0.0,0.0,1.8733,1.8135,1.8025,1.8516,1.7729,1.7313,0.0,0.0,0.0,0.0,0.0,0.0,0.0,0.0,0.0,0.0,0.0,0.0,0.0,0.0,0.0,0.0,0.0,0.0,0.0,0.0,0.0,0.0,0.0,0.0,0.0,0.0,0.0,0.0,0.0,0.0,0.0,0.0,0.0,0.0,0.0,0.0,0.0,0.0,0.0,0.0,0.0,0.0,0.0,0.0,0.0,0.0,0.0,0.0,0.0,0.0,0.0,0.0,0.0,0.0,0.0,0.0,0.0,0.0,0.0,0.0,0.0,0.0,0.0,0.0,0.0,0.0,0.0,0.0,0.0,0.0,0.0,0.0,0.0,0.0,0.0,0.0,0.0,0.0,0.0,0.0,0.0,0.0,0.0,0.0,0.0,0.0,0.0,0.0,0.0,0.0,0.0,0.0,0.0,0.0,0.0,0.0,0.0,0.0,0.0,0.0,0.0,0.0,0.0,0.0,0.0,0.0,0.0,0.0,0.0,1.7392,1.7665,1.7683,1.744,1.734,1.6697,0.0,0.0,0.0,0.0,0.0,0.0,0.0,0.0,0.0,0.0,0.0,0.0,0.0,0.0,0.0,0.0,0.0,0.0,0.0,0.0,0.0,0.0,0.0,0.0,0.0,0.0,0.0,0.0,0.0,0.0,0.0,0.0,0.0,0.0,0.0,0.0,0.0,0.0,0.0,0.0,0.0,0.0,0.0,0.0,0.0,0.0,0.0,0.0,0.0,0.0,0.0,0.0,0.0,0.0,0.0,0.0,0.0,0.0,0.0,0.0,0.0,0.0,0.0,0.0,0.0,0.0,0.0,0.0,0.0,0.0,0.0,0.0,0.0,0.0,0.0,0.0,0.0,0.0,0.0,0.0,0.0,0.0,0.0,0.0,0.0,0.0,0.0,0.0,0.0,0.0,0.0,0.0,0.0,0.0,0.0,0.0,0.0,0.0,0.0,0.0,0.0,0.0,0.0,0.0,0.0,0.0,0.0,0.0,0.0,1.6671,0.0,1.7521,1.6719,1.6786,1.6055,0.0,0.0,0.0,0.0,0.0,0.0,0.0,0.0,0.0,0.0,0.0,0.0,0.0,0.0,0.0,0.0,0.0,0.0,0.0,0.0,0.0,0.0,0.0,0.0,0.0,0.0,0.0,0.0,0.0,0.0,0.0,0.0,0.0,0.0,0.0,0.0,0.0,0.0,0.0,0.0,0.0,0.0,0.0,0.0,0.0,0.0,0.0,0.0,0.0,0.0,0.0,0.0,0.0,0.0,0.0,0.0,0.0,0.0,0.0,0.0,0.0,0.0,0.0,0.0,0.0,0.0,0.0,0.0,0.0,0.0,0.0,0.0,0.0,0.0,0.0,0.0,0.0,0.0,0.0,0.0,0.0,0.0,0.0,0.0,0.0,0.0,0.0,0.0,0.0,0.0,0.0,0.0,0.0,0.0,0.0,0.0,0.0,0.0,0.0,0.0,0.0,0.0,0.0,0.0,0.0,0.0,0.0,0.0,1.7221,1.6937,1.7483,1.7289,1.6419,1.5953,1.5385,0.0,0.0,0.0,0.0,0.0,0.0,0.0,0.0,0.0,0.0,0.0,0.0,0.0,0.0,0.0,0.0,0.0,0.0,0.0,0.0,0.0,0.0,0.0,0.0,0.0,0.0,0.0,0.0,0.0,0.0,0.0,0.0,0.0,0.0,0.0,0.0,0.0,0.0,0.0,0.0,0.0,0.0,0.0,0.0,0.0,0.0,0.0,0.0,0.0,0.0,0.0,0.0,0.0,0.0,0.0,0.0,0.0,0.0,0.0,0.0,0.0,0.0,0.0,0.0,0.0,0.0,0.0,0.0,0.0,0.0,0.0,0.0,0.0,0.0,0.0,0.0,0.0,0.0,0.0,0.0,0.0,0.0,0.0,0.0,0.0,0.0,0.0,0.0,0.0,0.0,0.0,0.0,0.0,0.0,0.0,0.0,0.0,0.0,0.0,0.0,0.0,0.0,0.0,0.0,0.0,0.0,0.0,0.0,0.0,1.7133,1.5785,1.5489,1.63,1.5232,1.4615,0.0,0.0,0.0,0.0,0.0,0.0,0.0,0.0,0.0,0.0,0.0,0.0,0.0,0.0,0.0,0.0,0.0,0.0,0.0,0.0,0.0,0.0,0.0,0.0,0.0,0.0,0.0,0.0,0.0,0.0,0.0,0.0,0.0,0.0,0.0,0.0,0.0,0.0,0.0,0.0,0.0,0.0,0.0,0.0,0.0,0.0,0.0,0.0,0.0,0.0,0.0,0.0,0.0,0.0,0.0,0.0,0.0,0.0,0.0,0.0,0.0,0.0,0.0,0.0,0.0,0.0,0.0,0.0,0.0,0.0,0.0,0.0,0.0,0.0,0.0,0.0,0.0,0.0,0.0,0.0,0.0,0.0,0.0,0.0,0.0,0.0,0.0,0.0,0.0,0.0,0.0,0.0,0.0,0.0,0.0,0.0,0.0,0.0,0.0,0.0,0.0,0.0,0.0,0.0,0.0,0.0,0.0,0.0,0.0,1.7171,1.5768,1.5447,1.6308,1.5503,1.4613,1.3671,0.0,0.0,0.0,0.0,0.0,0.0,0.0,0.0,0.0,0.0,0.0,0.0,0.0,0.0,0.0,0.0,0.0,0.0,0.0,0.0,0.0,0.0,0.0,0.0,0.0,0.0,0.0,0.0,0.0,0.0,0.0,0.0,0.0,0.0,0.0,0.0,0.0,0.0,0.0,0.0,0.0,0.0,0.0,0.0,0.0,0.0,0.0,0.0,0.0,0.0,0.0,0.0,0.0,0.0,0.0,0.0,0.0,0.0,0.0,0.0,0.0,0.0,0.0,0.0,0.0,0.0,0.0,0.0,0.0,0.0,0.0,0.0,0.0,0.0,0.0,0.0,0.0,0.0,0.0,0.0,0.0,0.0,0.0,0.0,0.0,0.0,0.0,0.0,0.0,0.0,0.0,0.0,0.0,0.0,0.0,0.0,0.0,0.0,0.0,0.0,0.0,0.0,0.0,0.0,0.0,0.0,0.0,0.0,1.7232,1.7281,1.7052,1.6449,1.6533,1.5186,0.0,0.0,0.0,0.0,0.0,0.0,0.0,0.0,0.0,0.0,0.0,0.0,0.0,0.0,0.0,0.0,0.0,0.0,0.0,0.0,0.0,0.0,0.0,0.0,0.0,0.0,0.0,0.0,0.0,0.0,0.0,0.0,0.0,0.0,0.0,0.0,0.0,0.0,0.0,0.0,0.0,0.0,0.0,0.0,0.0,0.0,0.0,0.0,0.0,0.0,0.0,0.0,0.0,0.0,0.0,0.0,0.0,0.0,0.0,0.0,0.0,0.0,0.0,0.0,0.0,0.0,0.0,0.0,0.0,0.0,0.0,0.0,0.0,0.0,0.0,0.0,0.0,0.0,0.0,0.0,0.0,0.0,0.0,0.0,0.0,0.0,0.0,0.0,0.0,0.0,0.0,0.0,0.0,0.0,0.0,0.0,0.0,0.0,0.0,0.0,0.0,0.0,0.0,0.0,0.0,0.0,0.0,0.0,0.0,1.9495,2.0007,1.9816,1.8855,1.6786,1.5672,0.0,0.0,0.0,0.0,0.0,0.0,0.0,0.0,0.0,0.0,0.0,0.0,0.0,0.0,0.0,0.0,0.0,0.0,0.0,0.0,0.0,0.0,0.0,0.0,0.0,0.0,0.0,0.0,0.0,0.0,0.0,0.0,0.0,0.0,0.0,0.0,0.0,0.0,0.0,0.0,0.0,0.0,0.0,0.0,0.0,0.0,0.0,0.0,0.0,0.0,0.0,0.0,0.0,0.0,0.0,0.0,0.0,0.0,0.0,0.0,0.0,0.0,0.0,0.0,0.0,0.0,0.0,0.0,0.0,0.0,0.0,0.0,0.0,0.0,0.0,0.0,0.0,0.0,0.0,0.0,0.0,0.0,0.0,0.0,0.0,0.0,0.0,0.0,0.0,0.0,0.0,0.0,0.0,0.0,0.0,0.0,0.0,0.0,0.0,0.0,0.0,0.0,0.0,0.0,0.0,0.0,0.0,0.0,1.9507,1.9465,2.1825,2.2551,2.139,1.8528,1.6625,0.0,0.0,0.0,0.0,0.0,0.0,0.0,0.0,0.0,0.0,0.0,0.0,0.0,0.0,0.0,0.0,0.0,0.0,0.0,0.0,0.0,0.0,0.0,0.0,0.0,0.0,0.0,0.0,0.0,0.0,0.0,0.0,0.0,0.0,0.0,0.0,0.0,0.0,0.0,0.0,0.0,0.0,0.0,0.0,0.0,0.0,0.0,0.0,0.0,0.0,0.0,0.0,0.0,0.0,0.0,0.0,0.0,0.0,0.0,0.0,0.0,0.0,0.0,0.0,0.0,0.0,0.0,0.0,0.0,0.0,0.0,0.0,0.0,0.0,0.0,0.0,0.0,0.0,0.0,0.0,0.0,0.0,0.0,0.0,0.0,0.0,0.0,0.0,0.0,0.0,0.0,0.0,0.0,0.0,0.0,0.0,0.0,0.0,0.0,0.0,0.0,0.0,0.0,0.0,0.0,0.0,0.0,0.0,2.1026,1.8767,2.3067,2.4874,2.3638,2.0809,1.7787,0.0,0.0,0.0,0.0,0.0,0.0,0.0,0.0,0.0,0.0,0.0,0.0,0.0,0.0,0.0,0.0,0.0,0.0,0.0,0.0,0.0,0.0,0.0,0.0,0.0,0.0,0.0,0.0,0.0,0.0,0.0,0.0,0.0,0.0,0.0,0.0,0.0,0.0,0.0,0.0,0.0,0.0,0.0,0.0,0.0,0.0,0.0,0.0,0.0,0.0,0.0,0.0,0.0,0.0,0.0,0.0,0.0,0.0,0.0,0.0,0.0,0.0,0.0,0.0,0.0,0.0,0.0,0.0,0.0,0.0,0.0,0.0,0.0,0.0,0.0,0.0,0.0,0.0,0.0,0.0,0.0,0.0,0.0,0.0,0.0,0.0,0.0,0.0,0.0,0.0,0.0,0.0,0.0,0.0,0.0,0.0,0.0,0.0,0.0,0.0,0.0,0.0,0.0,0.0,0.0,0.0,0.0,0.0,2.1142,2.2137,2.4356,2.5318,2.4749,2.0656,1.8055,0.0,0.0,0.0,0.0,0.0,0.0,0.0,0.0,0.0,0.0,0.0,0.0,0.0,0.0,0.0,0.0,0.0,0.0,0.0,0.0,0.0,0.0,0.0,0.0,0.0,0.0,0.0,0.0,0.0,0.0,0.0,0.0,0.0,0.0,0.0,0.0,0.0,0.0,0.0,0.0,0.0,0.0,0.0,0.0,0.0,0.0,0.0,0.0,1.4478,0.0,0.0,0.0,0.0,0.0,0.0,0.0,0.0,0.0,0.0,0.0,0.0,0.0,0.0,0.0,0.0,0.0,0.0,0.0,0.0,0.0,0.0,0.0,0.0,0.0,0.0,0.0,0.0,0.0,0.0,0.0,0.0,0.0,0.0,0.0,0.0,0.0,0.0,0.0,0.0,0.0,0.0,0.0,0.0,0.0,0.0,0.0,0.0,0.0,0.0,0.0,0.0,0.0,0.0,0.0,0.0,0.0,0.0,0.0,2.1285,2.3067,2.4942,2.5628,2.5009,2.1896,1.9562,0.0,0.0,0.0,0.0,0.0,0.0,0.0,0.0,0.0,0.0,0.0,0.0,0.0,0.0,0.0,0.0,0.0,0.0,0.0,0.0,0.0,0.0,0.0,0.0,0.0,0.0,0.0,0.0,0.0,0.0,0.0,0.0,0.0,0.0,0.0,0.0,0.0,0.0,0.0,0.0,0.0,0.0,0.0,0.0,0.0,0.0,0.0,0.0,0.0,0.0,0.0,0.0,0.0,0.0,0.0,0.0,0.0,0.0,0.0,0.0,0.0,0.0,0.0,0.0,0.0,0.0,0.0,0.0,0.0,0.0,0.0,0.0,0.0,0.0,0.0,0.0,0.0,0.0,0.0,0.0,0.0,0.0,0.0,0.0,0.0,0.0,0.0,0.0,0.0,0.0,0.0,0.0,0.0,0.0,0.0,0.0,0.0,0.0,0.0,0.0,0.0,0.0,0.0,0.0,0.0,0.0,0.0,1.9984,2.1549,2.3532,2.5344,2.5961,2.5262,2.3346,2.1157,1.878,0.0,0.0,0.0,0.0,0.0,0.0,0.0,0.0,0.0,0.0,0.0,0.0,0.0,0.0,0.0,0.0,0.0,0.0,0.0,0.0,0.0,0.0,0.0,0.0,0.0,0.0,0.0,0.0,0.0,0.0,0.0,0.0,0.0,0.0,0.0,0.0,0.0,0.0,0.7643,0.8832,0.0,0.0,0.0,0.0,0.0,0.0,0.0,0.0,1.4603,0.0,0.0,0.0,0.0,0.0,0.0,0.0,0.0,0.0,0.0,0.0,0.0,0.0,0.0,0.0,0.0,0.0,0.0,0.0,0.0,0.0,0.0,0.0,0.0,0.0,0.0,0.0,0.0,0.0,0.0,0.0,0.0,0.0,0.0,0.0,0.0,0.0,0.0,0.0,0.0,0.0,0.0,0.0,0.0,0.0,0.0,0.0,0.0,0.0,0.0,0.0,0.0,0.0,0.0,0.0,0.0,2.1384,2.0532,2.1984,2.5977,2.6438,2.6422,2.5961,2.3333,2.1022,1.917,0.0,0.0,0.0,0.0,0.0,0.0,0.0,0.0,0.0,0.0,0.0,0.0,0.0,0.0,0.0,0.0,0.0,0.0,0.0,0.0,0.0,0.0,0.0,0.0,0.0,0.0,0.0,0.0,0.0,0.0,0.0,0.0,0.0,0.0,0.0,0.0,0.0,0.0,0.0,0.8583,0.9183,0.0,0.0,0.0,0.0,0.0,0.0,0.0,0.0,1.6062,0.0,0.0,0.0,0.0,0.0,0.0,0.0,0.0,0.0,0.0,0.0,0.0,0.0,0.0,0.0,0.0,0.0,0.0,0.0,0.0,0.0,0.0,0.0,0.0,0.0,0.0,0.0,0.0,0.0,0.0,0.0,0.0,0.0,0.0,0.0,0.0,0.0,0.0,0.0,0.0,0.0,0.0,0.0,0.0,0.0,0.0,0.0,0.0,0.0,0.0,0.0,0.0,0.0,0.0,0.0,2.2105,2.1804,2.3278,2.6803,2.6946,2.679,2.636,2.3814,2.1549,0.0,0.0,0.0,0.0,0.0,0.0,0.0,0.0,0.0,0.0,0.0,0.0,0.0,0.0,0.0,0.0,0.0,0.0,0.0,0.0,0.0,0.0,0.0,0.0,0.0,0.0,0.0,0.0,0.0,0.0,0.0,0.0,0.0,0.0,0.0,0.0,0.0,0.0,0.0,0.0,0.9446,1.027,1.3072,0.0,0.0,0.0,0.0,0.0,0.0,1.4939,1.5174,0.0,0.0,0.0,0.0,0.0,0.0,0.0,0.0,0.0,0.0,0.0,0.0,0.0,0.0,0.0,0.0,0.0,0.0,0.0,0.0,0.0,0.0,0.0,0.0,0.0,0.0,0.0,0.0,0.0,0.0,0.0,0.0,0.0,0.0,0.0,0.0,0.0,0.0,0.0,0.0,0.0,0.0,0.0,0.0,0.0,0.0,0.0,0.0,0.0,0.0,0.0,0.0,0.0,0.0,0.0,2.2198,2.2763,2.4358,2.704,2.72,2.6998,2.6567,2.3803,2.1593,0.0,0.0,0.0,0.0,0.0,0.0,0.0,0.0,0.0,0.0,0.0,0.0,0.0,0.0,0.0,0.0,0.0,0.0,0.0,0.0,0.0,0.0,0.0,0.0,0.0,0.0,0.0,0.0,0.0,0.0,0.0,0.0,0.0,0.0,0.0,0.0,0.0,0.0,0.0,0.0,0.0,1.1558,1.4119,1.3391,0.0,0.0,0.0,0.0,1.3993,1.4472,0.0,0.0,0.0,0.0,0.0,0.0,0.0,0.0,0.0,0.0,0.0,0.0,0.0,0.0,0.0,0.0,0.0,0.0,0.0,0.0,0.0,0.0,0.0,0.0,0.0,0.0,0.0,0.0,0.0,0.0,0.0,0.0,0.0,0.0,0.0,0.0,0.0,0.0,0.0,0.0,0.0,0.0,0.0,0.0,0.0,0.0,0.0,0.0,0.0,0.0,0.0,0.0,0.0,0.0,0.0,0.0,2.1304,2.2446,2.4358,2.7024,2.72,2.6998,2.6567,2.2404,2.0124,0.0,0.0,0.0,0.0,0.0,0.0,0.0,0.0,0.0,0.0,0.0,0.0,0.0,0.0,0.0,0.0,0.0,0.0,0.0,0.0,0.0,0.0,0.0,0.0,0.0,0.0,0.0,0.0,0.0,0.0,0.0,0.0,0.0,0.0,0.0,0.0,0.0,0.0,0.0,0.0,0.0,1.1477,1.362,1.2597,1.1672,0.0,0.0,1.4531,1.4445,1.6279,0.0,0.0,0.0,0.0,0.0,0.0,0.0,0.0,0.0,0.0,0.0,0.0,0.0,0.0,0.0,0.0,0.0,0.0,0.0,0.0,0.0,0.0,0.0,0.0,0.0,0.0,0.0,0.0,0.0,0.0,0.0,0.0,0.0,0.0,0.0,0.0,0.0,0.0,0.0,0.0,0.0,0.0,0.0,0.0,0.0,0.0,0.0,0.0,0.0,0.0,0.0,0.0,0.0,0.0,0.0,2.1203,2.2038,2.4033,2.577,2.7153,2.74,2.7278,2.6887,2.2457,2.0189,0.0,0.0,0.0,0.0,0.0,0.0,0.0,0.0,0.0,0.0,0.0,0.0,0.0,0.0,0.0,0.0,0.0,0.0,0.0,0.0,0.0,0.0,0.0,0.0,0.0,0.0,0.0,0.0,0.0,0.0,0.0,0.0,0.0,0.0,0.0,0.0,0.0,0.0,0.0,0.0,0.0,0.0,1.3355,1.3344,0.0,0.0,0.0,1.4518,1.4366,0.0,0.0,0.0,0.0,0.0,0.0,0.0,0.0,0.0,0.0,0.0,0.0,0.0,0.0,0.0,0.0,0.0,0.0,0.0,0.0,0.0,0.0,0.0,0.0,0.0,0.0,0.0,0.0,0.0,0.0,0.0,0.0,0.0,0.0,0.0,0.0,0.0,0.0,0.0,0.0,0.0,0.0,0.0,0.0,0.0,0.0,0.0,0.0,0.0,0.0,0.0,0.0,0.0,0.0,0.0,0.0,0.0,2.1978,2.5069,2.6917,2.7318,2.7584,2.7605,2.7267,2.3368,0.0,0.0,0.0,0.0,0.0,0.0,0.0,0.0,0.0,0.0,0.0,0.0,0.0,0.0,0.0,0.0,0.0,0.0,0.0,0.0,0.0,0.0,0.0,0.0,0.0,0.0,0.0,1.09,0.0,0.0,0.0,0.0,0.0,0.0,0.0,0.0,0.0,0.0,0.0,0.0,0.0,0.0,1.3816,1.3107,1.3824,1.457,0.0,0.0,1.4413,1.489,1.7561,1.8761,0.0,0.0,0.0,0.0,0.0,0.0,0.0,0.0,0.0,0.0,0.0,0.0,0.0,0.0,0.0,0.0,0.0,0.0,0.0,0.0,0.0,0.0,0.0,0.0,0.0,0.0,0.0,0.0,0.0,0.0,0.0,0.0,0.0,0.0,0.0,0.0,0.0,0.0,0.0,0.0,0.0,0.0,0.0,0.0,0.0,0.0,0.0,0.0,0.0,0.0,0.0,0.0,0.0,0.0,2.1827,2.0197,2.4419,2.7048,2.7634,2.7716,2.7801,2.798,2.5194,2.2798,0.0,0.0,0.0,0.0,0.0,0.0,0.0,0.0,0.0,0.0,0.0,0.0,0.0,0.0,0.0,0.0,0.0,0.0,0.0,0.0,0.0,0.0,0.0,0.0,0.0,0.0,0.0,0.0,0.0,0.0,0.0,0.0,0.0,0.0,0.0,0.0,0.0,0.0,0.0,0.0,0.0,1.4954,1.2846,1.3344,1.457,0.0,1.4843,1.4349,1.6651,1.9454,2.0124,1.6396,0.0,0.0,0.0,0.0,0.0,0.0,0.0,0.0,0.0,0.0,0.0,0.0,0.0,0.0,0.0,0.0,0.0,0.0,0.0,0.0,0.0,0.0,0.0,0.0,0.0,0.0,0.0,0.0,0.0,0.0,0.0,0.0,0.0,0.0,0.0,0.0,0.0,0.0,0.0,0.0,0.0,0.0,0.0,0.0,0.0,0.0,0.0,0.0,0.0,0.0,0.0,0.0,0.0,2.3126,2.1966,2.5894,2.8027,2.8074,2.8526,2.8675,2.8482,2.5687,2.3122,0.0,0.0,0.0,0.0,0.0,0.0,0.0,0.0,0.0,0.0,0.0,0.0,0.0,0.0,0.0,0.0,0.0,0.0,0.0,0.0,0.0,0.0,0.0,0.0,0.0,0.0,0.0,0.0,1.6411,1.7232,1.5872,0.0,0.0,0.0,0.0,0.0,0.0,0.0,0.0,0.0,0.0,1.4672,1.5575,1.5954,0.0,0.0,1.6199,1.5756,1.6022,1.8019,1.8252,1.4599,1.4852,0.0,0.0,0.0,0.0,0.0,0.0,0.0,0.0,0.0,0.0,0.0,0.0,0.0,0.0,0.0,0.0,0.0,0.0,0.0,0.0,0.0,0.0,0.0,0.0,0.0,0.0,0.0,0.0,0.0,0.0,0.0,0.0,0.0,0.0,0.0,0.0,0.0,0.0,0.0,0.0,0.0,0.0,0.0,0.0,0.0,0.0,0.0,0.0,0.0,0.0,0.0,0.0,2.3747,2.2478,2.6645,2.8738,2.8617,2.9228,2.9356,2.8926,2.6892,2.4588,0.0,0.0,0.0,0.0,0.0,0.0,0.0,0.0,0.0,0.0,0.0,0.0,0.0,0.0,0.0,0.0,0.0,0.0,0.0,0.0,0.0,0.0,0.0,0.0,0.0,0.0,0.0,0.0,1.6713,1.7616,1.6618,0.0,0.0,0.0,0.0,0.0,0.0,0.0,0.0,0.0,0.0,1.5721,1.6574,1.6738,1.6676,1.6426,1.5738,1.5241,1.5166,1.6344,1.6405,1.3818,0.0,0.0,0.0,0.0,0.0,0.0,0.0,0.0,0.0,0.0,0.0,0.0,0.0,0.0,0.0,0.0,0.0,0.0,0.0,0.0,0.0,0.0,0.0,0.0,0.0,0.0,0.0,2.1393,0.0,0.0,2.1326,0.0,0.0,0.0,0.0,0.0,0.0,0.0,0.0,0.0,0.0,0.0,0.0,0.0,0.0,0.0,0.0,0.0,0.0,0.0,0.0,0.0,0.0,2.3251,2.0894,2.6117,2.8972,2.9252,2.9682,2.9818,2.9651,2.9207,2.7771,2.5161,0.0,0.0,0.0,0.0,0.0,0.0,0.0,0.0,0.0,0.0,0.0,0.0,0.0,0.0,0.0,0.0,0.0,0.0,0.0,0.0,0.0,0.0,0.0,0.0,0.0,0.0,1.0911,1.3923,1.6461,0.0,0.0,0.0,0.0,0.0,0.0,0.0,0.0,0.0,0.0,1.687,1.861,1.4963,1.4787,1.5078,1.4896,1.2954,1.2234,1.4288,1.4883,1.4995,0.0,0.0,0.0,0.0,0.0,0.0,0.0,0.0,0.0,0.0,0.0,0.0,0.0,0.0,0.0,0.0,0.0,0.0,0.0,0.0,0.0,0.0,0.0,0.0,0.0,0.0,0.0,2.0924,2.151,0.0,0.0,0.0,0.0,0.0,0.0,0.0,0.0,0.0,0.0,0.0,2.4367,2.3412,0.0,0.0,0.0,0.0,0.0,0.0,0.0,0.0,0.0,0.0,0.0,0.0,2.432,2.2796,2.7377,2.98,2.9712,3.0309,3.0465,3.0119,2.9466,2.764,2.4523,0.0,0.0,0.0,0.0,0.0,0.0,0.0,0.0,0.0,0.0,0.0,0.0,0.0,0.0,0.0,0.0,0.0,0.0,0.0,0.0,0.0,0.0,0.0,0.0,0.0,1.4874,0.0,0.0,0.0,0.0,0.0,0.0,0.0,0.0,0.0,0.0,0.0,1.3652,1.4261,1.399,1.4013,1.4703,1.4817,1.5258,0.0,0.0,0.0,0.0,0.0,0.0,0.0,0.0,0.0,0.0,0.0,0.0,0.0,0.0,1.3599,1.1774,1.3374,1.504,1.5021,0.0,0.0,0.0,0.0,0.0,0.0,0.0,0.0,0.0,0.0,0.0,0.0,0.0,0.0,2.2582,0.0,2.2582,0.0,0.0,0.0,0.0,0.0,0.0,0.0,0.0,2.4492,2.5356,2.6995,2.5975,2.573,0.0,2.5164,2.3376,0.0,0.0,0.0,0.0,0.0,0.0,0.0,0.0,2.4374,2.3485,2.785,3.014,2.9934,3.0736,3.0891,3.0296,2.9507,2.7967,2.5629,2.2732,2.0595,0.0,0.0,0.0,0.0,0.0,0.0,0.0,0.0,0.0,0.0,0.0,0.0,0.0,0.0,0.0,0.0,0.0,0.0,0.0,0.0,0.0,0.0,0.0,1.5778,0.0,0.0,0.0,0.0,0.0,0.0,0.0,0.0,0.0,1.4048,1.3933,1.4104,1.5228,1.4325,1.3658,1.3976,0.0,0.0,0.0,0.0,0.0,0.0,0.0,0.9966,0.9589,1.0716,1.1747,1.2075,1.3132,1.4065,1.4453,0.0,0.0,1.1524,1.2961,1.4713,1.5435,1.6121,1.6594,1.6569,1.6641,1.656,0.0,0.0,0.0,0.0,0.0,0.0,0.0,0.0,2.5997,2.5218,0.0,2.5344,0.0,0.0,0.0,0.0,2.2918,2.3935,0.0,0.0,2.8457,2.9365,2.8243,2.8634,2.8628,2.8237,2.6904,2.5852,2.5096,2.3775,0.0,0.0,0.0,0.0,0.0,0.0,2.3484,2.3256,2.7633,2.9935,2.9969,3.0922,3.1092,3.0278,2.9525,2.8871,2.8343,2.5421,2.3681,2.3315,1.8532,0.0,0.0,0.0,0.0,0.0,0.0,0.0,0.0,0.0,0.0,0.0,0.0,0.0,0.0,0.0,0.0,0.0,0.0,0.0,0.0,1.4448,0.0,0.0,0.0,0.0,0.0,0.0,0.0,0.0,0.0,0.0,1.2783,1.4075,1.5239,1.5505,0.0,0.0,0.0,0.0,1.4101,0.9715,0.892,0.8981,0.9091,1.0286,1.187,1.3653,0.0,0.0,1.5885,1.3864,1.2543,1.2804,1.36,1.4098,1.4618,1.4127,1.4469,1.6622,1.6128,1.5257,1.551,1.5933,1.5991,2.714,0.0,0.0,0.0,0.0,2.5728,2.6716,2.8405,2.702,2.6626,2.6911,2.6108,0.0,0.0,0.0,0.0,0.0,0.0,2.7281,2.9168,2.9728,3.0957,3.2705,3.2117,3.2127,3.2588,3.0894,2.9993,2.983,2.8161,2.5729,2.2621,0.0,0.0,0.0,0.0,2.4796,2.5011,2.8404,3.0258,3.0259,3.082,3.0618,2.9553,2.9503,2.8853,2.7483,2.6649,2.5252,2.3268,2.18,0.0,0.0,0.0,0.0,0.0,0.0,0.0,0.0,0.0,0.0,0.0,0.0,0.0,0.0,0.0,0.0,0.0,0.0,0.0,1.6765,1.7495,1.7001,0.0,0.0,0.0,0.0,0.0,0.0,0.0,0.0,0.0,1.3874,1.3382,1.3183,0.0,0.0,1.1073,1.0137,1.1496,1.2653,1.2827,1.2566,0.0,1.383,1.3091,1.2499,1.2793,1.4556,1.5801,1.5471,1.6122,1.6545,1.6083,1.616,1.6284,1.6146,1.6142,1.6487,1.748,1.7478,1.7295,1.7413,1.7572,1.7756,2.9964,2.8339,2.7705,2.7632,2.7875,2.774,2.854,2.9908,2.8734,2.8298,2.8407,2.7894,2.6777,2.5226,2.5412,0.0,0.0,0.0,2.9796,3.2222,3.1563,3.2559,3.4755,3.4148,3.388,3.397,3.3186,3.2403,3.1568,2.9661,2.7287,2.4426,0.0,0.0,2.2099,2.4211,2.5635,2.6337,2.8854,3.0292,3.0378,3.0922,3.0923,3.0337,3.0238,2.958,2.8346,2.7696,2.6618,2.5042,2.3932,2.1941,0.0,0.0,0.0,0.0,0.0,0.0,0.0,0.0,0.0,0.0,0.0,1.3205,1.231,0.0,0.0,0.0,1.8288,1.8349,1.789,1.7336,0.0,0.0,0.0,0.0,0.0,0.0,0.0,1.0221,1.3753,1.5842,1.4111,1.39,1.4392,1.563,1.3901,1.2339,1.179,0.0,1.4075,1.4459,1.3944,1.3877,1.4832,1.4342,1.3934,1.4396,1.5628,1.6474,1.6272,1.7216,1.7822,1.758,1.7272,1.7025,1.6998,1.7072,1.7377,1.8102,1.8056,1.7989,1.8313,1.8547,1.8675,3.1919,3.1148,2.9732,2.9305,2.957,3.0141,3.0579,3.0905,3.0874,3.0207,2.9215,3.0331,2.9232,2.6605,2.7032,0.0,2.9823,3.0692,3.2266,3.4342,3.373,3.409,3.5235,3.5057,3.4385,3.3424,3.408,3.3296,3.1228,2.9351,2.8194,2.7794,2.6036,2.5014,2.4729,2.5073,2.5979,2.7409,2.9009,3.0054,3.0395,3.1059,3.1523,3.1727,3.115,3.061,3.0147,2.8525,2.7656,2.7641,2.52,2.3607,2.3055,0.0,0.0,0.0,0.0,0.0,0.0,0.0,0.0,0.0,0.0,0.0,0.0,0.0,0.0,0.0,1.8492,0.0,1.836,1.566,0.0,0.0,0.0,1.4096,1.7021,1.728,1.6443,1.4364,0.0,0.0,1.4442,1.5659,1.7823,2.0774,1.9787,1.7991,1.5861,1.6768,1.7134,1.5094,1.4162,1.372,1.4062,1.4518,1.5438,1.681,1.7733,1.7563,1.7424,1.7243,1.728,1.7602,1.712,1.6724,1.7262,1.7082,1.7268,1.8247,1.7929,1.7731,1.8434,1.866,1.8818,3.2808,3.2587,3.224,3.1842,3.145,3.1763,3.2184,3.2667,3.2447,3.2437,3.2567,3.2196,3.1698,3.1221,3.1683,3.2327,3.3163,3.3484,3.4169,3.5103,3.4728,3.5066,3.597,3.5421,3.5162,3.51,3.4,3.3028,3.2287,3.0992,2.9544,2.8079,2.7556,2.6472,2.4796,2.501,2.5951,2.7604,2.8832,2.9753,3.0356,3.0581,3.0428,2.997,3.0071,2.9831,2.9163,2.8194,2.7532,2.7245,2.6036,2.4589,2.2878,1.9743,0.0,0.0,0.0,0.0,0.0,0.0,0.0,0.0,0.0,1.1243,0.9687,0.0,1.662,0.0,1.9078,2.1568,2.1891,2.0373,0.0,0.0,1.6665,1.6075,1.687,1.8902,1.9189,1.6436,1.8507,2.0614,2.177,2.0395,2.0119,2.2271,1.9271,1.6623,1.617,1.7279,1.774,1.6784,1.7364,1.7716,1.5902,1.5057,1.4972,1.6089,1.6279,1.6412,1.6757,1.7019,1.7121,1.695,1.6746,1.6671,1.6808,1.6632,1.6666,1.7045,1.7486,1.7905,1.8148,1.8554,1.8954,3.2813,3.2553,3.2883,3.2789,3.2474,3.2644,3.2911,3.3218,3.3233,3.3454,3.3731,3.3443,3.3358,3.3525,3.398,3.4131,3.4166,3.4739,3.5024,3.505,3.5038,3.5421,3.6065,3.556,3.5064,3.461,3.3797,3.29,3.1961,3.1287,3.0463,2.9406,2.9036,2.8022,2.6358,2.5898,2.6335,2.7613,2.8548,2.9724,3.1094,3.0849,2.9948,2.848,2.8638,2.7799,2.5861,2.5076,2.453,2.4213,2.3444,2.2348,2.0832,1.8617,1.6535,0.0,0.0,0.0,0.0,0.0,0.0,0.0,0.0,0.0,0.0,0.0,1.8026,1.706,1.9867,2.1251,2.0138,1.9506,1.9156,1.9241,1.8923,1.9218,2.0607,2.2323,2.2669,2.073,2.1842,2.3036,2.3656,2.23,2.1445,2.2133,1.9912,1.8134,1.7881,1.8002,1.7818,1.7243,1.7829,1.7584,1.5285,1.4285,1.4179,1.5255,1.5546,1.5782,1.651,1.6869,1.6971,1.6838,1.682,1.6812,1.6812,1.6716,1.6617,1.6859,1.7163,1.7572,1.7918,1.8407,1.8815,3.2467,3.1929,3.2587,3.2855,3.2918,3.3034,3.3144,3.3276,3.3697,3.3846,3.3835,3.4255,3.4372,3.4298,3.4676,3.4527,3.4076,3.5032,3.525,3.4798,3.4962,3.5363,3.583,3.5388,3.4531,3.3324,3.357,3.2893,3.1234,3.1234,3.1129,3.0902,3.0268,2.9425,2.8348,2.7235,2.6943,2.7428,2.8285,2.9501,3.112,3.0463,2.8956,2.6695,2.6573,2.5144,2.2172,2.1257,2.0781,2.0626,1.987,1.9303,1.8923,1.7206,1.5902,0.0,1.2588,0.0,0.0,0.0,0.0,0.0,0.0,0.0,0.0,1.7517,1.8973,1.9801,2.0447,1.9808,1.7369,1.7391,1.8474,2.0864,2.1438,2.2681,2.528,2.581,2.5754,2.5257,2.4792,2.3946,2.2525,2.2426,2.2095,2.0948,2.0344,1.9711,1.934,1.847,1.7757,1.7212,1.6499,1.5544,1.3704,1.3035,1.348,1.4865,1.533,1.5668,1.6814,1.7012,1.7018,1.7128,1.7177,1.7169,1.7161,1.6958,1.6901,1.7153,1.7118,1.7208,1.7716,1.8251,1.8609,3.2397,3.2276,3.2447,3.2707,3.2992,3.3001,3.3341,3.3953,3.4643,3.4757,3.4446,3.4544,3.4258,3.3683,3.3726,3.4027,3.4453,3.4419,3.485,3.562,3.4834,3.4825,3.5418,3.4557,3.3955,3.3656,3.35,3.3029,3.2364,3.2364,3.1747,3.0506,3.0368,2.9697,2.8592,0.0,0.0,0.0,2.8156,2.796,2.6474,2.5637,2.4399,2.2681,2.2608,0.0,2.1993,2.1002,2.0584,2.0781,1.9773,0.0,0.0,0.0,0.0,0.0,0.0,0.0,0.0,0.0,0.0,0.0,1.5718,1.534,1.5559,1.6146,1.7402,1.9551,1.9849,2.0683,2.2542,2.2509,2.2719,2.3577,2.4062,2.4596,2.5254,2.5063,2.5104,2.5653,2.4645,2.3,2.1025,2.1384,2.1429,1.986,1.888,1.8103,1.7362,1.7859,1.8008,1.7345,1.5897,1.4473,1.3148,1.2826,1.357,1.4987,1.5593,1.6187,1.7491,1.7806,1.7731,1.7539,1.7497,1.7457,1.7421,1.721,1.7177,1.7562,1.7567,1.7465,1.7594,1.8087,1.8671,3.2048,3.2212,3.2408,3.2716,0.0,3.3478,3.387,3.4233,3.4776,3.5123,3.5265,3.4931,3.4528,3.4191,3.3819,3.3632,3.3665,3.3853,3.4101,3.4308,3.4137,3.4258,3.4596,3.4047,3.3714,3.3534,3.3385,3.3072,3.2709,3.2672,3.2287,3.1552,3.1552,3.1129,3.0352,2.9943,2.938,2.8686,2.8504,2.8179,2.7677,2.659,2.5029,2.3101,2.299,0.0,0.0,0.0,0.0,0.0,0.0,0.0,0.0,1.9183,0.0,1.9394,1.8221,1.7928,1.8814,1.8859,1.9146,1.9895,1.9519,1.8823,1.7798,1.8787,2.0064,2.145,2.1518,2.2096,2.3639,2.3618,2.3678,2.4214,2.4276,2.4354,2.4698,2.4638,2.4635,2.4852,2.4252,2.2999,2.1265,2.1112,2.0738,1.9432,1.8462,1.754,1.6546,1.6588,1.6632,1.607,1.4764,1.4014,1.4457,1.4868,1.513,1.6159,1.6338,1.686,1.8032,1.8004,1.7812,1.7624,1.7414,1.7323,1.7603,1.7494,1.7425,1.7708,1.7875,1.784,1.7758,1.8271,1.8875,3.1666,3.1917,3.2287,3.2646,3.3095,3.3819,3.4267,3.4535,3.4882,0.0,0.0,3.5164,3.4783,3.4471,3.3806,3.3282,3.2949,3.3456,3.3491,3.3125,3.3599,3.3815,3.3803,3.3768,3.3587,3.3322,3.3355,3.3189,3.2804,3.2841,3.2804,3.2694,3.2694,3.2436,3.1972,3.1416,3.0887,3.0421,2.8885,2.8496,2.9265,2.7952,2.6172,2.3859,2.377,2.2484,1.9924,1.9741,1.9661,1.9541,1.9524,1.9621,1.9808,1.9663,1.9438,1.917,1.917,1.9754,2.1071,2.1317,2.1918,2.3142,2.2693,2.1862,2.05,2.2048,2.3093,2.3235,2.3188,2.3159,2.3309,2.314,2.3318,2.402,2.3667,2.3637,2.4252,2.4281,2.4187,2.4083,2.3752,2.314,2.2093,2.1339,2.037,1.9367,1.8583,1.7579,1.6212,1.5559,1.5324,1.5083,1.4321,1.4068,1.5691,1.7175,1.7713,1.7126,1.7254,1.7648,1.8278,1.8196,1.7878,1.7762,1.7381,1.7429,1.7768,1.7802,1.7778,1.7875,1.8177,1.8368,1.8228,1.8758,1.9291,3.1531,3.1598,3.1632,3.2092,3.2785,3.3221,3.4182,3.5427,3.5772,3.5444,3.4646,3.4897,3.4252,3.2973,3.2552,3.2802,3.3605,3.3393,3.375,3.4539,3.4073,3.3802,3.3801,3.3498,3.3357,3.3332,3.3603,3.3515,3.3196,3.3477,3.3288,3.2705,3.2629,3.2228,3.158,3.1733,3.1479,3.0733,2.896,2.7064,2.5188,2.436,2.3089,2.1359,2.109,2.0635,2.0152,1.993,1.9698,1.9666,1.9584,2.0498,2.2622,2.2271,2.29,2.4842,2.4701,2.442,2.4159,2.3883,2.3476,2.2897,2.2299,2.1998,2.2097,2.2533,2.2729,2.2421,2.2265,2.236,2.2836,2.269,2.2864,2.3618,2.3691,2.3786,2.4046,2.3774,2.3694,2.4006,2.3337,2.2565,2.1795,2.1479,2.0896,1.9491,1.8827,1.7784,1.6361,1.5317,1.5257,1.5533,1.5255,1.5222,1.616,1.7973,1.8593,1.7681,1.8253,1.8783,1.9149,1.9029,1.8705,1.8201,1.797,1.7986,1.8111,1.8119,1.8087,1.8149,1.8757,1.923,1.8824,1.9476,2.0022,3.1791,3.2053,3.1686,3.1962,3.2625,3.2643,3.3245,3.4284,3.4704,3.4955,3.4954,3.4541,3.3963,3.3256,3.2683,3.27,3.3183,3.3009,3.3207,3.3655,3.3346,3.3322,3.3494,3.3389,3.3412,3.358,3.3713,3.3695,3.3521,3.3652,3.3578,3.3182,3.2716,3.217,3.1622,3.1121,3.06,3.0043,2.9291,2.8274,2.6933,2.6188,2.5418,2.461,2.4442,2.4378,2.4378,2.4224,2.4159,2.4159,2.388,2.4264,2.5408,2.4826,2.4898,2.5961,2.5573,2.5049,2.4504,2.3776,2.3155,2.2714,2.2244,2.2006,2.2191,2.2158,2.2122,2.2092,2.2009,2.2149,2.2673,2.2601,2.283,2.361,2.3475,2.3407,2.3643,2.3379,2.3337,2.3622,2.3336,2.295,2.2726,2.2166,2.165,2.0696,1.9744,1.8529,1.7505,1.6523,1.5817,1.5617,1.5774,1.6349,1.7011,1.8002,1.8837,1.8998,1.9264,1.9492,1.9488,1.9219,1.8643,1.8245,1.7989,1.7943,1.8129,1.7709,1.7756,1.8549,1.9154,1.9488,1.9488,1.9898,2.0362,3.1687,3.2064,3.1485,3.1702,3.2425,3.2231,3.2632,3.344,3.3633,3.4218,3.4902,3.4265,3.3901,3.3718,3.3118,3.2861,3.2929,3.288,3.2897,3.2929,3.2946,3.3117,3.3391,3.3402,3.3515,3.375,3.3775,3.3694,3.3581,3.3653,3.3647,3.348,3.2729,3.2094,3.1656,3.0599,2.9868,2.9536,2.9667,2.9525,2.9041,2.8361,2.802,2.8116,2.802,2.8028,2.8014,2.7955,2.7874,2.776,2.7481,2.7245,2.7088,2.6471,2.5941,2.5649,2.5195,2.4591,2.3862,2.3,2.2488,2.2488,2.2184,2.2039,2.2029,2.1889,2.1825,2.1985,2.2121,2.2332,2.2679,2.2847,2.3157,2.3701,2.3353,2.3252,2.3377,2.3152,2.3085,2.3332,2.3265,2.3274,2.3499,2.2906,2.2195,2.1906,2.0663,1.9554,1.907,1.8092,1.7108,1.6303,1.6242,1.6767,1.7896,1.8456,1.8913,1.9889,1.9787,1.9593,1.9425,1.882,1.8363,1.8223,1.7989,1.8044,1.8223,1.7896,1.7943,1.8883,1.9674,2.0092,2.0092,2.0371,2.0696,3.0791,3.0457,3.0399,3.0979,3.1993,3.2378,3.309,3.3988,3.3526,3.3483,3.3899,3.4194,3.4114,3.3758,3.3395,3.3391,3.3611,3.3374,3.3391,3.3662,3.3696,3.3713,3.3761,3.369,3.3667,3.3713,3.3726,3.35,3.3171,3.352,3.348,3.3062,3.261,3.2006,3.1327,3.0736,3.0224,2.9862,2.9884,2.9586,2.8944,2.8534,2.8481,2.8798,2.8496,2.835,2.8355,2.8072,2.7737,2.7368,2.7335,2.7054,2.655,2.6342,2.5831,2.4911,2.4694,2.4122,2.2913,2.2341,2.2081,2.2059,2.2061,2.2116,2.2245,2.2235,2.2169,2.2146,2.2415,2.2724,2.2954,2.3368,2.367,2.3909,2.3643,2.3474,2.3544,2.313,2.2891,2.3354,2.2869,2.2726,2.3452,2.3143,2.2787,2.2602,2.1358,2.0371,2.0038,1.965,1.915,1.8096,1.6778,1.6407,1.7849,1.9015,1.9154,1.8782,1.9201,1.9395,1.9116,1.893,1.8744,1.8269,1.8502,1.865,1.8744,1.8837,1.9061,1.948,2.0278,2.1029,2.1075,2.1029,2.1122,3.0299,3.0504,3.0053,3.0256,3.0905,3.129,3.201,3.2822,3.2787,3.294,3.329,3.3509,3.3501,3.3441,3.3552,3.3662,3.3799,3.3905,3.3856,3.3835,3.4248,3.4367,3.4096,3.4059,3.4065,3.4026,3.3802,3.3572,3.3426,3.3516,3.3589,3.3492,3.2505,3.1935,3.2017,3.0736,3.0077,3.0185,3.0009,2.9614,2.9167,2.922,2.922,2.9123,2.9235,2.9123,2.8925,2.8716,2.8329,2.7697,2.738,2.6865,2.6146,2.5618,2.5034,2.449,2.4112,2.3543,2.2694,2.261,2.2546,2.2449,2.2535,2.2622,2.2686,2.2632,2.2675,2.2965,2.3111,2.3248,2.3594,2.383,2.3932,2.3877,2.3662,2.3544,2.3523,2.3292,2.3158,2.3134,2.2888,2.2771,2.3007,2.2907,2.2856,2.2892,2.2212,2.1559,2.133,2.0794,2.033,1.9815,1.8269,1.7538,1.8456,1.9015,1.9201,1.9154,1.9116,1.907,1.8977,1.865,1.8409,1.8223,1.8689,1.893,1.8837,1.9442,1.986,2.0269,2.0603,2.1214,2.1214,2.1214,2.1214,2.976,3.0167,2.9701,2.9743,3.0117,3.0609,3.1282,3.2008,3.2269,3.2634,3.2969,3.2992,3.3139,3.3374,3.3763,3.3954,3.395,3.4226,3.4113,3.3798,3.4379,3.4458,3.4143,3.4086,3.4119,3.4057,3.3776,3.362,3.3597,3.3537,3.364,3.3681,3.2448,3.1994,3.2391,3.0831,3.0151,3.0466,3.0165,2.9763,2.9396,2.9641,2.9554,2.9113,2.9341,2.9341,2.9058,2.8896,2.849,2.7744,2.7268,2.6598,2.5699,2.5036,2.452,2.4063,2.3533,2.3107,2.2772,2.2912,2.2955,2.2902,2.3052,2.3073,2.3008,2.3032,2.3359,2.3795,2.3924,2.416,2.4296,2.4382,2.4269,2.4049,2.3918,2.3688,2.3453,2.3308,2.3194,2.317,2.2921,2.2829,2.2806,2.2718,2.2811,2.3373,2.3015,2.2619,2.2418,2.1744,2.1243,2.1229,1.9919,1.9069,1.9015,1.8892,1.9125,1.9108,1.8875,1.8744,1.8744,1.8464,1.8417,1.8596,1.8977,1.9349,1.9573,2.0083,2.0742,2.0973,2.1261,2.1455,2.1446,2.1353,2.1214,2.8949,2.9042,2.9311,2.9681,3.0071,3.084,3.1601,3.2286,3.2371,3.2618,3.2993,3.3017,3.326,3.37,3.4054,3.4289,3.4273,3.4289,3.4071,3.3733,3.3822,3.3766,3.3727,3.3682,3.3644,3.3717,3.3612,3.3504,3.351,3.3517,3.3533,3.3476,3.253,3.2174,3.2133,3.1218,3.0746,3.0676,3.0343,2.9941,2.9523,2.9523,2.9215,2.8644,2.8585,2.8668,2.8546,2.8193,2.7758,2.7281,2.6815,2.608,2.5179,2.4993,2.4437,2.3557,2.3031,2.2848,2.2955,2.303,2.3105,2.3311,2.3354,2.33,2.3193,2.3567,2.4019,2.4431,2.4954,2.5217,2.5085,2.5038,2.4914,2.4716,2.4319,2.3886,2.3463,2.3159,2.307,2.3274,2.2872,2.2744,2.3225,2.2913,2.3118,2.3578,2.3256,2.2752,2.3021,2.2704,2.2288,2.1903,2.125,2.049,1.9441,1.88,1.8412,1.8475,1.8602,1.834,1.8417,1.8502,1.8697,1.9023,1.9619,2.0083,2.0408,2.0964,2.1714,2.2001,2.1891,2.1994,2.1986,2.1521,2.141,2.8549,2.9247,2.9364,2.9938,3.0775,3.0997,3.171,3.271,3.2698,3.2915,3.3254,3.3321,3.3556,3.3944,3.4105,3.4219,3.4295,3.4242,3.4001,3.3714,3.4168,3.4243,3.3977,3.3929,3.3937,3.3872,3.3617,3.3533,3.3533,3.3533,3.364,3.3599,3.2448,3.1994,3.2242,3.1123,3.0415,3.0444,3.0407,3.0085,2.9422,2.926,2.8933,2.8433,2.8752,2.8907,2.8815,2.839,2.7794,2.7067,2.6541,2.5872,2.496,2.4319,2.3829,2.3435,2.3226,2.3181,2.3268,2.3418,2.3461,2.3408,2.3548,2.377,2.384,2.3764,2.4019,2.5052,2.542,2.5642,2.5884,2.5654,2.5257,2.5045,2.4654,2.4217,2.3953,2.3668,2.3553,2.3276,2.2953,2.2964,2.3015,2.282,2.3067,2.4024,2.3731,2.3365,2.329,2.3224,2.2904,2.212,2.1816,2.1472,2.029,1.909,1.842,1.846,1.8516,1.849,1.8543,1.8819,1.9036,1.9287,1.996,2.0807,2.1151,2.1801,2.2532,2.2671,2.2609,2.2663,2.2616,2.2104,2.1985,2.8665,2.9358,2.9643,3.0184,3.0947,3.1263,3.189,3.2752,3.2931,3.3205,3.3476,3.3533,3.3738,3.4049,3.3968,3.405,3.4226,3.4184,3.396,3.3629,3.4099,3.4213,3.3968,3.3886,3.3886,3.3886,3.364,3.3533,3.3533,3.3533,3.3622,3.3718,3.2478,3.2024,3.2157,3.1112,3.0437,3.0311,3.017,2.9769,2.9195,2.8765,2.843,2.825,2.8487,2.8608,2.8522,2.8072,2.7504,2.6758,2.623,2.5569,2.4596,2.3852,2.3397,2.3397,2.3397,2.344,2.3515,2.3711,2.3754,2.3644,2.3944,2.4291,2.4429,2.4241,2.4811,2.5597,2.6049,2.6297,2.6489,2.6134,2.5663,2.5319,2.4777,2.4301,2.4035,2.3881,2.367,2.3343,2.3072,2.3061,2.3365,2.3004,2.3308,2.4262,2.4033,2.3754,2.3625,2.3544,2.3322,2.2349,2.228,2.1872,2.1119,2.0197,1.9477,1.9429,1.9252,1.909,1.9078,1.93,1.956,1.9748,2.031,2.1245,2.1991,2.2606,2.2978,2.3164,2.3266,2.3353,2.3118,2.2742,2.2576,2.9383,2.9555,3.0111,3.0442,3.068,3.1621,3.2159,3.2433,3.3066,3.3394,3.3476,3.3533,3.3681,3.3927,3.3681,3.3731,3.4009,3.405,3.3878,3.3567,3.3599,3.3599,3.3558,3.3558,3.3574,3.3574,3.3549,3.3508,3.3581,3.3587,3.3565,3.3244,3.2773,3.2137,3.1711,3.1138,3.0751,3.0263,2.9556,2.9088,2.8871,2.8168,2.7826,2.7941,2.7629,2.7517,2.7611,2.7203,2.6744,2.6278,2.576,2.5062,2.4264,2.3729,2.3429,2.3461,2.344,2.3537,2.3765,2.3819,2.3927,2.4067,2.4498,2.4673,2.48,2.5309,2.5819,2.6063,2.6542,2.6957,2.6855,2.6468,2.6003,2.5594,2.4796,2.4182,2.3892,2.3613,2.3513,2.3577,2.3267,2.3231,2.3887,2.3717,2.3593,2.4073,2.4254,2.4156,2.3982,2.3786,2.3487,2.3101,2.2681,2.2114,2.1781,2.1428,2.095,2.0531,2.022,2.0015,2.0037,2.0244,2.0505,2.078,2.1669,2.2564,2.2977,2.3598,2.3921,2.413,2.4141,2.4041,2.3862,2.3541,2.3001,2.9877,3.0097,3.0302,3.0727,3.1167,3.1576,3.2035,3.2628,3.2942,3.3205,3.3435,3.3533,3.3558,3.364,3.3574,3.3558,3.3681,3.3681,3.3599,3.3533,3.3492,3.3533,3.3533,3.3533,3.3533,3.3524,3.3746,3.3842,3.3889,3.4064,3.3877,3.3153,3.2404,3.1766,3.121,3.0506,3.0016,2.987,2.9495,2.9163,2.8824,2.8061,2.7708,2.7738,2.7345,2.7128,2.7145,2.6728,2.6414,2.6267,2.5467,2.4743,2.4199,2.3983,2.3892,2.3892,2.3892,2.3914,2.3978,2.4,2.4143,2.4361,2.4653,2.5033,2.5353,2.5651,2.6049,2.6499,2.69,2.7027,2.6891,2.6254,2.5799,2.5605,2.5012,2.4406,2.4078,2.3948,2.3832,2.3744,2.4188,2.4393,2.4104,2.3874,2.4345,2.4644,2.4805,2.4721,2.4323,2.4025,2.3665,2.3268,2.2779,2.2338,2.2093,2.1946,2.1689,2.1299,2.1033,2.0979,2.1009,2.1165,2.1485,2.203,2.2926,2.3582,2.4046,2.4388,2.4657,2.482,2.471,2.4668,2.4711,2.4265,2.3509,3.0199,3.0405,3.0522,3.099,3.1688,3.1828,3.246,3.3162,3.3234,3.3435,3.3626,3.3581,3.3533,3.3533,3.3533,3.3533,3.3533,3.3533,3.3556,3.3635,3.3524,3.3533,3.3549,3.3635,3.3762,3.3889,3.408,3.4191,3.4207,3.4356,3.4005,3.3047,3.2433,3.1743,3.0916,3.0318,2.9923,2.9555,2.9229,2.8832,2.8367,2.7788,2.7423,2.7423,2.7163,2.6984,2.6828,2.6395,2.612,2.5856,2.5103,2.4337,2.3924,2.397,2.4118,2.4118,2.4118,2.4107,2.4118,2.4367,2.4578,2.478,2.5325,2.581,2.6225,2.6202,2.646,2.7023,2.7042,2.7027,2.6891,2.6345,2.5868,2.5708,2.4976,2.4518,2.4272,2.4387,2.4398,2.443,2.4849,2.4854,2.4663,2.4572,2.4958,2.5055,2.5195,2.5046,2.4586,2.4159,2.3716,2.3277,2.2739,2.2485,2.2387,2.2387,2.2387,2.2077,2.1728,2.1828,2.1897,2.2151,2.2432,2.3118,2.3936,2.4283,2.4705,2.4875,2.5125,2.5173,2.5163,2.5142,2.5003,2.4387,2.372,3.0446,3.0504,3.0742,3.1285,3.2029,3.2491,3.3079,3.3765,3.3966,3.3975,3.3937,3.3683,3.3565,3.3533,3.3533,3.3508,3.3524,3.3556,3.3746,3.3889,3.3778,3.3651,3.374,3.3921,3.4159,3.4382,3.4493,3.4541,3.4541,3.4636,3.4007,3.3005,3.2774,3.2076,3.079,3.0513,3.0057,2.9283,2.8796,2.8301,2.7792,2.7287,2.7027,2.7027,2.7075,2.6944,2.6743,2.6306,2.5868,2.5468,2.471,2.4077,2.3712,2.3921,2.4161,2.4204,2.4161,2.4183,2.4296,2.4794,2.5169,2.5317,2.6223,2.711,2.7016,2.7012,2.7143,2.7367,2.7235,2.7148,2.7056,2.6543,2.6133,2.5752,2.4888,2.4415,2.4552,2.4807,2.4889,2.4997,2.5109,2.5184,2.5292,2.5233,2.513,2.5055,2.526,2.5105,2.4601,2.4189,2.3784,2.3268,2.273,2.2485,2.2387,2.2681,2.2681,2.2671,2.2438,2.2623,2.276,2.3023,2.3635,2.4286,2.4588,2.4969,2.5211,2.5389,2.5426,2.5378,2.5421,2.5448,2.506,2.4386,2.3842,3.0686,3.1197,3.1286,3.1593,3.2086,3.283,3.3241,3.3476,3.4134,3.4255,3.4048,3.3921,3.3746,3.3508,3.3549,3.3619,3.3826,3.3873,3.4048,3.4318,3.4302,3.4239,3.4239,3.4318,3.443,3.4557,3.4795,3.4848,3.4879,3.5086,3.4334,3.2808,3.2676,3.1837,3.0348,3.0093,2.9766,2.9227,2.8745,2.8249,2.7694,2.7254,2.7027,2.6994,2.7162,2.7203,2.7115,2.655,2.5778,2.5056,2.4812,2.4577,2.4394,2.4405,2.443,2.4538,2.4452,2.4452,2.4675,2.5147,2.5539,2.5789,2.6629,2.7146,2.7334,2.7639,2.7729,2.7763,2.7739,2.7715,2.7491,2.6806,2.6013,2.5205,2.4844,2.4757,2.493,2.4915,2.499,2.5313,2.5378,2.5432,2.5464,2.5453,2.5378,2.5335,2.5351,2.5254,2.4646,2.421,2.3815,2.3268,2.2779,2.2534,2.2485,2.2828,2.3023,2.3121,2.316,2.3404,2.3541,2.3764,2.465,2.5545,2.5135,2.5302,2.5556,2.5765,2.5712,2.5518,2.5518,2.5469,2.4935,2.432,2.3833,3.0946,3.1482,3.1482,3.1876,3.255,3.3256,3.3704,3.4002,3.4438,3.4636,3.4445,3.4271,3.4112,3.3963,3.4129,3.4183,3.4233,3.4432,3.4582,3.4673,3.489,3.4874,3.4763,3.4731,3.4795,3.497,3.516,3.5256,3.5201,3.5146,3.4143,3.2852,3.2292,3.1315,3.0048,2.9644,2.9375,2.8912,2.8429,2.792,2.7423,2.7163,2.7027,2.6984,2.7051,2.7024,2.6713,2.6224,2.5498,2.4767,2.4655,2.4713,2.4513,2.4595,2.4667,2.4786,2.4678,2.4761,2.5163,2.5697,2.621,2.6608,2.7274,2.7712,2.789,2.8104,2.8065,2.8005,2.7993,2.7814,2.745,2.6828,2.6131,2.5491,2.5377,2.5358,2.5232,2.5141,2.5227,2.5432,2.5518,2.5518,2.5518,2.5518,2.5518,2.5507,2.5475,2.507,2.4525,2.4205,2.3717,2.3072,2.2739,2.2504,2.2446,2.273,2.3268,2.3414,2.3853,2.4107,2.4243,2.4438,2.5081,2.5712,2.5566,2.5566,2.5761,2.5858,2.5664,2.5518,2.5518,2.5275,2.4779,2.4194,2.3707,3.1049,3.1579,3.1579,3.2248,3.3217,3.3762,3.426,3.4806,3.5008,3.5049,3.4922,3.4684,3.4509,3.4509,3.4803,3.4957,3.4684,3.5022,3.5077,3.521,3.5319,3.5351,3.5113,3.5081,3.5224,3.5446,3.5601,3.5601,3.5352,3.4684,3.3719,3.2734,3.1848,3.0884,3.0003,2.9465,2.9002,2.8565,2.8056,2.7558,2.7163,2.7027,2.6936,2.6802,2.6709,2.649,2.6146,2.5731,2.5265,2.4335,2.4635,2.4689,2.443,2.4693,2.4835,2.4941,2.4988,2.5192,2.5683,2.6359,2.6974,2.7461,2.8105,2.862,2.8464,2.8343,2.827,2.8246,2.8029,2.7769,2.7299,2.6954,2.6618,2.6185,2.6257,2.6112,2.565,2.5544,2.5615,2.5566,2.5566,2.5712,2.5518,2.5518,2.5566,2.548,2.5404,2.496,2.4454,2.4074,2.3464,2.269,2.2504,2.2474,2.2504,2.2583,2.3219,2.3717,2.44,2.474,2.4789,2.5032,2.5324,2.5615,2.5615,2.5712,2.5858,2.5809,2.5566,2.5421,2.5372,2.507,2.4681,2.4048,2.3512,3.087,3.205,3.205,3.2681,3.3642,3.4186,3.4579,3.4947,3.532,3.5287,3.5022,3.4911,3.4779,3.4567,3.5138,3.5245,3.5376,3.5536,3.5542,3.5474,3.5526,3.5601,3.549,3.5474,3.5538,3.5617,3.5617,3.5617,3.5399,3.4612,3.3675,3.2675,3.1671,3.0839,2.9958,2.942,2.897,2.8474,2.7965,2.7468,2.7072,2.7006,2.6848,2.6576,2.6388,2.6343,2.626,2.6175,2.5814,2.5389,2.5249,2.5206,2.5137,2.5078,2.5221,2.5393,2.5545,2.5784,2.6238,2.6967,2.7612,2.7793,2.8224,2.8572,2.8572,2.8572,2.8524,2.8524,2.8428,2.8152,2.7663,2.7554,2.7241,2.6976,2.7118,2.7189,2.6758,2.6454,2.6148,2.5954,2.639,2.6729,2.5712,2.5928,2.5842,2.555,2.5225,2.4858,2.444,2.4027,2.3325,2.2646,2.2519,2.2588,2.2865,2.3023,2.3609,2.4058,2.4692,2.5032,2.5081,2.5324,2.5518,2.5664,2.5712,2.5809,2.5858,2.5712,2.5469,2.5372,2.5119,2.473,2.4292,2.3756,2.3366,3.0921,3.1869,3.2133,3.2723,3.3557,3.4229,3.4649,3.4956,3.5399,3.5478,3.5363,3.5504,3.5478,3.5446,3.5985,3.6287,3.5945,3.5719,3.5643,3.5585,3.5617,3.5704,3.5922,3.5922,3.5938,3.5965,3.6183,3.6139,3.5661,3.4509,3.344,3.2587,3.1374,3.0437,2.9913,2.942,2.8957,2.8474,2.7965,2.7468,2.7072,2.7114,2.6975,2.6527,2.6229,2.6082,2.5922,2.5906,2.5761,2.5566,2.5518,2.5518,2.5507,2.541,2.5507,2.5851,2.6001,2.6438,2.6996,2.7453,2.7875,2.8139,2.8476,2.8524,2.8572,2.8572,2.8572,2.8572,2.8572,2.8368,2.7887,2.7779,2.7598,2.7308,2.755,2.7598,2.7201,2.6922,2.6826,2.6536,2.6729,2.6584,2.6305,2.6263,2.6059,2.5712,2.5423,2.5051,2.4555,2.4068,2.3499,2.2983,2.2758,2.28,2.3159,2.3562,2.4107,2.4497,2.4838,2.4984,2.4984,2.5275,2.5566,2.5615,2.5615,2.5664,2.5664,2.5518,2.5227,2.4838,2.4487,2.4194,2.3863,2.3385,2.3071,3.1022,3.1538,3.2054,3.2685,3.3376,3.4191,3.4755,3.509,3.5399,3.5645,3.5748,3.6155,3.6205,3.654,3.7139,3.7102,3.66,3.6194,3.6107,3.5949,3.5965,3.6139,3.6356,3.6486,3.6486,3.6486,3.6573,3.6486,3.5558,3.429,3.3043,3.2305,3.0922,3.0209,2.997,2.9544,2.9099,2.8723,2.8115,2.7627,2.722,2.7263,2.7004,2.6472,2.6045,2.5783,2.5642,2.561,2.5572,2.5518,2.5518,2.5518,2.5518,2.5518,2.5664,2.6159,2.6271,2.6755,2.7345,2.7791,2.8139,2.8572,2.8572,2.8572,2.8572,2.8572,2.8572,2.8524,2.8476,2.8284,2.7983,2.7839,2.7694,2.755,2.7742,2.7694,2.7453,2.732,2.7523,2.7357,2.732,2.7127,2.6711,2.6449,2.6168,2.5916,2.5634,2.531,2.4799,2.4387,2.3934,2.3725,2.3597,2.367,2.3958,2.3957,2.4544,2.4932,2.5155,2.5148,2.5117,2.5296,2.555,2.548,2.5469,2.5518,2.5372,2.5129,2.474,2.4243,2.3853,2.3658,2.3326,2.2955,2.2538,3.0872,3.1553,3.2282,3.3053,3.3804,3.4598,3.5058,3.5439,3.5558,3.5835,3.6183,3.6286,3.6573,3.6946,3.7334,3.7447,3.7291,3.7032,3.6903,3.6687,3.6643,3.6773,3.686,3.7099,3.7109,3.6876,3.6665,3.6133,3.505,3.3572,3.2776,3.1876,3.0863,3.0426,3.0324,2.9965,2.941,2.8996,2.8403,2.7897,2.7628,2.7238,2.6816,2.6244,2.5845,2.5653,2.561,2.5701,2.5723,2.555,2.5518,2.5518,2.5518,2.5518,2.5615,2.5858,2.6487,2.7067,2.7405,2.8031,2.838,2.8572,2.8572,2.8572,2.8572,2.8572,2.8572,2.8524,2.8284,2.8079,2.8428,2.8139,2.8091,2.8187,2.8332,2.8392,2.8331,2.839,2.8244,2.7908,2.7849,2.7801,2.7276,2.6838,2.6623,2.6292,2.5896,2.5718,2.5334,2.5033,2.4779,2.4698,2.4639,2.4718,2.491,2.4741,2.4937,2.5317,2.5563,2.562,2.5557,2.5511,2.5545,2.5473,2.5301,2.5178,2.4984,2.474,2.4374,2.3935,2.3542,2.3141,2.255,2.2011,2.118,3.081,3.1206,3.1828,3.2544,3.3345,3.4111,3.4755,3.5303,3.5755,3.6068,3.6416,3.6746,3.7076,3.7378,3.7765,3.7851,3.7636,3.7334,3.7162,3.6989,3.6989,3.7119,3.7255,3.7501,3.7451,3.7241,3.6927,3.6131,3.5036,3.396,3.2845,3.2004,3.1085,3.0707,3.065,3.0142,2.9682,2.9263,2.8678,2.8143,2.7766,2.7251,2.6743,2.6353,2.6027,2.5809,2.5733,2.5836,2.5755,2.5572,2.5518,2.5518,2.5518,2.5518,2.5615,2.5954,2.6632,2.7212,2.7501,2.8187,2.8572,2.8572,2.8572,2.8572,2.8572,2.8572,2.8572,2.8524,2.8476,2.8284,2.8524,2.8332,2.838,2.8524,2.8584,2.8705,2.8813,2.8946,2.8691,2.8327,2.8359,2.8213,2.7754,2.7388,2.713,2.673,2.6259,2.6027,2.5844,2.5542,2.5318,2.5083,2.4931,2.4849,2.4925,2.4895,2.5074,2.5468,2.5776,2.5833,2.5883,2.5702,2.5571,2.5465,2.523,2.5089,2.4692,2.4459,2.4043,2.3572,2.295,2.2317,2.1673,2.0953,2.0158,3.0776,3.0832,3.139,3.2028,3.2762,3.3564,3.4391,3.5178,3.5854,3.6335,3.666,3.7248,3.7636,3.7808,3.8023,3.8066,3.7722,3.7421,3.7378,3.7334,3.7334,3.7481,3.7621,3.7668,3.761,3.7392,3.6889,3.6279,3.4837,3.4082,3.3135,3.2078,3.1224,3.1253,3.1261,3.0896,3.0206,2.9674,2.889,2.8342,2.7712,2.7314,2.6883,2.6628,2.6374,2.6185,2.5981,2.6035,2.5895,2.5712,2.5604,2.5572,2.5529,2.5518,2.5712,2.6159,2.6729,2.7249,2.7646,2.8284,2.8572,2.8572,2.8572,2.8572,2.8572,2.8572,2.8572,2.8572,2.8572,2.8524,2.8572,2.8572,2.8572,2.8596,2.8693,2.8777,2.897,2.9103,2.9175,2.8953,2.8935,2.8725,2.8398,2.784,2.7531,2.7152,2.667,2.6483,2.6257,2.5829,2.5543,2.5236,2.5022,2.4759,2.4688,2.4659,2.4989,2.5519,2.5711,2.5856,2.5845,2.5822,2.5711,2.5679,2.5398,2.5219,2.4701,2.4121,2.3671,2.3093,2.2285,2.1513,2.0854,2.0056,1.9237,3.0776,3.0846,3.1628,3.2239,3.2762,3.3549,3.453,3.5515,3.5698,3.6451,3.7291,3.755,3.7808,3.8109,3.8237,3.8237,3.8195,3.816,3.8048,3.8065,3.8099,3.8122,3.815,3.8114,3.7794,3.7373,3.6543,3.5111,3.4141,3.3752,3.276,3.1568,3.2079,3.2524,3.2382,3.1918,3.1631,3.1093,2.9677,2.8414,2.7629,2.7401,2.6995,2.6534,2.644,2.6433,2.625,2.6304,2.6229,2.5901,2.5858,2.5723,2.5561,2.5518,2.5518,2.5858,2.6439,2.7164,2.7357,2.8091,2.8572,2.8572,2.8572,2.8572,2.8572,2.8572,2.8572,2.8572,2.8572,2.8608,2.862,2.8596,2.8584,2.8729,2.8862,2.8946,2.9091,2.9369,2.9429,2.9488,2.9469,2.9431,2.926,2.8569,2.7935,2.7481,2.7123,2.6885,2.6591,2.6118,2.5656,2.5348,2.4847,2.4557,2.4316,2.4264,2.4739,2.5334,2.5488,2.5723,2.5989,2.608,2.6187,2.6102,2.5772,2.5244,2.4712,2.4098,2.3427,2.274,2.2062,2.1085,2.0106,1.921,1.8336,3.1025,3.0873,3.1423,3.1998,3.2502,3.3243,3.4076,3.4987,3.551,3.6273,3.7198,3.7507,3.7851,3.8237,3.828,3.828,3.8332,3.8546,3.8666,3.8734,3.8811,3.8955,3.8852,3.8579,3.8139,3.7432,3.6485,3.5243,3.4035,3.3093,3.2376,3.1684,3.2322,3.2774,3.3022,3.2755,3.2393,3.1712,3.0406,2.886,2.7826,2.7494,2.7279,2.6523,2.671,2.6678,2.657,2.6498,2.6347,2.603,2.5906,2.5798,2.5593,2.5518,2.5518,2.5566,2.6536,2.7067,2.726,2.8091,2.8476,2.8572,2.8572,2.8572,2.8572,2.8584,2.8584,2.8572,2.8572,2.8693,2.8813,2.885,2.885,2.8922,2.9091,2.9175,2.9308,2.9562,2.9755,2.9876,2.991,2.9697,2.9433,2.8813,2.8217,2.7907,2.7352,2.6856,2.6642,2.6334,2.581,2.5337,2.4825,2.4319,2.3993,2.3859,2.4322,2.4779,2.492,2.5287,2.6078,2.6397,2.6395,2.6181,2.5789,2.5225,2.4729,2.4156,2.3589,2.2743,2.1838,2.0952,1.992,1.8373,1.7607,3.1455,3.1206,3.1613,3.2028,3.237,3.3026,3.3872,3.4752,3.5332,3.6132,3.689,3.7421,3.7851,3.8195,3.8297,3.8349,3.8512,3.8742,3.8957,3.9128,3.9316,3.9382,3.9181,3.8836,3.819,3.7586,3.6174,3.4856,3.3637,3.2724,3.2101,3.1665,3.2971,3.3323,3.3257,3.329,3.3196,3.2029,3.1159,2.99,2.8822,2.8739,2.8326,2.7902,2.7625,2.7516,2.7159,2.7126,2.6946,2.6196,2.6142,2.6056,2.5809,2.5727,2.5712,2.5864,2.661,2.7147,2.7391,2.7935,2.8476,2.8572,2.8596,2.862,2.8741,2.8741,2.8825,2.8946,2.8886,2.897,2.9055,2.9115,2.9115,2.92,2.9344,2.9429,2.955,2.9779,2.9948,3.0033,2.9903,2.9483,2.9178,2.8806,2.8461,2.8269,2.7718,2.695,2.654,2.6232,2.5553,2.4935,2.4525,2.4026,2.3881,2.3769,2.4143,2.4348,2.4434,2.4985,2.5954,2.6328,2.6348,2.6065,2.5804,2.5498,2.5161,2.4458,2.368,2.2723,2.181,2.0915,1.9807,1.817,1.7195,3.2133,3.2122,3.2495,3.2657,3.2783,3.3151,3.4039,3.5064,3.5207,3.5926,3.6983,3.7464,3.7894,3.8212,3.8366,3.8563,3.8854,3.8905,3.9162,3.9368,3.9488,3.9478,3.92,3.8671,3.7812,3.6674,3.5359,3.4016,3.2939,3.2255,3.1705,3.1564,3.3347,3.423,3.4385,3.4197,3.3493,3.2524,3.1864,3.1434,3.0682,3.0515,3.039,2.9917,2.976,2.9518,2.8529,2.8291,2.7649,2.6555,2.6487,2.6358,2.6071,2.605,2.6024,2.6228,2.6834,2.7292,2.7578,2.803,2.8476,2.8572,2.8596,2.8693,2.891,2.8982,2.9151,2.9381,2.9248,2.9284,2.9344,2.9381,2.9381,2.9453,2.9574,2.9658,2.9791,2.9972,3.0129,3.0189,2.9909,2.9401,2.888,2.8473,2.828,2.8065,2.7513,2.6796,2.618,2.5707,2.4935,2.4306,2.4048,2.3761,2.3761,2.3836,2.3994,2.4199,2.4319,2.5044,2.5974,2.6181,2.6033,2.6259,2.6084,2.5877,2.55,2.4533,2.3567,2.2653,2.176,2.0981,1.9858,1.8393,1.7605,3.2587,3.2633,3.3453,3.3526,3.312,3.3756,3.4424,3.5008,3.5083,3.5826,3.7032,3.7722,3.8109,3.8332,3.8571,3.8751,3.8947,3.9409,3.9642,3.973,3.9784,3.97,3.9224,3.8152,3.6933,3.6081,3.4546,3.3368,3.2757,3.1941,3.1739,3.2184,3.3577,3.4121,3.4432,3.4759,3.4071,3.3214,3.277,3.2431,3.1199,3.1172,3.1014,3.0305,3.024,2.9631,2.8756,2.8603,2.7795,2.7036,2.6785,2.6573,2.6369,2.6369,2.6482,2.6617,2.7289,2.7702,2.7945,2.8329,2.8584,2.8572,2.8596,2.8717,2.9006,2.9043,2.9175,2.9357,2.9501,2.9513,2.9634,2.9646,2.9658,2.9719,2.9791,2.9888,2.9972,3.0129,3.0037,3.0011,2.9655,2.9186,2.8677,2.8167,2.8013,2.7809,2.7257,2.6694,2.6077,2.5553,2.4935,2.4358,2.41,2.4203,2.4254,2.41,2.3893,2.4058,2.4264,2.4867,2.5589,2.5528,2.5553,2.5925,2.6309,2.6009,2.5429,2.4418,2.3393,2.2302,2.1665,2.1152,1.9885,1.8677,1.827,3.2983,3.3119,3.4097,3.4108,3.362,3.4308,3.4752,3.4959,3.5017,3.5671,3.6816,3.761,3.798,3.8168,3.8674,3.8991,3.9231,3.9676,4.0018,4.0061,4.0022,3.9765,3.8906,3.7707,3.6343,3.544,3.4054,3.2794,3.189,3.1624,3.1434,3.1874,3.3069,3.3681,3.4525,3.4993,3.4991,3.4163,3.3703,3.3408,3.2031,3.2074,3.2013,3.1403,3.1391,3.0493,2.9682,2.9162,2.8291,2.732,2.6748,2.6705,2.6667,2.671,2.6951,2.7303,2.7774,2.831,2.8532,2.8701,2.8669,2.8644,2.8572,2.8753,2.9031,2.9139,2.9332,2.967,2.9695,2.9719,2.9912,2.9924,2.9924,2.9972,3.002,3.0093,3.0069,3.0103,2.9936,2.9757,2.9389,2.9033,2.8116,2.7565,2.7565,2.7411,2.7155,2.6694,2.618,2.5707,2.5347,2.4822,2.44,2.4667,2.4976,2.4883,2.4729,2.4213,2.4387,2.4442,2.4859,2.4969,2.5228,2.5662,2.5938,2.6018,2.5486,2.4587,2.3287,2.188,2.1451,2.1127,2.0883,1.9832,1.9425,3.3476,3.3572,3.4265,3.436,3.4144,3.4705,3.5033,3.514,3.5167,3.566,3.6557,3.7032,3.7497,3.79,3.8707,3.9162,3.9505,3.9899,4.0224,4.039,3.9913,3.9354,3.8297,3.7098,3.5422,3.3929,3.2869,3.1839,3.0767,3.101,3.0985,3.1379,3.2408,3.3568,3.4666,3.5661,3.578,3.5137,3.4626,3.4137,3.3713,3.3456,3.3173,3.2633,3.2511,3.1504,2.9936,2.953,2.858,2.7214,2.6907,2.6834,2.6802,2.7291,2.753,2.7515,2.8399,2.8784,2.8699,2.887,2.8922,2.8789,2.8813,2.8958,2.9284,2.9441,2.9574,2.9936,3.0069,3.0117,3.0177,3.0177,3.0153,3.0153,3.0202,3.0202,3.0165,3.0153,2.9948,2.9604,2.9288,2.888,2.7769,2.7012,2.7012,2.7012,2.695,2.6642,2.6283,2.6067,2.581,2.545,2.5028,2.5131,2.545,2.5656,2.5501,2.4883,2.4552,2.463,2.4839,2.516,2.5377,2.5551,2.5747,2.6013,2.5544,2.4873,2.3754,2.2761,2.1652,2.1238,2.1188,2.1073,2.0578,3.4049,3.44,3.5143,3.5371,3.5304,3.5312,3.5572,3.5875,3.6221,3.6658,3.7188,3.7636,3.8063,3.8534,3.898,3.9488,3.9847,4.0224,4.0532,4.0459,3.981,3.8788,3.7683,3.6098,3.4468,3.3036,3.2046,3.1383,3.0533,3.0773,3.089,3.1249,3.2401,3.3903,3.5023,3.5898,3.6115,3.532,3.4861,3.4548,3.4171,3.3987,3.3493,3.2448,3.241,3.1353,2.9479,2.9327,2.841,2.7155,2.6899,2.695,2.7052,2.7553,2.798,2.8195,2.8945,2.9282,2.9343,2.95,2.9417,2.9236,2.9127,2.9248,2.961,2.9658,2.9888,3.0054,3.0151,3.0163,3.0214,3.0151,3.0139,3.0189,3.0214,3.0214,3.0202,3.0202,3.0011,2.9503,2.9084,2.832,2.7309,2.7058,2.7028,2.6974,2.6963,2.692,2.6642,2.6642,2.6478,2.617,2.5861,2.581,2.5913,2.6129,2.6077,2.5553,2.5089,2.4903,2.5102,2.5278,2.5289,2.5306,2.5679,2.5979,2.5653,2.5308,2.4726,2.3765,2.2893,2.242,2.2537,2.227,2.1578,3.4498,3.4866,3.5427,3.5883,3.6098,3.6091,3.6269,3.6573,3.686,3.7162,3.7437,3.7986,3.8346,3.879,3.9348,3.9744,4.0025,4.0412,4.0583,4.0447,3.9582,3.8375,3.6837,3.5296,3.3841,3.2495,3.1558,3.0878,3.0668,3.0825,3.076,3.1107,3.2551,3.3476,3.4539,3.5235,3.6031,3.5339,3.4948,3.4307,3.4039,3.3669,3.2931,3.212,3.1454,3.0645,2.9213,2.841,2.8053,2.7298,2.7042,2.7195,2.74,2.7911,2.8473,2.8931,2.9377,2.9751,2.9884,2.9886,2.9815,2.9707,2.955,2.9538,2.9731,2.9767,2.9936,3.0054,3.0049,2.9981,3.0029,2.9966,2.9753,2.9753,2.9742,2.9742,2.9655,2.9604,2.9452,2.8931,2.8575,2.7758,2.7177,2.7225,2.7219,2.7155,2.709,2.6985,2.692,2.6909,2.6847,2.6488,2.6334,2.6272,2.6324,2.654,2.6437,2.6129,2.5728,2.5326,2.5084,2.5147,2.5137,2.5314,2.6079,2.6535,2.6186,2.5796,2.5496,2.5122,2.4585,2.4186,2.4114,2.3422,2.2692,3.4824,3.489,3.518,3.5875,3.6568,3.6839,3.6999,3.7032,3.7032,3.7076,3.7135,3.8006,3.8382,3.8551,3.9471,3.9991,4.0093,4.0464,4.0504,4.0266,3.9491,3.7991,3.6606,3.5182,3.3783,3.2461,3.1481,3.1049,3.089,3.0903,3.0665,3.0704,3.2015,3.2736,3.3451,3.4121,3.5064,3.4953,3.4391,3.3817,3.3505,3.2841,3.1942,3.1252,3.0797,2.9885,2.8818,2.8206,2.7758,2.74,2.74,2.7656,2.8116,2.8829,2.9186,2.9542,2.996,3.0088,3.0115,3.0153,3.0153,3.0008,2.9731,2.9682,2.9755,2.99,2.9956,2.9948,2.9852,2.9727,2.9667,2.9317,2.8979,2.8956,2.8882,2.8848,2.8802,2.8688,2.8484,2.8167,2.7962,2.7411,2.6982,2.6957,2.7273,2.7251,2.7187,2.7144,2.7028,2.6909,2.6807,2.6591,2.6488,2.658,2.6704,2.6871,2.6862,2.6595,2.6182,2.5779,2.5466,2.5336,2.5621,2.6127,2.686,2.7207,2.7313,2.7053,2.6728,2.6289,2.5807,2.5237,2.4865,2.4389,2.3711,3.5433,3.5727,3.6106,3.6368,3.6695,3.7309,3.7512,3.743,3.7404,3.7593,3.7954,3.8474,3.8797,3.9157,3.9768,4.0155,4.0378,4.047,4.0339,3.9964,3.9445,3.8099,3.6761,3.5366,3.401,3.28,3.1853,3.1236,3.0951,3.0916,3.0916,3.0942,3.1532,3.1856,3.2122,3.2477,3.3511,3.401,3.3393,3.2933,3.2442,3.1777,3.085,3.0115,2.9999,2.9033,2.8065,2.7553,2.7195,2.7144,2.7502,2.7758,2.786,2.8779,2.9491,2.996,3.0112,3.0214,3.0214,3.0214,3.0214,3.0214,3.002,3.0045,3.0081,3.0016,2.996,2.9825,2.9596,2.9428,2.9227,2.8911,2.8614,2.8506,2.8387,2.8161,2.8127,2.7974,2.7758,2.7502,2.7246,2.7001,2.6623,2.6989,2.7284,2.7294,2.7294,2.7273,2.7073,2.6965,2.6756,2.6488,2.6602,2.6704,2.6905,2.7094,2.7137,2.7055,2.6608,2.6307,2.6243,2.6209,2.6354,2.6825,2.7577,2.8199,2.8727,2.8414,2.7875,2.7432,2.6958,2.6245,2.5595,2.4917,2.4065,3.5838,3.6131,3.632,3.6577,3.6936,3.7501,3.7794,3.7843,3.7894,3.8066,3.8366,3.8905,3.9265,3.9505,4.0001,4.0378,4.0549,4.0566,4.0356,3.9918,3.9354,3.8162,3.6915,3.5754,3.4525,3.3304,3.2374,3.1806,3.1379,3.1141,3.1141,3.057,3.0938,3.1012,3.1168,3.1465,3.182,3.223,3.2182,3.1746,3.1289,3.0812,2.99,2.9186,2.9135,2.8269,2.74,2.7104,2.7001,2.7309,2.7809,2.8218,2.8473,2.9288,2.9796,3.0163,3.0214,3.0214,3.0264,3.0467,3.0366,3.0315,3.0378,3.0262,3.0068,2.9911,2.9829,2.9706,2.9382,2.9134,2.8874,2.8603,2.8409,2.8217,2.7895,2.7576,2.7462,2.7298,2.7042,2.6785,2.658,2.6375,2.6521,2.6991,2.7348,2.7434,2.751,2.7553,2.7235,2.6814,2.6573,2.6334,2.6612,2.6839,2.7073,2.7318,2.7424,2.7362,2.6933,2.6766,2.6839,2.6891,2.7006,2.7547,2.8242,2.8748,2.9222,2.933,2.8953,2.8404,2.754,2.66,2.5668,2.4754,2.3792,3.6097,3.6097,3.6097,3.6491,3.7159,3.7577,3.7912,3.8229,3.822,3.828,3.846,3.9077,3.9429,3.96,4.0087,4.0429,4.0549,4.0583,4.022,3.9827,3.9354,3.8345,3.7285,3.6344,3.5226,3.401,3.3177,3.2752,3.1995,3.1616,3.1093,3.0175,3.0175,3.0363,3.0509,3.0529,3.0695,3.0664,3.0801,3.0603,3.0599,3.0279,2.9885,2.9288,2.8892,2.8331,2.7809,2.7451,2.7257,2.7769,2.8371,2.888,2.9389,2.9796,3.0112,3.0163,3.0214,3.0214,3.0264,3.0467,3.0467,3.0467,3.0643,3.0322,2.9986,2.9825,2.973,2.9446,2.9096,2.8786,2.8535,2.7972,2.7643,2.7284,2.6946,2.6674,2.6478,2.6324,2.617,2.6016,2.6016,2.5923,2.6098,2.6554,2.7316,2.7551,2.7627,2.7628,2.7492,2.6912,2.6722,2.6482,2.6471,2.6814,2.7151,2.7427,2.767,2.7597,2.7355,2.7441,2.7664,2.7664,2.7567,2.8017,2.8446,2.8963,2.933,2.9384,2.9169,2.8522,2.7648,2.6728,2.5698,2.4328,2.3355,3.6097,3.6097,3.6097,3.6354,3.6741,3.7176,3.7553,3.7912,3.8203,3.8289,3.8366,3.882,3.9214,3.9549,3.9967,4.031,4.0515,4.0521,4.0038,3.9628,3.9217,3.8667,3.7532,3.6776,3.5941,3.5428,3.4712,3.3587,3.2611,3.1948,3.1392,3.0678,3.0357,3.0174,3.0041,2.9946,2.9701,2.9653,2.9753,2.9701,2.9471,2.9542,2.9338,2.8994,2.8586,2.8382,2.7962,2.7707,2.7656,2.7911,2.8779,2.9389,2.996,3.0112,3.0214,3.0214,3.0226,3.025,3.0313,3.0489,3.0514,3.0436,3.0421,3.0104,2.9845,2.9746,2.9532,2.9142,2.8807,2.8481,2.8055,2.7397,2.685,2.6452,2.6006,2.5727,2.545,2.5347,2.5244,2.5347,2.546,2.5666,2.5779,2.6347,2.7055,2.7348,2.7359,2.7415,2.7599,2.7324,2.7323,2.708,2.6463,2.6682,2.7102,2.7609,2.7928,2.8311,2.8291,2.8389,2.8498,2.8231,2.7952,2.8167,2.8563,2.9037,2.9265,2.9265,2.8942,2.8242,2.6989,2.5742,2.4219,2.2745,2.2152,3.6097,3.6137,3.6299,3.6586,3.6914,3.7156,3.7384,3.7602,3.7969,3.814,3.8193,3.8649,3.9042,3.9377,3.9779,4.0087,4.0361,4.0532,4.0158,3.9673,3.9308,3.8804,3.807,3.7332,3.6684,3.6127,3.4619,3.3445,3.2813,3.2056,3.1405,3.082,3.0392,3.0122,2.9849,2.9479,2.929,2.9216,2.9368,2.926,2.8994,2.9186,2.9288,2.8982,2.8688,2.8524,2.8422,2.8218,2.8167,2.8524,2.9338,2.9757,3.0112,3.0214,3.0214,3.0262,3.031,3.0395,3.0458,3.0557,3.0657,3.069,3.0905,3.0799,2.9851,2.9695,2.9174,2.8804,2.8668,2.8359,2.7728,2.706,2.6787,2.6473,2.5602,2.4903,2.4616,2.4409,2.4564,2.4883,2.5141,2.5614,2.5975,2.6807,2.7413,2.7463,2.7442,2.7699,2.7737,2.7835,2.7834,2.7653,2.706,2.6818,2.7165,2.7717,2.8262,2.8636,2.8989,2.8938,2.8779,2.8511,2.8382,2.8371,2.8564,2.9048,2.9211,2.8931,2.8274,2.7411,2.6004,2.4428,2.2791,2.1211,2.0443,3.6258,3.6339,3.6661,3.6997,3.7294,3.7282,3.7327,3.7373,3.7709,3.7968,3.809,3.8579,3.8812,3.912,3.9539,3.9785,4.0042,4.031,4.0084,3.9947,3.9827,3.9142,3.8591,3.8178,3.744,3.6219,3.4753,3.3639,3.2768,3.2041,3.1373,3.0744,3.0433,3.029,2.9994,2.9765,2.9637,2.9677,2.9748,2.9823,2.9694,2.9491,2.9542,2.9338,2.9033,2.8982,2.8931,2.8829,2.8677,2.9084,2.9757,3.0011,3.0163,3.0214,3.0214,3.0262,3.0431,3.0527,3.0663,3.1079,3.1073,3.117,3.153,3.1107,3.0025,2.952,2.9007,2.8503,2.8349,2.8124,2.7483,2.6889,2.6713,2.6296,2.5268,2.4374,2.4115,2.3899,2.4251,2.4613,2.5181,2.5697,2.6375,2.7246,2.7594,2.7647,2.7876,2.8063,2.827,2.8316,2.837,2.8102,2.7675,2.7525,2.7514,2.7781,2.8424,2.8821,2.9112,2.9113,2.8996,2.8404,2.8134,2.8242,2.8511,2.8835,2.8662,2.8393,2.7573,2.6319,2.4418,2.2572,2.1039,1.9562,1.8515,3.6822,3.7165,3.7245,3.7339,3.7364,3.7363,3.7457,3.7743,3.7859,3.8081,3.833,3.8488,3.8695,3.8975,3.9036,3.9333,3.9837,4.0059,4.0062,3.993,3.9992,3.9279,3.8683,3.8454,3.7993,3.6792,3.5514,3.4686,3.3328,3.2254,3.1656,3.138,3.0524,3.0342,3.0379,3.0164,2.991,2.9939,3.0061,3.0112,3.0214,3.0112,3.0061,2.9858,2.9542,2.9389,2.9288,2.9237,2.9237,2.9491,2.9948,3.0264,3.0315,3.0315,3.0214,3.0298,3.0479,3.0636,3.086,3.1182,3.1147,3.1183,3.1167,3.061,2.9982,2.9842,2.9125,2.7952,2.7866,2.8006,2.7492,2.6864,2.6476,2.5953,2.5141,2.4613,2.4251,2.4402,2.4676,2.5228,2.583,2.6326,2.6775,2.7535,2.8159,2.8331,2.8797,2.8928,2.877,2.8798,2.8835,2.85,2.8156,2.8221,2.8188,2.8081,2.8468,2.8931,2.905,2.8781,2.8457,2.7972,2.781,2.7594,2.7983,2.836,2.8134,2.7583,2.5949,2.4473,2.2408,2.0607,1.9122,1.7743,1.6631]},{"header":{"parameterUnit":"m.s-1","parameterCategory":1,"la1":31.0,"la2":29.5877,"lo1":-88.7671,"lo2":-86.6584,"dy":0.0162,"dx":0.0185,"nx":115,"ny":88,"refTime":"2023-05-31T12:00:00:Z","depth":0,"parameterNumber":3,"parameterNumberName":"V-component_of_WINDS"},"data":[0.0,0.0,0.0,0.0,0.0,0.0,0.0,0.0,0.0,0.0,0.0,0.0,0.0,0.0,0.0,0.0,0.0,0.0,0.0,0.0,0.0,0.0,0.0,0.0,0.0,0.0,0.0,0.0,0.0,0.0,0.0,0.0,0.0,0.0,0.0,0.0,0.0,0.0,0.0,0.0,0.0,0.0,0.0,0.0,0.0,0.0,0.0,0.0,0.0,0.0,0.0,0.0,0.0,0.0,0.0,0.0,0.0,0.0,0.0,0.0,0.0,0.0,0.0,0.0,0.0,0.0,0.0,0.0,0.0,0.0,0.0,0.0,0.0,0.0,0.0,0.0,0.0,0.0,0.0,0.0,0.0,0.0,0.0,0.0,0.0,0.0,0.0,0.0,0.0,0.0,0.0,0.0,0.0,0.0,0.0,0.0,0.0,0.0,0.0,0.0,0.0,0.0,0.0,0.0,0.0,0.0,0.0,0.0,0.0,0.0,0.0,0.0,0.0,0.0,0.0,0.0,0.0,0.0,0.0,0.0,0.0,0.0,0.0,0.0,0.0,0.0,0.0,0.0,0.0,0.0,0.0,0.0,0.0,0.0,0.0,0.0,0.0,0.0,0.0,0.0,0.0,0.0,0.0,0.0,0.0,0.0,0.0,0.0,0.0,0.0,0.0,0.0,0.0,0.0,0.0,0.0,0.0,0.0,0.0,0.0,0.0,0.0,0.0,0.0,0.0,0.0,0.0,0.0,0.0,0.0,0.0,0.0,0.0,0.0,0.0,0.0,0.0,0.0,0.0,0.0,0.0,0.0,0.0,0.0,0.0,0.0,0.0,0.0,0.0,0.0,0.0,0.0,0.0,0.0,0.0,0.0,0.0,0.0,0.0,0.0,0.0,0.0,0.0,0.0,0.0,0.0,0.0,0.0,0.0,0.0,0.0,0.0,0.0,0.0,0.0,0.0,0.0,0.0,0.0,0.0,0.0,0.0,0.0,0.0,0.0,0.0,0.0,0.0,0.0,0.0,0.0,0.0,0.0,0.0,0.0,0.0,0.0,0.0,0.0,0.0,0.0,0.0,0.0,0.0,0.0,0.0,0.0,0.0,0.0,0.0,0.0,0.0,0.0,0.0,0.0,0.0,0.0,0.0,0.0,0.0,0.0,0.0,0.0,0.0,0.0,0.0,0.0,0.0,0.0,0.0,0.0,0.0,0.0,0.0,0.0,0.0,0.0,0.0,0.0,0.0,0.0,0.0,0.0,0.0,0.0,0.0,0.0,0.0,0.0,0.0,0.0,0.0,0.0,0.0,0.0,0.0,0.0,0.0,0.0,0.0,0.0,0.0,0.0,0.0,0.0,0.0,0.0,0.0,0.0,0.0,0.0,0.0,0.0,0.0,0.0,0.0,0.0,0.0,0.0,0.0,0.0,0.0,0.0,0.0,0.0,0.0,0.0,0.0,0.0,0.0,0.0,0.0,0.0,0.0,0.0,0.0,0.0,0.0,0.0,0.0,0.0,0.0,0.0,0.0,0.0,0.0,0.0,0.0,0.0,0.0,0.0,0.0,0.0,0.0,0.0,0.0,0.0,0.0,0.0,0.0,0.0,0.0,0.0,0.0,0.0,0.0,0.0,0.0,0.0,0.0,0.0,0.0,0.0,0.0,0.0,0.0,0.0,0.0,0.0,0.0,0.0,0.0,0.0,0.0,0.0,0.0,0.0,0.0,0.0,0.0,0.0,0.0,0.0,0.0,0.0,0.0,0.0,0.0,0.0,0.0,0.0,0.0,0.0,0.0,0.0,0.0,0.0,0.0,0.0,0.0,0.0,0.0,0.0,0.0,0.0,0.0,0.0,0.0,0.0,0.0,0.0,0.0,0.0,0.0,0.0,0.0,0.0,0.0,0.0,0.0,0.0,0.0,0.0,0.0,0.0,0.0,0.0,0.0,0.0,0.0,0.0,0.0,0.0,0.0,0.0,0.0,0.0,0.0,0.0,0.0,0.0,0.0,0.0,0.0,0.0,0.0,0.0,0.0,0.0,0.0,0.0,0.0,0.0,0.0,0.0,0.0,0.0,0.0,0.0,0.0,0.0,0.0,0.0,0.0,0.0,0.0,0.0,0.0,0.0,0.0,0.0,0.0,0.0,0.0,0.0,0.0,0.0,0.0,0.0,0.0,0.0,0.0,0.0,0.0,0.0,0.0,0.0,0.0,0.0,0.0,0.0,0.0,0.0,0.0,0.0,0.0,0.0,0.0,0.0,0.0,0.0,0.0,0.0,0.0,0.0,0.0,0.0,0.0,0.0,0.0,0.0,0.0,0.0,0.0,0.0,0.0,0.0,0.0,0.0,0.0,0.0,0.0,0.0,0.0,0.0,0.0,0.0,0.0,0.0,0.0,0.0,0.0,0.0,0.0,0.0,0.0,0.0,0.0,0.0,0.0,0.0,0.0,0.0,0.0,0.0,0.0,0.0,0.0,0.0,0.0,0.0,0.0,0.0,0.0,0.0,0.0,0.0,0.0,0.0,0.0,0.0,0.0,0.0,0.0,0.0,0.0,0.0,0.0,0.0,0.0,0.0,0.0,0.0,0.0,0.0,0.0,0.0,0.0,0.0,0.0,0.0,0.0,0.0,0.0,0.0,0.0,0.0,0.0,0.0,0.0,0.0,0.0,0.0,0.0,0.0,0.0,0.0,0.0,0.0,0.0,0.0,0.0,0.0,0.0,0.0,0.0,0.0,0.0,0.0,0.0,0.0,0.0,0.0,0.0,0.0,0.0,0.0,0.0,0.0,0.0,0.0,0.0,0.0,0.0,0.0,0.0,0.0,0.0,0.0,0.0,0.0,0.0,0.0,0.0,0.0,0.0,0.0,0.0,0.0,0.0,0.0,0.0,0.0,0.0,0.0,0.0,0.0,0.0,0.0,0.0,0.0,0.0,0.0,0.0,0.0,0.0,0.0,0.0,0.0,0.0,0.0,0.0,0.0,0.0,0.0,0.0,0.0,0.0,0.0,0.0,0.0,0.0,0.0,0.0,0.0,0.0,0.0,0.0,0.0,0.0,0.0,0.0,0.0,0.0,0.0,0.0,0.0,0.0,0.0,0.0,0.0,0.0,0.0,0.0,0.0,0.0,0.0,0.0,0.0,0.0,0.0,0.0,0.0,0.0,0.0,0.0,0.0,0.0,0.0,0.0,0.0,0.0,0.0,0.0,0.0,0.0,0.0,0.0,0.0,0.0,0.0,0.0,0.0,0.0,0.0,0.0,0.0,0.0,0.0,0.0,0.0,0.0,0.0,0.0,0.0,0.0,0.0,0.0,0.0,0.0,0.0,0.0,0.0,0.0,0.0,0.0,0.0,0.0,0.0,0.0,0.0,0.0,0.0,0.0,0.0,0.0,0.0,0.0,0.0,0.0,0.0,0.0,0.0,0.0,0.0,0.0,0.0,0.0,0.0,0.0,0.0,0.0,0.0,0.0,0.0,0.0,0.0,0.0,0.0,0.0,0.0,0.0,0.0,0.0,0.0,0.0,0.0,0.0,0.0,0.0,0.0,0.0,0.0,0.0,0.0,0.0,0.0,0.0,0.0,0.0,0.0,0.0,0.0,0.0,0.0,0.0,0.0,0.0,0.0,0.0,0.0,0.0,0.0,0.0,0.0,0.0,0.0,0.0,0.0,0.0,0.0,0.0,0.0,0.0,0.0,0.0,0.0,0.0,0.0,0.0,0.0,0.0,0.0,0.0,0.0,0.0,0.0,0.0,0.0,0.0,0.0,0.0,0.0,0.0,0.0,0.0,0.0,0.0,0.0,0.0,0.0,0.0,0.0,0.0,0.0,0.0,0.0,0.0,0.0,0.0,0.0,0.0,0.0,0.0,0.0,0.0,0.0,0.0,0.0,0.0,0.0,0.0,0.0,0.0,0.0,0.0,0.0,0.0,0.0,0.0,0.0,0.0,0.0,0.0,0.0,0.0,0.0,0.0,0.0,0.0,0.0,0.0,0.0,0.0,0.0,0.0,0.0,0.0,0.0,0.0,0.0,0.0,0.0,0.0,0.0,0.0,0.0,0.0,0.0,0.0,0.0,0.0,0.0,0.0,0.0,0.0,0.0,0.0,0.0,0.0,0.0,0.0,0.0,0.0,0.0,0.0,0.0,0.0,0.0,0.0,0.0,0.0,0.0,0.0,0.0,0.0,0.0,0.0,0.0,0.0,0.0,0.0,0.0,0.0,0.0,0.0,0.0,0.0,0.0,0.0,0.0,0.0,0.0,0.0,0.0,0.0,2.5605,0.0,0.0,0.0,0.0,0.0,0.0,0.0,0.0,0.0,0.0,0.0,0.0,0.0,0.0,0.0,0.0,0.0,0.0,0.0,0.0,0.0,0.0,0.0,0.0,0.0,0.0,0.0,0.0,0.0,0.0,0.0,0.0,0.0,0.0,0.0,0.0,0.0,0.0,0.0,0.0,0.0,0.0,0.0,0.0,0.0,0.0,0.0,0.0,0.0,0.0,0.0,0.0,0.0,0.0,0.0,0.0,0.0,0.0,0.0,0.0,0.0,0.0,0.0,0.0,0.0,0.0,0.0,0.0,0.0,0.0,0.0,0.0,0.0,0.0,0.0,0.0,0.0,0.0,0.0,0.0,0.0,0.0,0.0,0.0,0.0,0.0,0.0,0.0,0.0,0.0,0.0,0.0,0.0,0.0,0.0,0.0,0.0,0.0,0.0,0.0,0.0,0.0,0.0,0.0,0.0,0.0,0.0,0.0,0.0,0.0,2.0381,2.2613,2.2232,2.3311,2.6212,0.0,0.0,0.0,0.0,0.0,0.0,0.0,0.0,0.0,0.0,0.0,0.0,0.0,0.0,0.0,0.0,0.0,0.0,0.0,0.0,0.0,0.0,0.0,0.0,0.0,0.0,0.0,0.0,0.0,0.0,0.0,0.0,0.0,0.0,0.0,0.0,0.0,0.0,0.0,0.0,0.0,0.0,0.0,0.0,0.0,0.0,0.0,0.0,0.0,0.0,0.0,0.0,0.0,0.0,0.0,0.0,0.0,0.0,0.0,0.0,0.0,0.0,0.0,0.0,0.0,0.0,0.0,0.0,0.0,0.0,0.0,0.0,0.0,0.0,0.0,0.0,0.0,0.0,0.0,0.0,0.0,0.0,0.0,0.0,0.0,0.0,0.0,0.0,0.0,0.0,0.0,0.0,0.0,0.0,0.0,0.0,0.0,0.0,0.0,0.0,0.0,0.0,0.0,0.0,0.0,0.0,0.0,0.0,0.0,0.0,0.0,0.0,2.2928,2.4364,2.7444,0.0,0.0,0.0,0.0,0.0,0.0,0.0,0.0,0.0,0.0,0.0,0.0,0.0,0.0,0.0,0.0,0.0,0.0,0.0,0.0,0.0,0.0,0.0,0.0,0.0,0.0,0.0,0.0,0.0,0.0,0.0,0.0,0.0,0.0,0.0,0.0,0.0,0.0,0.0,0.0,0.0,0.0,0.0,0.0,0.0,0.0,0.0,0.0,0.0,0.0,0.0,0.0,0.0,0.0,0.0,0.0,0.0,0.0,0.0,0.0,0.0,0.0,0.0,0.0,0.0,0.0,0.0,0.0,0.0,0.0,0.0,0.0,0.0,0.0,0.0,0.0,0.0,0.0,0.0,0.0,0.0,0.0,0.0,0.0,0.0,0.0,0.0,0.0,0.0,0.0,0.0,0.0,0.0,0.0,0.0,0.0,0.0,0.0,0.0,0.0,0.0,0.0,0.0,0.0,0.0,0.0,0.0,0.0,0.0,0.0,2.2132,2.3565,2.5703,0.0,3.1067,0.0,0.0,0.0,0.0,0.0,0.0,0.0,0.0,0.0,0.0,0.0,0.0,0.0,0.0,0.0,0.0,0.0,0.0,0.0,0.0,0.0,0.0,0.0,0.0,0.0,0.0,0.0,0.0,0.0,0.0,0.0,0.0,0.0,0.0,0.0,0.0,0.0,0.0,0.0,0.0,0.0,0.0,0.0,0.0,0.0,0.0,0.0,0.0,0.0,0.0,0.0,0.0,0.0,0.0,0.0,0.0,0.0,0.0,0.0,0.0,0.0,0.0,0.0,0.0,0.0,0.0,0.0,0.0,0.0,0.0,0.0,0.0,0.0,0.0,0.0,0.0,0.0,0.0,0.0,0.0,0.0,0.0,0.0,0.0,0.0,0.0,0.0,0.0,0.0,0.0,0.0,0.0,0.0,0.0,0.0,0.0,0.0,0.0,0.0,0.0,0.0,0.0,0.0,0.0,0.0,0.0,0.0,0.0,0.0,0.0,2.2008,2.3614,2.605,2.8227,0.0,0.0,0.0,0.0,0.0,0.0,0.0,0.0,0.0,0.0,0.0,0.0,0.0,0.0,0.0,0.0,0.0,0.0,0.0,0.0,0.0,0.0,0.0,0.0,0.0,0.0,0.0,0.0,0.0,0.0,0.0,0.0,0.0,0.0,0.0,0.0,0.0,0.0,0.0,0.0,0.0,0.0,0.0,0.0,0.0,0.0,0.0,0.0,0.0,0.0,0.0,0.0,0.0,0.0,0.0,0.0,0.0,0.0,0.0,0.0,0.0,0.0,0.0,0.0,0.0,0.0,0.0,0.0,0.0,0.0,0.0,0.0,0.0,0.0,0.0,0.0,0.0,0.0,0.0,0.0,0.0,0.0,0.0,0.0,0.0,0.0,0.0,0.0,0.0,0.0,0.0,0.0,0.0,0.0,0.0,0.0,0.0,0.0,0.0,0.0,0.0,0.0,0.0,0.0,0.0,0.0,0.0,0.0,0.0,0.0,2.1277,2.2755,2.507,2.6501,2.7876,2.9253,0.0,0.0,0.0,0.0,0.0,0.0,0.0,0.0,0.0,0.0,0.0,0.0,0.0,0.0,0.0,0.0,0.0,0.0,0.0,0.0,0.0,0.0,0.0,0.0,0.0,0.0,0.0,0.0,0.0,0.0,0.0,0.0,0.0,0.0,0.0,0.0,0.0,0.0,0.0,0.0,0.0,0.0,0.0,0.0,0.0,0.0,0.0,0.0,0.0,0.0,0.0,0.0,0.0,0.0,0.0,0.0,0.0,0.0,0.0,0.0,0.0,0.0,0.0,0.0,0.0,0.0,0.0,0.0,0.0,0.0,0.0,0.0,0.0,0.0,0.0,0.0,0.0,0.0,0.0,0.0,0.0,0.0,0.0,0.0,0.0,0.0,0.0,0.0,0.0,0.0,0.0,0.0,0.0,0.0,0.0,0.0,0.0,0.0,0.0,0.0,0.0,0.0,0.0,0.0,0.0,0.0,0.0,0.0,2.2424,2.3108,2.524,2.8683,2.7796,2.8011,0.0,0.0,0.0,0.0,0.0,0.0,0.0,0.0,0.0,0.0,0.0,0.0,0.0,0.0,0.0,0.0,0.0,0.0,0.0,0.0,0.0,0.0,0.0,0.0,0.0,0.0,0.0,0.0,0.0,0.0,0.0,0.0,0.0,0.0,0.0,0.0,0.0,0.0,0.0,0.0,0.0,0.0,0.0,0.0,0.0,0.0,0.0,0.0,0.0,0.0,0.0,0.0,0.0,0.0,0.0,0.0,0.0,0.0,0.0,0.0,0.0,0.0,0.0,0.0,0.0,0.0,0.0,0.0,0.0,0.0,0.0,0.0,0.0,0.0,0.0,0.0,0.0,0.0,0.0,0.0,0.0,0.0,0.0,0.0,0.0,0.0,0.0,0.0,0.0,0.0,0.0,0.0,0.0,0.0,0.0,0.0,0.0,0.0,0.0,0.0,0.0,0.0,0.0,0.0,0.0,0.0,0.0,0.0,0.0,2.0795,2.2534,2.4283,2.5978,2.6606,2.7381,0.0,0.0,0.0,0.0,0.0,0.0,0.0,0.0,0.0,0.0,0.0,0.0,0.0,0.0,0.0,0.0,0.0,0.0,0.0,0.0,0.0,0.0,0.0,0.0,0.0,0.0,0.0,0.0,0.0,0.0,0.0,0.0,0.0,0.0,0.0,0.0,0.0,0.0,0.0,0.0,0.0,0.0,0.0,0.0,0.0,0.0,0.0,0.0,0.0,0.0,0.0,0.0,0.0,0.0,0.0,0.0,0.0,0.0,0.0,0.0,0.0,0.0,0.0,0.0,0.0,0.0,0.0,0.0,0.0,0.0,0.0,0.0,0.0,0.0,0.0,0.0,0.0,0.0,0.0,0.0,0.0,0.0,0.0,0.0,0.0,0.0,0.0,0.0,0.0,0.0,0.0,0.0,0.0,0.0,0.0,0.0,0.0,0.0,0.0,0.0,0.0,0.0,0.0,0.0,0.0,0.0,0.0,0.0,0.0,2.0679,0.0,2.3869,2.4815,2.5755,2.6719,0.0,0.0,0.0,0.0,0.0,0.0,0.0,0.0,0.0,0.0,0.0,0.0,0.0,0.0,0.0,0.0,0.0,0.0,0.0,0.0,0.0,0.0,0.0,0.0,0.0,0.0,0.0,0.0,0.0,0.0,0.0,0.0,0.0,0.0,0.0,0.0,0.0,0.0,0.0,0.0,0.0,0.0,0.0,0.0,0.0,0.0,0.0,0.0,0.0,0.0,0.0,0.0,0.0,0.0,0.0,0.0,0.0,0.0,0.0,0.0,0.0,0.0,0.0,0.0,0.0,0.0,0.0,0.0,0.0,0.0,0.0,0.0,0.0,0.0,0.0,0.0,0.0,0.0,0.0,0.0,0.0,0.0,0.0,0.0,0.0,0.0,0.0,0.0,0.0,0.0,0.0,0.0,0.0,0.0,0.0,0.0,0.0,0.0,0.0,0.0,0.0,0.0,0.0,0.0,0.0,0.0,0.0,0.0,2.129,2.2502,2.3069,2.4182,2.5991,2.5407,2.6118,0.0,0.0,0.0,0.0,0.0,0.0,0.0,0.0,0.0,0.0,0.0,0.0,0.0,0.0,0.0,0.0,0.0,0.0,0.0,0.0,0.0,0.0,0.0,0.0,0.0,0.0,0.0,0.0,0.0,0.0,0.0,0.0,0.0,0.0,0.0,0.0,0.0,0.0,0.0,0.0,0.0,0.0,0.0,0.0,0.0,0.0,0.0,0.0,0.0,0.0,0.0,0.0,0.0,0.0,0.0,0.0,0.0,0.0,0.0,0.0,0.0,0.0,0.0,0.0,0.0,0.0,0.0,0.0,0.0,0.0,0.0,0.0,0.0,0.0,0.0,0.0,0.0,0.0,0.0,0.0,0.0,0.0,0.0,0.0,0.0,0.0,0.0,0.0,0.0,0.0,0.0,0.0,0.0,0.0,0.0,0.0,0.0,0.0,0.0,0.0,0.0,0.0,0.0,0.0,0.0,0.0,0.0,0.0,0.0,2.2353,2.2232,2.3429,2.5927,2.5163,2.6467,0.0,0.0,0.0,0.0,0.0,0.0,0.0,0.0,0.0,0.0,0.0,0.0,0.0,0.0,0.0,0.0,0.0,0.0,0.0,0.0,0.0,0.0,0.0,0.0,0.0,0.0,0.0,0.0,0.0,0.0,0.0,0.0,0.0,0.0,0.0,0.0,0.0,0.0,0.0,0.0,0.0,0.0,0.0,0.0,0.0,0.0,0.0,0.0,0.0,0.0,0.0,0.0,0.0,0.0,0.0,0.0,0.0,0.0,0.0,0.0,0.0,0.0,0.0,0.0,0.0,0.0,0.0,0.0,0.0,0.0,0.0,0.0,0.0,0.0,0.0,0.0,0.0,0.0,0.0,0.0,0.0,0.0,0.0,0.0,0.0,0.0,0.0,0.0,0.0,0.0,0.0,0.0,0.0,0.0,0.0,0.0,0.0,0.0,0.0,0.0,0.0,0.0,0.0,0.0,0.0,0.0,0.0,0.0,0.0,2.4695,2.3993,2.4571,2.6612,2.6953,2.8108,3.0129,0.0,0.0,0.0,0.0,0.0,0.0,0.0,0.0,0.0,0.0,0.0,0.0,0.0,0.0,0.0,0.0,0.0,0.0,0.0,0.0,0.0,0.0,0.0,0.0,0.0,0.0,0.0,0.0,0.0,0.0,0.0,0.0,0.0,0.0,0.0,0.0,0.0,0.0,0.0,0.0,0.0,0.0,0.0,0.0,0.0,0.0,0.0,0.0,0.0,0.0,0.0,0.0,0.0,0.0,0.0,0.0,0.0,0.0,0.0,0.0,0.0,0.0,0.0,0.0,0.0,0.0,0.0,0.0,0.0,0.0,0.0,0.0,0.0,0.0,0.0,0.0,0.0,0.0,0.0,0.0,0.0,0.0,0.0,0.0,0.0,0.0,0.0,0.0,0.0,0.0,0.0,0.0,0.0,0.0,0.0,0.0,0.0,0.0,0.0,0.0,0.0,0.0,0.0,0.0,0.0,0.0,0.0,0.0,2.9291,2.8443,2.8171,2.8347,3.045,3.0795,0.0,0.0,0.0,0.0,0.0,0.0,0.0,0.0,0.0,0.0,0.0,0.0,0.0,0.0,0.0,0.0,0.0,0.0,0.0,0.0,0.0,0.0,0.0,0.0,0.0,0.0,0.0,0.0,0.0,0.0,0.0,0.0,0.0,0.0,0.0,0.0,0.0,0.0,0.0,0.0,0.0,0.0,0.0,0.0,0.0,0.0,0.0,0.0,0.0,0.0,0.0,0.0,0.0,0.0,0.0,0.0,0.0,0.0,0.0,0.0,0.0,0.0,0.0,0.0,0.0,0.0,0.0,0.0,0.0,0.0,0.0,0.0,0.0,0.0,0.0,0.0,0.0,0.0,0.0,0.0,0.0,0.0,0.0,0.0,0.0,0.0,0.0,0.0,0.0,0.0,0.0,0.0,0.0,0.0,0.0,0.0,0.0,0.0,0.0,0.0,0.0,0.0,0.0,0.0,0.0,0.0,0.0,0.0,0.0,3.5953,3.8951,3.9049,3.6028,3.3577,3.3465,0.0,0.0,0.0,0.0,0.0,0.0,0.0,0.0,0.0,0.0,0.0,0.0,0.0,0.0,0.0,0.0,0.0,0.0,0.0,0.0,0.0,0.0,0.0,0.0,0.0,0.0,0.0,0.0,0.0,0.0,0.0,0.0,0.0,0.0,0.0,0.0,0.0,0.0,0.0,0.0,0.0,0.0,0.0,0.0,0.0,0.0,0.0,0.0,0.0,0.0,0.0,0.0,0.0,0.0,0.0,0.0,0.0,0.0,0.0,0.0,0.0,0.0,0.0,0.0,0.0,0.0,0.0,0.0,0.0,0.0,0.0,0.0,0.0,0.0,0.0,0.0,0.0,0.0,0.0,0.0,0.0,0.0,0.0,0.0,0.0,0.0,0.0,0.0,0.0,0.0,0.0,0.0,0.0,0.0,0.0,0.0,0.0,0.0,0.0,0.0,0.0,0.0,0.0,0.0,0.0,0.0,0.0,0.0,3.6833,3.9094,4.5375,4.728,4.4284,4.0365,3.8007,0.0,0.0,0.0,0.0,0.0,0.0,0.0,0.0,0.0,0.0,0.0,0.0,0.0,0.0,0.0,0.0,0.0,0.0,0.0,0.0,0.0,0.0,0.0,0.0,0.0,0.0,0.0,0.0,0.0,0.0,0.0,0.0,0.0,0.0,0.0,0.0,0.0,0.0,0.0,0.0,0.0,0.0,0.0,0.0,0.0,0.0,0.0,0.0,0.0,0.0,0.0,0.0,0.0,0.0,0.0,0.0,0.0,0.0,0.0,0.0,0.0,0.0,0.0,0.0,0.0,0.0,0.0,0.0,0.0,0.0,0.0,0.0,0.0,0.0,0.0,0.0,0.0,0.0,0.0,0.0,0.0,0.0,0.0,0.0,0.0,0.0,0.0,0.0,0.0,0.0,0.0,0.0,0.0,0.0,0.0,0.0,0.0,0.0,0.0,0.0,0.0,0.0,0.0,0.0,0.0,0.0,0.0,0.0,4.1545,4.0943,4.9326,5.3267,5.1945,4.8072,4.3074,0.0,0.0,0.0,0.0,0.0,0.0,0.0,0.0,0.0,0.0,0.0,0.0,0.0,0.0,0.0,0.0,0.0,0.0,0.0,0.0,0.0,0.0,0.0,0.0,0.0,0.0,0.0,0.0,0.0,0.0,0.0,0.0,0.0,0.0,0.0,0.0,0.0,0.0,0.0,0.0,0.0,0.0,0.0,0.0,0.0,0.0,0.0,0.0,0.0,0.0,0.0,0.0,0.0,0.0,0.0,0.0,0.0,0.0,0.0,0.0,0.0,0.0,0.0,0.0,0.0,0.0,0.0,0.0,0.0,0.0,0.0,0.0,0.0,0.0,0.0,0.0,0.0,0.0,0.0,0.0,0.0,0.0,0.0,0.0,0.0,0.0,0.0,0.0,0.0,0.0,0.0,0.0,0.0,0.0,0.0,0.0,0.0,0.0,0.0,0.0,0.0,0.0,0.0,0.0,0.0,0.0,0.0,0.0,4.371,4.7949,5.3678,5.6286,5.5343,4.8223,4.3723,0.0,0.0,0.0,0.0,0.0,0.0,0.0,0.0,0.0,0.0,0.0,0.0,0.0,0.0,0.0,0.0,0.0,0.0,0.0,0.0,0.0,0.0,0.0,0.0,0.0,0.0,0.0,0.0,0.0,0.0,0.0,0.0,0.0,0.0,0.0,0.0,0.0,0.0,0.0,0.0,0.0,0.0,0.0,0.0,0.0,0.0,0.0,0.0,3.0184,0.0,0.0,0.0,0.0,0.0,0.0,0.0,0.0,0.0,0.0,0.0,0.0,0.0,0.0,0.0,0.0,0.0,0.0,0.0,0.0,0.0,0.0,0.0,0.0,0.0,0.0,0.0,0.0,0.0,0.0,0.0,0.0,0.0,0.0,0.0,0.0,0.0,0.0,0.0,0.0,0.0,0.0,0.0,0.0,0.0,0.0,0.0,0.0,0.0,0.0,0.0,0.0,0.0,0.0,0.0,0.0,0.0,0.0,0.0,4.6105,5.1431,5.5856,5.756,5.6254,5.0283,4.6226,0.0,0.0,0.0,0.0,0.0,0.0,0.0,0.0,0.0,0.0,0.0,0.0,0.0,0.0,0.0,0.0,0.0,0.0,0.0,0.0,0.0,0.0,0.0,0.0,0.0,0.0,0.0,0.0,0.0,0.0,0.0,0.0,0.0,0.0,0.0,0.0,0.0,0.0,0.0,0.0,0.0,0.0,0.0,0.0,0.0,0.0,0.0,0.0,0.0,0.0,0.0,0.0,0.0,0.0,0.0,0.0,0.0,0.0,0.0,0.0,0.0,0.0,0.0,0.0,0.0,0.0,0.0,0.0,0.0,0.0,0.0,0.0,0.0,0.0,0.0,0.0,0.0,0.0,0.0,0.0,0.0,0.0,0.0,0.0,0.0,0.0,0.0,0.0,0.0,0.0,0.0,0.0,0.0,0.0,0.0,0.0,0.0,0.0,0.0,0.0,0.0,0.0,0.0,0.0,0.0,0.0,0.0,4.335,4.8259,5.3959,5.7259,5.8224,5.674,5.259,4.873,4.541,0.0,0.0,0.0,0.0,0.0,0.0,0.0,0.0,0.0,0.0,0.0,0.0,0.0,0.0,0.0,0.0,0.0,0.0,0.0,0.0,0.0,0.0,0.0,0.0,0.0,0.0,0.0,0.0,0.0,0.0,0.0,0.0,0.0,0.0,0.0,0.0,0.0,0.0,3.4035,3.318,0.0,0.0,0.0,0.0,0.0,0.0,0.0,0.0,3.4455,0.0,0.0,0.0,0.0,0.0,0.0,0.0,0.0,0.0,0.0,0.0,0.0,0.0,0.0,0.0,0.0,0.0,0.0,0.0,0.0,0.0,0.0,0.0,0.0,0.0,0.0,0.0,0.0,0.0,0.0,0.0,0.0,0.0,0.0,0.0,0.0,0.0,0.0,0.0,0.0,0.0,0.0,0.0,0.0,0.0,0.0,0.0,0.0,0.0,0.0,0.0,0.0,0.0,0.0,0.0,0.0,4.3723,4.4474,4.9305,5.8517,5.938,5.9259,5.8224,5.2638,4.8491,4.6137,0.0,0.0,0.0,0.0,0.0,0.0,0.0,0.0,0.0,0.0,0.0,0.0,0.0,0.0,0.0,0.0,0.0,0.0,0.0,0.0,0.0,0.0,0.0,0.0,0.0,0.0,0.0,0.0,0.0,0.0,0.0,0.0,0.0,0.0,0.0,0.0,0.0,0.0,0.0,3.5581,3.5269,0.0,0.0,0.0,0.0,0.0,0.0,0.0,0.0,3.7272,0.0,0.0,0.0,0.0,0.0,0.0,0.0,0.0,0.0,0.0,0.0,0.0,0.0,0.0,0.0,0.0,0.0,0.0,0.0,0.0,0.0,0.0,0.0,0.0,0.0,0.0,0.0,0.0,0.0,0.0,0.0,0.0,0.0,0.0,0.0,0.0,0.0,0.0,0.0,0.0,0.0,0.0,0.0,0.0,0.0,0.0,0.0,0.0,0.0,0.0,0.0,0.0,0.0,0.0,0.0,4.5196,4.7844,5.2748,6.0201,6.0522,5.9908,5.8516,5.3408,4.9412,0.0,0.0,0.0,0.0,0.0,0.0,0.0,0.0,0.0,0.0,0.0,0.0,0.0,0.0,0.0,0.0,0.0,0.0,0.0,0.0,0.0,0.0,0.0,0.0,0.0,0.0,0.0,0.0,0.0,0.0,0.0,0.0,0.0,0.0,0.0,0.0,0.0,0.0,0.0,0.0,3.6856,3.6878,3.7432,0.0,0.0,0.0,0.0,0.0,0.0,3.6515,3.7263,0.0,0.0,0.0,0.0,0.0,0.0,0.0,0.0,0.0,0.0,0.0,0.0,0.0,0.0,0.0,0.0,0.0,0.0,0.0,0.0,0.0,0.0,0.0,0.0,0.0,0.0,0.0,0.0,0.0,0.0,0.0,0.0,0.0,0.0,0.0,0.0,0.0,0.0,0.0,0.0,0.0,0.0,0.0,0.0,0.0,0.0,0.0,0.0,0.0,0.0,0.0,0.0,0.0,0.0,0.0,4.615,5.0754,5.5687,6.0822,6.1093,6.0285,5.8465,5.3541,4.9734,0.0,0.0,0.0,0.0,0.0,0.0,0.0,0.0,0.0,0.0,0.0,0.0,0.0,0.0,0.0,0.0,0.0,0.0,0.0,0.0,0.0,0.0,0.0,0.0,0.0,0.0,0.0,0.0,0.0,0.0,0.0,0.0,0.0,0.0,0.0,0.0,0.0,0.0,0.0,0.0,0.0,3.8864,4.05,3.736,0.0,0.0,0.0,0.0,3.5926,3.7458,0.0,0.0,0.0,0.0,0.0,0.0,0.0,0.0,0.0,0.0,0.0,0.0,0.0,0.0,0.0,0.0,0.0,0.0,0.0,0.0,0.0,0.0,0.0,0.0,0.0,0.0,0.0,0.0,0.0,0.0,0.0,0.0,0.0,0.0,0.0,0.0,0.0,0.0,0.0,0.0,0.0,0.0,0.0,0.0,0.0,0.0,0.0,0.0,0.0,0.0,0.0,0.0,0.0,0.0,0.0,0.0,4.6612,5.0938,5.5687,6.0787,6.1093,6.0285,5.8465,5.1681,4.777,0.0,0.0,0.0,0.0,0.0,0.0,0.0,0.0,0.0,0.0,0.0,0.0,0.0,0.0,0.0,0.0,0.0,0.0,0.0,0.0,0.0,0.0,0.0,0.0,0.0,0.0,0.0,0.0,0.0,0.0,0.0,0.0,0.0,0.0,0.0,0.0,0.0,0.0,0.0,0.0,0.0,4.2096,4.0341,3.9279,3.8177,0.0,0.0,3.9856,4.0302,4.304,0.0,0.0,0.0,0.0,0.0,0.0,0.0,0.0,0.0,0.0,0.0,0.0,0.0,0.0,0.0,0.0,0.0,0.0,0.0,0.0,0.0,0.0,0.0,0.0,0.0,0.0,0.0,0.0,0.0,0.0,0.0,0.0,0.0,0.0,0.0,0.0,0.0,0.0,0.0,0.0,0.0,0.0,0.0,0.0,0.0,0.0,0.0,0.0,0.0,0.0,0.0,0.0,0.0,0.0,0.0,4.3897,4.6529,5.3352,5.8309,6.0986,6.1004,6.0116,5.8405,5.1189,4.7276,0.0,0.0,0.0,0.0,0.0,0.0,0.0,0.0,0.0,0.0,0.0,0.0,0.0,0.0,0.0,0.0,0.0,0.0,0.0,0.0,0.0,0.0,0.0,0.0,0.0,0.0,0.0,0.0,0.0,0.0,0.0,0.0,0.0,0.0,0.0,0.0,0.0,0.0,0.0,0.0,0.0,0.0,4.3259,4.2403,0.0,0.0,0.0,4.2015,4.1283,0.0,0.0,0.0,0.0,0.0,0.0,0.0,0.0,0.0,0.0,0.0,0.0,0.0,0.0,0.0,0.0,0.0,0.0,0.0,0.0,0.0,0.0,0.0,0.0,0.0,0.0,0.0,0.0,0.0,0.0,0.0,0.0,0.0,0.0,0.0,0.0,0.0,0.0,0.0,0.0,0.0,0.0,0.0,0.0,0.0,0.0,0.0,0.0,0.0,0.0,0.0,0.0,0.0,0.0,0.0,0.0,0.0,4.6601,5.5328,6.0279,6.0998,6.0878,5.9967,5.8142,5.1724,0.0,0.0,0.0,0.0,0.0,0.0,0.0,0.0,0.0,0.0,0.0,0.0,0.0,0.0,0.0,0.0,0.0,0.0,0.0,0.0,0.0,0.0,0.0,0.0,0.0,0.0,0.0,3.3424,0.0,0.0,0.0,0.0,0.0,0.0,0.0,0.0,0.0,0.0,0.0,0.0,0.0,0.0,4.5814,4.5615,4.4954,4.4841,0.0,0.0,4.4358,4.3787,4.6814,4.7399,0.0,0.0,0.0,0.0,0.0,0.0,0.0,0.0,0.0,0.0,0.0,0.0,0.0,0.0,0.0,0.0,0.0,0.0,0.0,0.0,0.0,0.0,0.0,0.0,0.0,0.0,0.0,0.0,0.0,0.0,0.0,0.0,0.0,0.0,0.0,0.0,0.0,0.0,0.0,0.0,0.0,0.0,0.0,0.0,0.0,0.0,0.0,0.0,0.0,0.0,0.0,0.0,0.0,0.0,4.6542,4.7654,5.566,6.022,6.0813,6.0818,5.9876,5.7846,5.3419,4.9666,0.0,0.0,0.0,0.0,0.0,0.0,0.0,0.0,0.0,0.0,0.0,0.0,0.0,0.0,0.0,0.0,0.0,0.0,0.0,0.0,0.0,0.0,0.0,0.0,0.0,0.0,0.0,0.0,0.0,0.0,0.0,0.0,0.0,0.0,0.0,0.0,0.0,0.0,0.0,0.0,0.0,4.6892,4.5933,4.6157,4.7748,0.0,4.8931,4.7489,5.0036,5.1945,5.0682,4.3204,0.0,0.0,0.0,0.0,0.0,0.0,0.0,0.0,0.0,0.0,0.0,0.0,0.0,0.0,0.0,0.0,0.0,0.0,0.0,0.0,0.0,0.0,0.0,0.0,0.0,0.0,0.0,0.0,0.0,0.0,0.0,0.0,0.0,0.0,0.0,0.0,0.0,0.0,0.0,0.0,0.0,0.0,0.0,0.0,0.0,0.0,0.0,0.0,0.0,0.0,0.0,0.0,0.0,4.735,4.7512,5.6411,6.1234,6.1514,6.1348,6.0372,5.8558,5.3704,4.9516,0.0,0.0,0.0,0.0,0.0,0.0,0.0,0.0,0.0,0.0,0.0,0.0,0.0,0.0,0.0,0.0,0.0,0.0,0.0,0.0,0.0,0.0,0.0,0.0,0.0,0.0,0.0,0.0,3.8313,3.8422,3.7735,0.0,0.0,0.0,0.0,0.0,0.0,0.0,0.0,0.0,0.0,4.8942,5.1852,5.1982,0.0,0.0,5.2069,5.0939,5.0528,5.0971,4.9392,4.3474,4.194,0.0,0.0,0.0,0.0,0.0,0.0,0.0,0.0,0.0,0.0,0.0,0.0,0.0,0.0,0.0,0.0,0.0,0.0,0.0,0.0,0.0,0.0,0.0,0.0,0.0,0.0,0.0,0.0,0.0,0.0,0.0,0.0,0.0,0.0,0.0,0.0,0.0,0.0,0.0,0.0,0.0,0.0,0.0,0.0,0.0,0.0,0.0,0.0,0.0,0.0,0.0,0.0,4.8089,4.8135,5.714,6.1982,6.2253,6.1709,6.0608,5.8819,5.4682,5.0765,0.0,0.0,0.0,0.0,0.0,0.0,0.0,0.0,0.0,0.0,0.0,0.0,0.0,0.0,0.0,0.0,0.0,0.0,0.0,0.0,0.0,0.0,0.0,0.0,0.0,0.0,0.0,0.0,3.9373,3.9277,3.9328,0.0,0.0,0.0,0.0,0.0,0.0,0.0,0.0,0.0,0.0,5.1522,5.4529,5.4642,5.4334,5.4043,5.3026,5.1869,5.0792,5.0302,4.8677,4.4587,0.0,0.0,0.0,0.0,0.0,0.0,0.0,0.0,0.0,0.0,0.0,0.0,0.0,0.0,0.0,0.0,0.0,0.0,0.0,0.0,0.0,0.0,0.0,0.0,0.0,0.0,0.0,2.5495,0.0,0.0,2.55,0.0,0.0,0.0,0.0,0.0,0.0,0.0,0.0,0.0,0.0,0.0,0.0,0.0,0.0,0.0,0.0,0.0,0.0,0.0,0.0,0.0,0.0,4.8677,4.9904,5.7726,6.2132,6.282,6.1796,6.0382,5.8588,5.6709,5.4066,5.0396,0.0,0.0,0.0,0.0,0.0,0.0,0.0,0.0,0.0,0.0,0.0,0.0,0.0,0.0,0.0,0.0,0.0,0.0,0.0,0.0,0.0,0.0,0.0,0.0,0.0,0.0,3.8767,3.8912,3.9437,0.0,0.0,0.0,0.0,0.0,0.0,0.0,0.0,0.0,0.0,5.0787,5.4529,5.2397,5.265,5.3461,5.4404,5.136,4.9527,5.1411,5.0753,4.9334,0.0,0.0,0.0,0.0,0.0,0.0,0.0,0.0,0.0,0.0,0.0,0.0,0.0,0.0,0.0,0.0,0.0,0.0,0.0,0.0,0.0,0.0,0.0,0.0,0.0,0.0,0.0,2.7862,2.8643,0.0,0.0,0.0,0.0,0.0,0.0,0.0,0.0,0.0,0.0,0.0,3.8157,3.7512,0.0,0.0,0.0,0.0,0.0,0.0,0.0,0.0,0.0,0.0,0.0,0.0,4.9113,5.0311,5.8048,6.2389,6.2733,6.2143,6.1021,5.9271,5.7059,5.3738,4.9186,0.0,0.0,0.0,0.0,0.0,0.0,0.0,0.0,0.0,0.0,0.0,0.0,0.0,0.0,0.0,0.0,0.0,0.0,0.0,0.0,0.0,0.0,0.0,0.0,0.0,4.0728,0.0,0.0,0.0,0.0,0.0,0.0,0.0,0.0,0.0,0.0,0.0,4.5904,4.9632,4.9709,5.0636,5.393,5.3656,5.41,0.0,0.0,0.0,0.0,0.0,0.0,0.0,0.0,0.0,0.0,0.0,0.0,0.0,0.0,4.5185,3.6713,3.9682,4.3447,4.3164,0.0,0.0,0.0,0.0,0.0,0.0,0.0,0.0,0.0,0.0,0.0,0.0,0.0,0.0,3.1297,0.0,3.1297,0.0,0.0,0.0,0.0,0.0,0.0,0.0,0.0,3.8077,3.961,4.1668,4.1069,4.1177,0.0,4.1114,3.9,0.0,0.0,0.0,0.0,0.0,0.0,0.0,0.0,5.0044,5.1757,5.8472,6.2225,6.2671,6.2326,6.1288,5.9619,5.7214,5.4229,5.0642,4.6672,4.4229,0.0,0.0,0.0,0.0,0.0,0.0,0.0,0.0,0.0,0.0,0.0,0.0,0.0,0.0,0.0,0.0,0.0,0.0,0.0,0.0,0.0,0.0,0.0,4.206,0.0,0.0,0.0,0.0,0.0,0.0,0.0,0.0,0.0,5.0018,4.8589,4.8783,5.289,5.1765,5.142,5.38,0.0,0.0,0.0,0.0,0.0,0.0,0.0,4.4723,4.5724,4.7357,4.9283,5.1534,5.3288,5.414,5.3472,0.0,0.0,4.0948,4.4559,5.0071,5.2423,5.1521,5.0138,4.9611,4.9916,5.0313,0.0,0.0,0.0,0.0,0.0,0.0,0.0,0.0,3.5334,3.479,0.0,3.4843,0.0,0.0,0.0,0.0,3.4626,3.6901,0.0,0.0,4.3045,4.4365,4.3699,4.5164,4.5538,4.4861,4.385,4.3026,4.234,4.0262,0.0,0.0,0.0,0.0,0.0,0.0,5.1457,5.4376,5.9006,6.1804,6.2655,6.219,6.1186,5.9584,5.7249,5.5608,5.4738,5.1619,4.9164,4.7344,4.4879,0.0,0.0,0.0,0.0,0.0,0.0,0.0,0.0,0.0,0.0,0.0,0.0,0.0,0.0,0.0,0.0,0.0,0.0,0.0,0.0,4.3894,0.0,0.0,0.0,0.0,0.0,0.0,0.0,0.0,0.0,0.0,4.8338,5.0862,5.3253,5.4071,0.0,0.0,0.0,0.0,5.5019,5.0718,4.9793,4.9822,4.9961,5.1562,5.3544,5.5534,0.0,0.0,6.2263,5.946,5.7315,5.7017,5.9801,5.8722,4.9447,5.0726,5.5448,6.2717,5.8278,5.2882,5.236,5.3254,5.3236,3.7014,0.0,0.0,0.0,0.0,3.6872,3.8421,4.0099,4.0295,4.0323,4.018,3.9119,0.0,0.0,0.0,0.0,0.0,0.0,4.2413,4.4915,4.5668,4.7386,4.9883,5.0171,5.0674,5.1399,5.0476,5.0289,5.0704,4.9459,4.6657,4.2433,0.0,0.0,0.0,0.0,5.3175,5.4882,5.9549,6.2211,6.2472,6.224,6.1075,5.9031,5.8138,5.6934,5.5349,5.367,5.1702,4.9404,4.7287,0.0,0.0,0.0,0.0,0.0,0.0,0.0,0.0,0.0,0.0,0.0,0.0,0.0,0.0,0.0,0.0,0.0,0.0,0.0,4.2559,4.4916,4.5022,0.0,0.0,0.0,0.0,0.0,0.0,0.0,0.0,0.0,5.2696,5.1977,5.2148,0.0,0.0,5.0599,5.1552,5.2946,5.4808,5.7413,5.683,0.0,5.8304,5.7273,5.6525,5.726,6.1665,6.5343,6.6024,6.6993,6.7775,6.7806,6.8631,6.832,6.5983,6.385,6.477,6.8669,6.6532,6.371,6.3597,6.4039,6.4434,4.4529,4.1525,3.9111,3.8828,4.0042,4.1223,4.2662,4.4237,4.4405,4.4313,4.4058,4.3366,4.2133,4.0616,4.0915,0.0,0.0,0.0,4.6601,4.9499,4.9366,5.0862,5.3582,5.3925,5.4417,5.5096,5.5162,5.5354,5.5655,5.5058,5.2909,4.9191,0.0,0.0,4.8353,5.2068,5.4895,5.6723,6.0156,6.2108,6.237,6.219,6.1184,5.9379,5.8947,5.8055,5.6621,5.5549,5.3903,5.163,4.9824,4.7867,0.0,0.0,0.0,0.0,0.0,0.0,0.0,0.0,0.0,0.0,0.0,4.1176,3.9493,0.0,0.0,0.0,4.388,4.4574,4.5055,4.6523,0.0,0.0,0.0,0.0,0.0,0.0,0.0,4.5867,5.2122,5.629,5.4935,5.511,5.6154,5.8333,5.5754,5.4119,5.532,0.0,5.8768,6.1406,6.1005,6.102,6.2683,6.2276,6.2208,6.3946,6.7191,6.9961,7.1011,7.2756,7.4057,7.4477,7.4629,7.4485,7.381,7.2148,7.1352,7.2943,7.1586,7.0031,6.9866,7.0289,7.0619,5.1082,5.009,4.4497,4.3041,4.4464,4.5163,4.6419,4.7932,4.7998,4.7358,4.6415,4.7325,4.6219,4.3575,4.4275,0.0,4.7324,4.8762,5.077,5.3199,5.3588,5.4423,5.5641,5.672,5.7085,5.6884,5.8219,5.8626,5.8118,5.7996,5.8046,5.8109,5.4663,5.2813,5.2731,5.4467,5.6759,5.9541,6.0905,6.1876,6.2492,6.2209,6.1536,6.0463,5.9838,5.9195,5.8378,5.7448,5.6004,5.3957,5.2465,5.041,4.7731,0.0,0.0,0.0,0.0,0.0,0.0,0.0,0.0,0.0,0.0,0.0,0.0,0.0,0.0,0.0,4.6497,0.0,4.9352,4.8922,0.0,0.0,0.0,5.2152,5.7005,5.6519,5.518,5.3374,0.0,0.0,5.6866,6.0143,6.3726,6.6519,6.5229,6.3395,6.1745,6.3972,6.537,6.3946,6.3879,6.4374,6.5979,6.7399,6.9637,7.2811,7.4761,7.5323,7.6037,7.6398,7.6951,7.7398,7.7827,7.7433,7.5713,7.5874,7.6313,7.5281,7.3791,7.2633,7.2417,7.248,7.2601,5.4066,5.3835,5.2354,5.1268,5.0637,5.1454,5.1883,5.2088,5.2179,5.191,5.1366,5.0537,4.9697,4.8889,4.9613,5.05,5.1495,5.2496,5.3958,5.577,5.6051,5.6944,5.8268,5.8877,5.9396,5.9886,6.0248,6.083,6.1448,6.1237,6.1081,6.0996,6.0118,5.8594,5.6689,5.8299,5.9595,6.0483,6.2541,6.3534,6.3465,6.3401,6.2997,6.2307,6.1998,6.1246,5.9877,5.9865,5.8708,5.6249,5.4663,5.2883,5.0788,4.8941,0.0,0.0,0.0,0.0,0.0,0.0,0.0,0.0,0.0,4.3573,3.9775,0.0,4.6369,0.0,4.9539,5.3133,5.4013,5.4854,0.0,0.0,5.5154,5.6061,5.6724,6.0065,6.0629,5.616,6.1372,6.6773,7.0382,6.9409,6.9734,7.3129,6.7904,6.4131,6.5615,6.8035,6.9853,7.0249,7.1636,7.344,7.4214,7.5266,7.592,7.6929,7.7209,7.742,7.7586,7.7569,7.7626,7.7864,7.7948,7.7804,7.7415,7.7213,7.7166,7.7083,7.5742,7.4399,7.434,7.4763,7.5146,5.6336,5.6171,5.6385,5.5943,5.5131,5.4667,5.4369,5.4274,5.4631,5.4725,5.4509,5.4044,5.3775,5.3717,5.4446,5.5088,5.5617,5.6274,5.7153,5.8189,5.8241,5.8877,5.9948,6.0295,6.081,6.1563,6.1924,6.245,6.3067,6.2924,6.2807,6.2705,6.2446,6.1666,6.044,6.1105,6.1854,6.2662,6.4213,6.4754,6.4107,6.4225,6.4133,6.3687,6.3574,6.3178,6.2434,6.2753,6.1877,5.9648,5.8484,5.6734,5.418,5.221,4.9416,0.0,0.0,0.0,0.0,0.0,0.0,0.0,0.0,0.0,0.0,0.0,5.1259,5.1547,5.4957,5.7028,5.6768,5.7772,5.8629,5.9218,6.059,6.2012,6.3539,6.6716,6.7506,6.4279,6.8107,7.2646,7.6627,7.4834,7.4026,7.6714,7.3037,7.0437,7.1549,7.3049,7.4219,7.4876,7.5903,7.7122,7.8407,7.8754,7.8654,7.8253,7.8156,7.8228,7.8517,7.8521,7.8579,7.9007,7.913,7.9092,7.9092,7.8434,7.8175,7.8683,7.7817,7.6684,7.6283,7.6488,7.671,5.7973,5.7602,5.804,5.8293,5.8257,5.6433,5.5642,5.5655,5.6359,5.6679,5.6731,5.7435,5.7775,5.7865,5.8503,5.8908,5.917,5.9472,5.9843,6.0197,6.0102,6.0411,6.1133,6.1525,6.2055,6.2756,6.3553,6.3951,6.4039,6.4039,6.409,6.4156,6.3637,6.3644,6.4046,6.3678,6.4056,6.5208,6.5735,6.5584,6.4789,6.5143,6.5229,6.5048,6.5055,6.5077,6.52,6.5545,6.4919,6.3245,6.2544,6.0757,5.7596,5.552,5.2732,0.0,4.8026,0.0,0.0,0.0,0.0,0.0,0.0,0.0,0.0,5.2259,5.5396,5.9939,6.067,6.0512,5.959,6.0154,6.1993,6.5425,6.6472,6.8532,7.2517,7.378,7.4006,7.3351,7.491,7.6823,7.8715,7.7728,7.7213,7.8179,7.8137,7.7614,7.7748,7.7678,7.7884,7.8246,7.804,7.8595,7.9491,7.9762,7.949,7.8766,7.8637,7.8769,7.9531,7.9609,7.9847,8.0582,8.0812,8.0773,8.0735,7.978,7.9513,8.0697,8.0105,7.9047,7.8094,7.789,7.7886,5.837,5.8303,5.8386,5.8778,5.929,5.8927,5.8556,5.8294,5.8886,5.9227,5.9363,5.9532,5.9787,6.0068,6.0223,6.0143,5.99,6.0145,6.0438,6.0849,6.1257,6.1711,6.2363,6.3645,6.4366,6.4567,6.5659,6.6246,6.6356,6.6356,6.6653,6.7231,6.7121,6.7293,6.777,0.0,0.0,0.0,6.613,6.6171,6.6569,6.6896,6.715,6.742,6.7444,0.0,6.6208,6.6611,6.6292,6.5042,6.3926,0.0,0.0,0.0,0.0,0.0,0.0,0.0,0.0,0.0,0.0,0.0,5.6081,5.4848,5.2631,5.4616,5.7707,6.1539,6.2715,6.4253,6.6766,6.7272,6.8519,7.1239,7.1654,7.2587,7.4797,7.5314,7.53,7.5033,7.6273,7.7804,7.9331,7.9114,7.894,7.947,7.9789,8.0209,8.0812,8.0143,7.999,8.0736,8.1073,8.13,8.101,8.0983,8.0822,8.0372,8.0217,8.0458,8.0984,8.1155,8.1452,8.2292,8.2541,8.235,8.1958,8.0964,8.0812,8.2846,8.2646,8.1509,7.9362,7.9331,7.9878,6.0116,6.0028,5.9922,6.0022,0.0,6.0629,6.0634,6.043,6.0615,6.0911,6.1235,6.1427,6.1654,6.1841,6.2045,6.2103,6.2085,6.2027,6.2158,6.2535,6.2628,6.3096,6.3802,6.4627,6.5285,6.5904,6.6505,6.6879,6.697,6.6988,6.7218,6.7566,6.7566,6.7719,6.8071,6.8252,6.7773,6.6668,6.6746,6.6587,6.6205,6.6649,6.7168,6.769,6.7728,0.0,0.0,0.0,0.0,0.0,0.0,0.0,0.0,6.19,0.0,5.8386,5.8231,5.8526,5.9109,5.9587,6.0725,6.2741,6.3473,6.2419,5.9137,6.145,6.3999,6.6263,6.7349,6.864,7.0395,7.1102,7.2069,7.3702,7.4299,7.5095,7.6297,7.726,7.7835,7.793,7.8405,7.9229,8.0237,7.9834,7.9649,7.9978,8.0568,8.1213,8.178,8.1533,8.1524,8.2432,8.216,8.2093,8.2255,8.2221,8.2134,8.1937,8.1902,8.1955,8.2185,8.2272,8.2473,8.2913,8.3037,8.3056,8.3037,8.2302,8.2197,8.3534,8.4098,8.3706,8.2005,8.1572,8.1555,6.1814,6.1641,6.1448,6.1479,6.1593,6.2045,6.2379,6.2544,6.2127,0.0,0.0,6.3356,6.3566,6.3736,6.3915,6.4189,6.4492,6.4098,6.408,6.4402,6.42,6.4528,6.5283,6.5477,6.6096,6.7016,6.7175,6.73,6.7445,6.7427,6.7445,6.7499,6.7499,6.7623,6.7887,6.8146,6.7873,6.714,6.7433,6.7132,6.6117,6.6556,6.7192,6.7965,6.783,6.8185,6.9058,6.8989,6.8565,6.7868,6.7669,6.6909,6.5427,6.4695,6.3457,6.1618,6.1618,6.2295,6.3551,6.4292,6.5863,6.8666,6.9843,6.9207,6.6277,6.8492,7.0288,7.0981,7.19,7.2484,7.2682,7.3391,7.4236,7.5038,7.5928,7.6714,7.7505,7.8805,7.9732,8.0335,8.0026,8.0205,8.0864,8.0339,8.0026,8.0476,8.1301,8.2044,8.2444,8.2689,8.2932,8.3413,8.3071,8.2679,8.3141,8.3486,8.3333,8.3017,8.2951,8.3028,8.3091,8.3149,8.3218,8.3563,8.3563,8.3792,8.4041,8.3754,8.3639,8.4098,8.4832,8.527,8.4621,8.3745,8.3143,6.1883,6.1849,6.1831,6.2561,6.3742,6.3648,6.4202,6.4995,6.3957,6.4273,6.5591,6.5459,6.5798,6.6405,6.5828,6.5792,6.6131,6.5362,6.5267,6.5648,6.5979,6.6162,6.6338,6.7278,6.7827,6.8057,6.8707,6.9098,6.9208,6.9116,6.9207,6.9442,6.9477,6.9707,7.0003,6.9934,6.9577,6.8927,6.8123,6.8269,6.944,6.9031,6.9384,7.0548,6.9936,6.9664,6.9846,6.9219,6.8838,6.8726,6.8018,6.7177,6.6285,6.6321,6.6272,6.6112,6.6956,6.8015,6.906,6.9362,7.0161,7.1665,7.2794,7.2518,7.0484,7.133,7.2087,7.2347,7.3253,7.4,7.4549,7.4798,7.5521,7.6802,7.7188,7.7649,7.8346,7.8837,7.9513,8.0399,7.9741,7.9841,8.0986,8.0868,8.098,8.1972,8.2368,8.2999,8.3928,8.4442,8.4374,8.4323,8.489,8.4975,8.4364,8.4556,8.4302,8.3181,8.2977,8.3219,8.3777,8.3884,8.4157,8.4947,8.4996,8.5072,8.5206,8.5244,8.5091,8.5158,8.5266,8.52,8.5131,8.4784,8.4616,6.3589,6.3939,6.4165,6.4813,6.5705,6.574,6.6225,6.6925,6.6312,6.5914,6.5826,6.6088,6.6387,6.67,6.6548,6.6583,6.6737,6.6387,6.6332,6.65,6.6699,6.7016,6.7454,6.7986,6.8409,6.8849,6.9218,6.9662,7.0179,7.0159,7.0497,7.1159,7.1375,7.1623,7.1866,7.1574,7.1331,7.1101,6.9637,6.9002,6.9369,6.9236,6.9481,7.0103,6.9747,6.9563,6.9563,6.9244,6.906,6.906,6.8744,6.8402,6.8069,6.8325,6.8756,6.9321,7.0381,7.148,7.2576,7.3311,7.4001,7.4587,7.5095,7.5043,7.4173,7.4061,7.4235,7.4732,7.5205,7.553,7.5782,7.5845,7.6306,7.7376,7.754,7.7927,7.8713,7.9403,8.0066,8.0879,8.0718,8.0869,8.1946,8.1654,8.1509,8.224,8.2836,8.3796,8.4854,8.5249,8.5343,8.5301,8.5629,8.5601,8.5034,8.5149,8.4968,8.4172,8.4071,8.4219,8.4621,8.4722,8.4971,8.5377,8.5551,8.5561,8.5521,8.5609,8.5599,8.5431,8.5298,8.5262,8.5262,8.5127,8.5017,6.5512,6.6198,6.6475,6.6934,6.7412,6.7764,6.8222,6.8656,6.8388,6.7703,6.6869,6.6978,6.7076,6.7168,6.7248,6.7374,6.7515,6.7321,6.7356,6.7515,6.755,6.7901,6.8463,6.8675,6.9098,6.9678,6.9926,7.0442,7.1101,7.1154,7.1545,7.2313,7.2656,7.2939,7.313,7.2859,7.2781,7.2875,7.1512,7.0302,6.9361,6.9431,6.9569,6.9699,6.9569,6.9481,6.9445,6.93,6.9207,6.9252,6.9322,6.9499,6.977,7.0215,7.0912,7.1931,7.3042,7.403,7.4966,7.597,7.653,7.653,7.6578,7.6701,7.6826,7.6338,7.6112,7.6513,7.6515,7.6616,7.6718,7.6668,7.6942,7.7675,7.7903,7.8341,7.9078,7.9754,8.0505,8.1369,8.147,8.167,8.2459,8.2423,8.2294,8.2654,8.3456,8.4485,8.5356,8.5808,8.601,8.6127,8.6059,8.5759,8.557,8.5451,8.5311,8.5089,8.5073,8.5078,8.5196,8.5332,8.5471,8.5501,8.5551,8.5579,8.5501,8.557,8.5561,8.5398,8.5219,8.5122,8.5122,8.5055,8.4977,6.6886,6.781,6.7879,6.8174,6.861,6.9336,6.9864,7.0171,6.97,6.9807,7.0084,6.9244,6.8891,6.9023,6.8374,6.8463,6.9008,6.8428,6.8463,6.9113,6.9183,6.9218,6.9412,7.0141,7.0585,7.078,7.1508,7.2045,7.2369,7.2295,7.2313,7.2548,7.2709,7.3063,7.3356,7.3521,7.3649,7.3796,7.3619,7.277,7.1302,7.0625,7.0604,7.1277,7.0641,7.0278,7.0403,6.959,6.9304,6.9366,6.9505,6.9908,7.0894,7.1763,7.282,7.4047,7.5025,7.5785,7.6281,7.6492,7.6689,7.6614,7.6776,7.7126,7.7739,7.7701,7.7314,7.6914,7.6592,7.6868,7.7492,7.7491,7.7725,7.851,7.8713,7.909,7.9802,7.9517,7.983,8.1444,8.1257,8.1257,8.2635,8.2925,8.3226,8.3802,8.4289,8.5055,8.5937,8.6187,8.6379,8.6526,8.6314,8.5908,8.558,8.5329,8.5298,8.538,8.5287,8.5283,8.5346,8.5388,8.5429,8.5491,8.5441,8.5449,8.5429,8.5408,8.5318,8.5224,8.5077,8.4935,8.4924,8.4935,8.4912,6.8052,6.8816,6.9014,6.9479,7.0133,7.0902,7.1266,7.1197,7.1428,7.1659,7.1798,7.1351,7.0534,6.9524,6.9079,6.9113,6.9394,6.9516,6.9801,7.0245,7.0609,7.0855,7.0986,7.1307,7.152,7.1539,7.2077,7.2615,7.3241,7.3758,7.4025,7.4026,7.4422,7.4668,7.4633,7.4663,7.4678,7.4593,7.4158,7.3644,7.3107,7.2665,7.2665,7.2998,7.2701,7.2536,7.2615,7.232,7.2263,7.2507,7.2627,7.2944,7.3578,7.4136,7.4953,7.6077,7.7058,7.7764,7.8016,7.8528,7.8628,7.8128,7.859,7.9053,7.9279,7.8928,7.8591,7.8629,7.8179,7.8016,7.8238,7.8249,7.8585,7.9336,7.9564,7.9965,8.0867,8.073,8.1094,8.2197,8.2185,8.246,8.3489,8.3841,8.4017,8.4331,8.4553,8.5084,8.5947,8.6199,8.655,8.691,8.641,8.5724,8.5451,8.5329,8.5287,8.5298,8.5346,8.5356,8.5377,8.5449,8.5461,8.5501,8.5401,8.5388,8.5408,8.5272,8.5176,8.5039,8.4999,8.4889,8.4889,8.4889,8.4889,6.9268,6.9901,7.0397,7.093,7.1493,7.2219,7.2483,7.2422,7.269,7.287,7.2976,7.2709,7.1782,7.0465,7.0193,7.01,7.0189,7.0663,7.1021,7.1258,7.1673,7.1939,7.2088,7.2375,7.2446,7.2518,7.2951,7.3453,7.415,7.4777,7.5116,7.5097,7.5638,7.5832,7.562,7.5595,7.5574,7.5406,7.4896,7.472,7.4865,7.4769,7.4551,7.4263,7.4131,7.4131,7.4242,7.4306,7.4462,7.4702,7.4918,7.5242,7.5842,7.6064,7.6601,7.7646,7.8501,7.9116,7.9417,8.0067,8.0218,7.9867,8.0393,8.0631,8.0405,7.9992,7.9816,7.985,7.9648,7.9332,7.9005,7.8978,7.9381,8.0223,8.0425,8.0778,8.1456,8.162,8.1896,8.2674,8.2824,8.3376,8.4192,8.4418,8.4393,8.428,8.4419,8.497,8.5912,8.6407,8.6814,8.7581,8.6927,8.6237,8.5769,8.5436,8.5384,8.5308,8.536,8.5429,8.5429,8.549,8.55,8.5421,8.5377,8.5294,8.5202,8.5084,8.4966,8.4909,8.4878,8.4869,8.4831,8.4854,8.4889,7.0541,7.1431,7.2207,7.2436,7.2486,7.3096,7.3664,7.3921,7.3243,7.3262,7.3779,7.3083,7.2457,7.2167,7.2001,7.1889,7.1854,7.1889,7.2036,7.2238,7.2326,7.2309,7.2327,7.3166,7.3613,7.3666,7.44,7.492,7.5045,7.5171,7.5206,7.5189,7.5603,7.5798,7.5815,7.607,7.622,7.6164,7.6297,7.6498,7.666,7.666,7.5983,7.4863,7.4467,7.4561,7.4608,7.4659,7.4863,7.4955,7.5331,7.5877,7.6921,7.7064,7.7652,7.8739,7.9016,7.9517,8.0218,8.0481,8.0743,8.1294,8.1444,8.1256,8.0718,8.0854,8.0762,8.0066,8.0519,8.0437,7.9864,7.9715,8.0081,8.1,8.1284,8.1453,8.1657,8.1946,8.1971,8.2523,8.3,8.3602,8.428,8.4406,8.4431,8.4304,8.4393,8.5097,8.648,8.7008,8.7559,8.826,8.8299,8.7877,8.6795,8.6136,8.5701,8.5767,8.5899,8.5596,8.55,8.5441,8.5439,8.5367,8.5192,8.5084,8.5006,8.4871,8.4722,8.4689,8.4838,8.4852,8.5015,8.4933,8.5082,7.1672,7.2275,7.2565,7.2837,7.3166,7.392,7.4254,7.4119,7.4422,7.4583,7.4689,7.4403,7.4168,7.3949,7.3874,7.3175,7.2103,7.2604,7.3019,7.3237,7.3587,7.3854,7.402,7.4342,7.4467,7.454,7.4955,7.5206,7.5206,7.5206,7.5116,7.5134,7.5638,7.5832,7.5727,7.6193,7.6478,7.6551,7.707,7.7489,7.7786,7.8389,7.8427,7.7986,7.7286,7.7186,7.7846,7.8002,7.8216,7.847,7.8609,7.9037,7.9617,7.9855,8.0125,8.0567,8.0668,8.0843,8.1144,8.167,8.182,8.1632,8.212,8.2219,8.1792,8.1366,8.1087,8.1306,8.1396,8.1327,8.1168,8.0749,8.0874,8.1758,8.208,8.2414,8.302,8.3223,8.3337,8.3577,8.3828,8.423,8.4783,8.4795,8.4607,8.4828,8.5032,8.57,8.6732,8.7437,8.8167,8.9132,8.9368,8.9009,8.8324,8.7232,8.6658,8.6849,8.6877,8.6523,8.6312,8.5772,8.5644,8.5668,8.5393,8.5231,8.5227,8.5063,8.4832,8.4795,8.4933,8.5323,8.5335,8.5469,8.5782,7.2424,7.2778,7.3253,7.3665,7.4026,7.4783,7.49,7.4655,7.5174,7.5352,7.5189,7.5206,7.5115,7.4931,7.4968,7.4287,7.3086,7.3623,7.3984,7.4221,7.4608,7.4857,7.4968,7.5005,7.5005,7.5005,7.5116,7.5206,7.5206,7.5206,7.5295,7.5509,7.6051,7.637,7.6568,7.7125,7.7394,7.7569,7.8085,7.8573,7.8871,7.957,8.0146,8.0333,7.9752,7.9543,7.9989,8.0106,8.0303,8.0555,8.0728,8.094,8.1241,8.1503,8.1594,8.1594,8.1594,8.1745,8.2007,8.252,8.267,8.2458,8.2819,8.3003,8.2636,8.2,8.1951,8.2119,8.2304,8.2307,8.2287,8.1949,8.2016,8.2654,8.2981,8.3203,8.3647,8.3975,8.4278,8.4531,8.4444,8.477,8.5335,8.511,8.4946,8.4963,8.5393,8.6201,8.6844,8.7675,8.8583,8.9638,8.9777,8.9595,8.9254,8.8586,8.7627,8.7638,8.7517,8.7232,8.6955,8.6386,8.6007,8.5964,8.5833,8.5606,8.5417,8.5297,8.5198,8.5147,8.5524,8.6027,8.609,8.619,8.6517,7.2726,7.3036,7.4412,7.4994,7.5108,7.5522,7.5762,7.5602,7.537,7.5225,7.5189,7.5206,7.5097,7.4987,7.5097,7.4989,7.4735,7.4716,7.488,7.5063,7.5134,7.5134,7.5152,7.5152,7.5188,7.5188,7.5242,7.526,7.5313,7.5439,7.5833,7.6571,7.6859,7.7465,7.861,7.8671,7.8949,7.9095,7.9446,7.9784,7.9863,8.0238,8.0812,8.1434,8.154,8.1207,8.0473,8.057,8.0806,8.0877,8.1084,8.118,8.1585,8.1742,8.1707,8.182,8.1745,8.2083,8.2708,8.2896,8.3271,8.3759,8.3878,8.3461,8.3056,8.3106,8.299,8.2504,8.2762,8.3121,8.3113,8.3155,8.326,8.355,8.3709,8.3645,8.3322,8.3726,8.4606,8.5196,8.516,8.4846,8.5231,8.5522,8.5435,8.5179,8.5818,8.6738,8.7029,8.7812,8.862,8.9327,8.9716,8.9737,8.9859,8.9903,8.8973,8.8269,8.802,8.7786,8.7661,8.7252,8.687,8.6765,8.6507,8.6278,8.6128,8.6001,8.6074,8.6096,8.6499,8.6689,8.6779,8.6907,8.7173,7.3832,7.4375,7.4882,7.5342,7.5711,7.588,7.5814,7.5603,7.5424,7.5352,7.5207,7.5206,7.5152,7.5116,7.5188,7.5152,7.5097,7.5097,7.5134,7.5206,7.5225,7.5206,7.5206,7.5206,7.5206,7.5296,7.5796,7.601,7.6117,7.6509,7.7105,7.7631,7.7989,7.8377,7.8979,7.9212,7.9357,7.9495,8.0218,8.0672,8.0835,8.164,8.2214,8.2451,8.2624,8.2572,8.2319,8.2415,8.2516,8.2522,8.2813,8.3032,8.3192,8.3296,8.3322,8.3322,8.3322,8.3397,8.3622,8.3697,8.4022,8.4609,8.424,8.4005,8.4073,8.3737,8.341,8.294,8.3098,8.318,8.3224,8.3427,8.3569,8.3588,8.3767,8.3905,8.3797,8.4037,8.4679,8.5798,8.6851,8.7037,8.6185,8.6087,8.632,8.6479,8.7042,8.7472,8.7705,8.8314,8.9098,8.9566,8.9692,8.9802,8.9863,8.9899,8.9479,8.893,8.8672,8.8444,8.8357,8.8159,8.78,8.7544,8.7273,8.7058,8.689,8.6835,8.6881,8.6916,8.7069,8.7284,8.7434,8.7681,8.7927,7.4629,7.5136,7.5426,7.5868,7.6383,7.6367,7.6355,7.6266,7.5979,7.5763,7.5635,7.5313,7.5206,7.5206,7.5206,7.5206,7.5206,7.5206,7.5367,7.5546,7.5296,7.5206,7.5242,7.5546,7.5831,7.6117,7.6545,7.6795,7.683,7.7277,7.7859,7.8567,7.8907,7.9439,8.0016,8.0287,8.0434,8.0654,8.1271,8.1702,8.1948,8.2599,8.3009,8.3009,8.3136,8.3358,8.3655,8.3874,8.3797,8.3592,8.374,8.4007,8.4125,8.4112,8.411,8.411,8.411,8.4073,8.411,8.4283,8.4669,8.5017,8.4815,8.4751,8.495,8.4221,8.3444,8.3633,8.3381,8.318,8.3224,8.3398,8.363,8.4087,8.3982,8.4117,8.4472,8.5049,8.5615,8.6621,8.7558,8.7759,8.7448,8.6946,8.7039,8.7377,8.7865,8.807,8.8281,8.8804,8.9287,8.9604,8.9742,8.9766,8.979,8.979,8.979,8.9585,8.9429,8.9204,8.9066,8.8842,8.853,8.8394,8.8176,8.8121,8.7964,8.7834,8.7804,8.779,8.7752,8.8043,8.8285,8.8498,8.8719,7.5119,7.5264,7.5969,7.6591,7.7087,7.6894,7.711,7.7537,7.6852,7.6421,7.6224,7.5653,7.5278,7.5206,7.5206,7.526,7.5296,7.5367,7.5796,7.6117,7.5867,7.5581,7.567,7.6188,7.6723,7.7223,7.7473,7.758,7.758,7.7794,7.8327,7.9558,7.9738,8.04,8.1403,8.1882,8.1884,8.2123,8.246,8.2631,8.2763,8.3054,8.318,8.318,8.3329,8.37,8.4338,8.4721,8.461,8.3956,8.4264,8.4488,8.4429,8.4288,8.426,8.4411,8.426,8.4335,8.4384,8.4891,8.531,8.547,8.5605,8.582,8.5685,8.4703,8.4005,8.4384,8.3975,8.3552,8.3581,8.3705,8.4161,8.4727,8.47,8.4797,8.5449,8.6513,8.6978,8.7353,8.7565,8.7828,8.8569,8.8179,8.764,8.7377,8.809,8.846,8.852,8.8917,8.9349,8.9566,8.9704,8.9766,8.979,8.9716,8.9716,8.9678,8.9576,8.9489,8.9414,8.9226,8.8985,8.889,8.8848,8.8904,8.8835,8.8541,8.849,8.8503,8.8654,8.893,8.9041,8.9065,8.9172,7.5359,7.5783,7.6,7.6507,7.7106,7.6877,7.7253,7.7918,7.7461,7.6937,7.6474,7.6188,7.5796,7.526,7.5242,7.551,7.5974,7.6081,7.6474,7.708,7.7045,7.6902,7.6902,7.708,7.733,7.7615,7.8151,7.8384,7.8455,7.8919,7.9675,8.0568,8.0622,8.1083,8.1985,8.2121,8.2198,8.2391,8.2602,8.2773,8.2919,8.3106,8.318,8.3232,8.3752,8.4191,8.4547,8.534,8.5821,8.5791,8.5821,8.5888,8.5778,8.5288,8.5199,8.5575,8.5274,8.5274,8.5698,8.5927,8.6219,8.6715,8.6256,8.6095,8.6691,8.602,8.5499,8.5446,8.5372,8.5298,8.5083,8.5178,8.5587,8.5951,8.5934,8.6162,8.6763,8.6889,8.7152,8.8278,8.8503,8.8691,8.8804,8.8766,8.8503,8.8353,8.8592,8.8986,8.8872,8.8992,8.9462,8.9566,8.9692,8.9753,8.9766,8.9679,8.9629,8.9604,8.9553,8.949,8.9414,8.9274,8.9074,8.8903,8.8938,8.8972,8.894,8.8758,8.8936,8.8992,8.8992,8.9006,8.9157,8.9205,8.9336,7.5759,7.6003,7.6003,7.6601,7.7505,7.7289,7.7862,7.8669,7.8266,7.7794,7.7366,7.6973,7.6616,7.617,7.6095,7.6328,7.6776,7.6772,7.7219,7.7991,7.8365,7.8329,7.8079,7.8008,7.8151,7.8543,7.8972,7.9186,7.9295,7.9875,8.0436,8.093,8.1197,8.1579,8.2137,8.2284,8.238,8.2502,8.2711,8.2843,8.3009,8.3136,8.318,8.3358,8.4034,8.474,8.5699,8.6789,8.7127,8.6728,8.6516,8.654,8.6556,8.6127,8.6025,8.6438,8.6063,8.5998,8.6329,8.6579,8.6915,8.7202,8.6833,8.7063,8.7293,8.6978,8.6375,8.6189,8.6152,8.5922,8.5916,8.6235,8.6653,8.6925,8.7243,8.7533,8.7814,8.7677,8.7978,8.8691,8.8992,8.8992,8.8992,8.8992,8.8992,8.8954,8.8841,8.9078,8.9189,8.9358,8.9488,8.9616,8.9742,8.9841,8.9816,8.9704,8.9566,8.9528,8.9412,8.9384,8.9307,8.9254,8.9116,8.8936,8.8978,8.8978,8.8922,8.8894,8.895,8.8992,8.8992,8.9061,8.916,8.932,8.9451,7.6012,7.6005,7.6005,7.6784,7.7901,7.7879,7.8557,7.9811,7.921,7.8722,7.8436,7.7901,7.7508,7.7508,7.7034,7.7264,7.7559,7.7407,7.7982,7.8736,7.9328,7.94,7.8864,7.8793,7.9114,7.9614,7.9844,7.9844,7.987,8.0247,8.0657,8.102,8.1372,8.1785,8.2154,8.2348,8.2471,8.2665,8.2798,8.2964,8.3136,8.318,8.321,8.3417,8.439,8.5809,8.722,8.8279,8.8292,8.7012,8.6806,8.6994,8.6986,8.683,8.679,8.68,8.6787,8.6606,8.6706,8.7237,8.7376,8.7429,8.7799,8.8084,8.7929,8.7394,8.7007,8.6932,8.6264,8.6265,8.6416,8.6974,8.7404,8.7697,8.8287,8.833,8.8181,8.8537,8.8964,8.8978,8.8978,8.8936,8.8992,8.8992,8.8978,8.9043,8.9146,8.9434,8.9695,9.004,8.9918,8.9754,8.9841,8.9929,8.9841,8.9741,8.9579,8.9488,8.9305,8.9211,8.9197,8.9129,8.9047,8.8964,8.8964,8.8936,8.8894,8.8908,8.8978,8.9019,8.9033,8.9078,8.9187,8.9359,8.9502,7.4988,7.585,7.585,7.6643,7.7718,7.7694,7.8588,8.0133,7.9798,7.9257,7.8777,7.8527,7.8115,7.7525,7.744,7.7563,7.819,7.8203,7.8672,7.9559,7.9792,7.9844,7.9595,7.9559,7.9702,7.988,7.988,7.988,7.9977,8.032,8.0676,8.1001,8.1441,8.1802,8.217,8.2364,8.2523,8.2696,8.2828,8.2994,8.3165,8.3269,8.3402,8.3653,8.4982,8.6671,8.8123,8.8719,8.8743,8.8541,8.8418,8.8268,8.8207,8.7817,8.7776,8.8011,8.7642,8.7572,8.8049,8.8032,8.8078,8.798,8.8007,8.81,8.81,8.7935,8.7787,8.7787,8.7654,8.7455,8.757,8.7891,8.807,8.8234,8.8354,8.8414,8.8382,8.8596,8.8808,8.8865,8.8737,8.8635,8.8936,8.8954,8.902,8.9104,8.944,8.9827,9.0225,9.0659,9.06,9.041,9.0321,9.0384,9.0032,8.9831,8.9476,8.9397,8.9224,8.9129,8.9116,8.9047,8.8992,8.895,8.8936,8.8908,8.8894,8.8936,8.9006,8.9033,8.9064,8.9173,8.9294,8.9438,8.9742,7.5347,7.5884,7.5815,7.6625,7.7755,7.7675,7.8514,7.9916,7.9977,7.9685,7.9309,7.916,7.8872,7.8458,7.8169,7.8374,7.8875,7.9063,7.9355,7.9809,7.988,7.9841,7.9743,7.9743,7.9779,7.9724,7.9625,7.9645,7.9861,8.0322,8.0731,8.1037,8.1598,8.1952,8.2186,8.2364,8.2487,8.2696,8.2828,8.2994,8.3165,8.3604,8.4428,8.5102,8.6297,8.7524,8.8753,8.8879,8.8922,8.8978,8.8992,8.8992,8.8954,8.8616,8.8588,8.8692,8.8485,8.8193,8.8473,8.8414,8.8241,8.8239,8.8131,8.8115,8.81,8.81,8.81,8.81,8.81,8.8125,8.8278,8.8271,8.8369,8.8459,8.8384,8.8369,8.8451,8.8577,8.8606,8.8693,8.8635,8.8679,8.8803,8.9019,8.9404,8.9667,9.0521,9.0908,9.1044,9.1416,9.1483,9.1332,9.1066,9.0814,9.0361,8.9893,8.9384,8.9278,8.9184,8.9143,8.9143,8.9061,8.8978,8.8964,8.8964,8.895,8.895,8.8992,8.9075,8.9184,8.924,8.932,8.9449,8.9616,9.002,7.6065,7.6022,7.5976,7.6769,7.7918,7.782,7.8638,7.9985,7.9977,7.9825,7.9822,7.9681,7.9444,7.9376,7.8968,7.9115,7.9391,7.9535,7.9574,7.9688,7.9724,7.9645,7.9546,7.9487,7.9487,7.9487,7.9447,7.9487,7.9864,8.0416,8.1021,8.136,8.2021,8.2577,8.2623,8.2569,8.2892,8.3271,8.3272,8.3476,8.3775,8.4376,8.5484,8.6754,8.7576,8.8101,8.8875,8.9128,8.9179,8.8992,8.8992,8.8992,8.8992,8.8992,8.895,8.8846,8.8691,8.8546,8.8406,8.8308,8.8239,8.81,8.81,8.81,8.81,8.81,8.81,8.8115,8.8131,8.8193,8.8247,8.8293,8.8339,8.8384,8.8323,8.8339,8.8414,8.8496,8.8638,8.8444,8.8496,8.8555,8.8926,8.929,8.9779,9.0381,9.1273,9.185,9.1949,9.222,9.2339,9.2151,9.1861,9.1116,9.0596,9.0395,8.9832,8.9523,8.9379,8.9543,8.943,8.9136,8.9104,8.9043,8.9006,8.8992,8.9033,8.9102,8.9211,8.9307,8.9412,8.9464,8.9591,8.9768,9.0396,7.5578,7.6058,7.6515,7.7164,7.7861,7.8281,7.8974,7.9831,7.9864,7.9783,7.9625,7.9621,7.9447,7.9231,7.9049,7.8952,7.9069,7.9191,7.9251,7.9351,7.9371,7.9311,7.9271,7.9332,7.9241,7.9307,7.9533,7.9862,8.013,8.0676,8.1508,8.2367,8.2961,8.3454,8.3741,8.3746,8.3777,8.421,8.4123,8.4292,8.4874,8.5574,8.6362,8.772,8.849,8.8912,8.9128,8.963,8.9705,8.9104,8.8992,8.8992,8.8992,8.8992,8.8964,8.8894,8.8708,8.8533,8.8429,8.8232,8.8162,8.81,8.81,8.81,8.81,8.81,8.81,8.8115,8.8193,8.8217,8.8146,8.8239,8.8254,8.8223,8.8177,8.8199,8.8341,8.8692,8.8902,8.8681,8.8495,8.851,8.9041,8.9704,9.042,9.1127,9.2011,9.2345,9.2329,9.2816,9.3289,9.2987,9.2558,9.1647,9.0785,9.075,9.0494,9.0145,9.0075,9.0465,9.024,8.9522,8.9268,8.9573,8.9338,8.9088,8.9143,8.9211,8.9595,8.9915,8.9817,8.968,9.0233,9.0808,9.1286,7.5899,7.6159,7.6367,7.6786,7.7379,7.7983,7.8638,7.9293,7.9604,7.972,7.9562,7.9367,7.917,7.9028,7.8844,7.8803,7.8906,7.9049,7.913,7.9211,7.9211,7.915,7.9216,7.9402,7.9296,7.9524,8.0101,8.0677,8.0818,8.1234,8.2196,8.3239,8.3837,8.4225,8.4496,8.4387,8.4551,8.4986,8.4938,8.5034,8.5774,8.6594,8.7815,8.8789,8.9658,9.0005,8.9743,8.9916,8.9818,8.9179,8.8992,8.8992,8.8992,8.8992,8.8964,8.8865,8.8664,8.8488,8.8399,8.8223,8.81,8.81,8.81,8.81,8.81,8.81,8.81,8.8115,8.8131,8.8193,8.8115,8.8177,8.8162,8.8115,8.8137,8.8344,8.8678,8.9087,8.9128,8.9163,8.9603,8.965,8.9384,9.0109,9.1043,9.1894,9.272,9.2867,9.2796,9.3285,9.3872,9.3612,9.3046,9.1935,9.1226,9.1315,9.1186,9.0873,9.0827,9.1217,9.1203,9.0564,9.0479,9.0671,9.021,8.9519,8.9224,8.9329,8.9927,9.0536,9.0575,9.0773,9.1371,9.1899,9.2357,7.6292,7.6311,7.6252,7.6495,7.6949,7.7539,7.8159,7.8664,7.9131,7.9384,7.9407,7.9089,7.8906,7.8823,7.872,7.8699,7.8864,7.9008,7.9028,7.9049,7.9049,7.9023,7.9431,7.9755,8.0085,8.0187,8.1063,8.1723,8.1329,8.1902,8.2922,8.3838,8.4493,8.4857,8.5021,8.5029,8.5152,8.5422,8.5567,8.5791,8.6735,8.7966,8.9323,9.0255,9.1225,9.132,9.0606,9.0794,9.0306,8.9667,8.9292,8.9179,8.9029,8.8992,8.8936,8.8846,8.8635,8.8436,8.8354,8.8193,8.81,8.81,8.81,8.81,8.81,8.81,8.81,8.81,8.81,8.8115,8.81,8.81,8.81,8.8174,8.8307,8.8567,8.9161,8.957,8.9793,9.0111,9.0732,9.0758,9.041,9.0706,9.1657,9.2218,9.3009,9.351,9.3492,9.3733,9.4094,9.3975,9.3385,9.2202,9.1736,9.2027,9.1857,9.163,9.1738,9.2063,9.2025,9.1748,9.1738,9.1626,9.0812,9.0172,8.983,8.9825,9.0712,9.1345,9.1505,9.181,9.2162,9.2859,9.351,7.6292,7.6348,7.683,7.7,7.6949,7.7503,7.8012,7.8384,7.8559,7.8729,7.9069,7.8947,7.8823,7.8678,7.8616,7.8616,7.8637,7.8784,7.8881,7.8916,7.8987,7.9366,7.9872,8.0019,8.0818,8.1186,8.2076,8.1722,8.1666,8.263,8.37,8.4574,8.5091,8.5424,8.5895,8.5652,8.5884,8.6453,8.6495,8.7288,8.8809,8.9452,9.0228,9.1219,9.2019,9.2183,9.1545,9.1733,9.147,9.0142,8.9991,8.9705,8.9142,8.8992,8.8992,8.8894,8.8722,8.8503,8.8444,8.8254,8.81,8.81,8.81,8.81,8.81,8.81,8.81,8.81,8.81,8.8211,8.8248,8.8174,8.8137,8.8418,8.8827,8.9087,8.9533,9.0387,9.0573,9.0924,9.1545,9.1599,9.1407,9.183,9.227,9.2773,9.3244,9.376,9.4088,9.418,9.4307,9.4188,9.3958,9.2862,9.2562,9.2778,9.2531,9.2329,9.2692,9.2951,9.3121,9.3055,9.2659,9.2359,9.1762,9.122,9.0839,9.1125,9.1824,9.2278,9.2563,9.2711,9.2848,9.3635,9.4606,7.6191,7.6295,7.645,7.6423,7.6338,7.6912,7.7444,7.7894,7.8258,7.8682,7.8983,7.8967,7.8803,7.8616,7.8595,7.8595,7.87,7.903,7.9276,7.9417,7.9684,8.0091,8.0662,8.1225,8.1907,8.2018,8.3041,8.3406,8.3063,8.3611,8.4895,8.5739,8.5876,8.6081,8.6447,8.6172,8.6351,8.6686,8.707,8.8006,8.9443,9.0281,9.0999,9.2117,9.2957,9.2845,9.2469,9.2409,9.1883,9.0592,9.0343,8.9968,8.9254,8.8992,8.8992,8.8978,8.8693,8.8533,8.8473,8.8254,8.8131,8.81,8.81,8.81,8.81,8.8137,8.8137,8.81,8.81,8.8307,8.8678,8.879,8.879,8.9013,8.9533,8.9793,9.0202,9.0982,9.1576,9.1948,9.2224,9.2252,9.2295,9.2614,9.2838,9.3094,9.3462,9.385,9.4073,9.416,9.4265,9.4352,9.4084,9.3611,9.3615,9.373,9.3207,9.3086,9.3615,9.3961,9.4434,9.4386,9.3981,9.4405,9.4797,9.3937,9.2493,9.216,9.267,9.3162,9.3659,9.3782,9.3966,9.4798,9.5579,7.6057,7.6159,7.6203,7.6029,7.5799,7.641,7.6979,7.7485,7.7867,7.8489,7.8998,7.9008,7.8803,7.8637,7.863,7.8735,7.896,7.9543,7.9873,8.0224,8.061,8.0969,8.1457,8.2228,8.2486,8.2119,8.4198,8.4541,8.4446,8.4971,8.6001,8.6703,8.6173,8.6247,8.6356,8.6302,8.6338,8.6819,8.7384,8.84,8.9702,9.0631,9.1578,9.2525,9.326,9.3455,9.299,9.2877,9.2075,9.1357,9.1169,9.0869,9.0005,8.9907,8.9667,8.9461,8.912,8.8794,8.8556,8.8263,8.8131,8.81,8.8174,8.8248,8.862,8.8455,8.8716,8.9087,8.8901,8.9161,8.9421,8.9607,8.9607,8.9867,9.0313,9.0573,9.0945,9.165,9.2171,9.2431,9.2719,9.2976,9.3072,9.3311,9.3457,9.3557,9.3762,9.3986,9.4102,9.4189,9.4335,9.45,9.4405,9.4171,9.4248,9.4236,9.3778,9.3725,9.4267,9.4689,9.4995,9.5338,9.521,9.6017,9.6937,9.6209,9.4521,9.3938,9.3453,9.3971,9.4468,9.483,9.5227,9.5991,9.6289,7.5815,7.5905,7.6553,7.6356,7.5621,7.6356,7.6905,7.7388,7.7366,7.8154,7.9084,7.8987,7.8782,7.8672,7.8771,7.9066,7.9662,7.9768,8.0294,8.0716,8.0961,8.1618,8.2184,8.2694,8.309,8.347,8.484,8.5262,8.5391,8.5985,8.6231,8.5991,8.6029,8.5933,8.5914,8.5988,8.6265,8.6844,8.7545,8.8613,8.9743,9.0708,9.1656,9.2591,9.297,9.3088,9.3314,9.3264,9.2968,9.2229,9.2371,9.192,9.1109,9.1033,9.0756,9.0169,8.9868,8.9444,8.8988,8.8396,8.8131,8.81,8.8174,8.8471,8.914,8.9198,8.9719,9.0424,9.0016,9.0127,9.0313,9.0424,9.0424,9.0647,9.1019,9.1279,9.1688,9.2245,9.2728,9.2914,9.3086,9.3248,9.337,9.3495,9.3594,9.3618,9.3822,9.403,9.4203,9.4293,9.45,9.4623,9.4689,9.4641,9.4641,9.4501,9.426,9.4207,9.4459,9.4915,9.5273,9.5621,9.6107,9.6733,9.7347,9.6998,9.6855,9.6379,9.5856,9.5273,9.5201,9.5376,9.5735,9.6306,9.6453,7.5621,7.5729,7.6821,7.6875,7.6284,7.6944,7.7546,7.8056,7.8108,7.85,7.9191,7.8864,7.8678,7.87,7.9192,7.9452,7.9965,8.0913,8.1277,8.1799,8.2251,8.2768,8.3167,8.3235,8.3442,8.3856,8.4837,8.5392,8.5335,8.6435,8.6759,8.6512,8.6065,8.5934,8.5895,8.5763,8.608,8.6666,8.7502,8.8503,8.9813,9.0691,9.1694,9.2753,9.2897,9.3093,9.3326,9.3373,9.3087,9.2944,9.322,9.2671,9.1958,9.1958,9.16,9.0951,9.067,9.0258,8.9652,8.8834,8.8137,8.81,8.8174,8.8545,8.9437,8.9384,8.9793,9.035,9.0796,9.0833,9.1205,9.1242,9.1279,9.1465,9.1688,9.1985,9.2245,9.2728,9.2963,9.3054,9.3167,9.3275,9.3432,9.3587,9.3633,9.3694,9.3897,9.4059,9.4231,9.4335,9.45,9.461,9.4676,9.465,9.4636,9.4676,9.4728,9.4727,9.4674,9.5083,9.5498,9.6323,9.6842,9.739,9.7974,9.8135,9.8327,9.8623,9.7908,9.6359,9.5743,9.5658,9.6129,9.6649,9.6806,7.5406,7.5603,7.6922,7.7174,7.6748,7.7512,7.817,7.8634,7.865,7.8957,7.9291,7.8961,7.8741,7.891,7.9403,7.9943,8.0435,8.1348,8.205,8.2594,8.309,8.3603,8.3791,8.3952,8.4083,8.4256,8.4952,8.5572,8.5579,8.6593,8.6953,8.6835,8.6429,8.6192,8.5857,8.5668,8.5795,8.659,8.7231,8.818,8.952,9.0417,9.135,9.2345,9.2473,9.2814,9.3077,9.32,9.3264,9.335,9.3475,9.3324,9.2807,9.2388,9.2277,9.1807,9.138,9.1174,9.0491,8.9494,8.8397,8.8158,8.81,8.8657,8.9347,8.9681,9.0276,9.1316,9.139,9.1465,9.2059,9.2096,9.2096,9.2245,9.2393,9.2616,9.2542,9.2819,9.2996,9.3135,9.3211,9.3322,9.3603,9.3807,9.3807,9.3852,9.3927,9.4059,9.4203,9.4293,9.439,9.4489,9.4559,9.453,9.4448,9.4513,9.4554,9.4687,9.4723,9.5153,9.5691,9.655,9.733,9.7903,9.8518,9.9264,9.9442,9.9306,9.8174,9.6696,9.6512,9.6543,9.6436,9.6937,9.7378,7.5189,7.5403,7.6847,7.7061,7.6688,7.8063,7.8686,7.881,7.8755,7.9047,7.9411,7.9191,7.9058,7.9126,7.9691,8.0294,8.0997,8.1804,8.2471,8.3042,8.3445,8.3797,8.4157,8.4436,8.4602,8.5044,8.5627,8.6015,8.5989,8.6815,8.7197,8.7098,8.6679,8.632,8.5801,8.5434,8.585,8.6832,8.7205,8.8068,8.8984,9.0081,9.1143,9.1835,9.2127,9.2476,9.2996,9.3125,9.3299,9.3747,9.3835,9.3775,9.3662,9.344,9.3125,9.2518,9.2169,9.164,9.0848,8.9851,8.9177,8.8604,8.8678,8.9124,9.0127,9.061,9.1019,9.2133,9.2542,9.2691,9.2876,9.2876,9.2802,9.2802,9.2951,9.2951,9.2839,9.2802,9.3033,9.3184,9.3243,9.337,9.3747,9.4008,9.4008,9.4008,9.3986,9.4073,9.4174,9.4194,9.4265,9.4362,9.4435,9.4407,9.4362,9.4307,9.4349,9.4513,9.4721,9.5024,9.5615,9.642,9.7251,9.8134,9.889,9.9467,9.9669,9.9758,9.8705,9.7856,9.7668,9.7559,9.733,9.7314,9.786,7.4931,7.4943,7.645,7.6947,7.7021,7.8733,7.9429,7.9293,7.9136,7.9063,7.9074,7.8906,7.9134,7.9557,8.0253,8.0961,8.1699,8.2471,8.3103,8.3182,8.3581,8.4017,8.439,8.4656,8.4911,8.5227,8.5855,8.6224,8.6073,8.69,8.7231,8.7186,8.6806,8.6482,8.6414,8.6266,8.6388,8.701,8.7658,8.8411,8.9018,9.03,9.14,9.2108,9.2162,9.2528,9.3141,9.3189,9.3473,9.3927,9.4,9.3986,9.3956,9.377,9.3521,9.313,9.2859,9.2343,9.1668,9.0961,9.0536,8.9979,8.9644,9.0016,9.113,9.1279,9.1985,9.267,9.2967,9.3004,9.2988,9.2967,9.293,9.2914,9.2988,9.2988,9.2951,9.2951,9.3054,9.3216,9.3306,9.3541,9.3882,9.4361,9.4451,9.4263,9.4226,9.4075,9.4073,9.4073,9.4079,9.4165,9.425,9.4265,9.4236,9.4217,9.4231,9.4335,9.4459,9.4589,9.5344,9.6227,9.6911,9.7633,9.8626,9.9557,9.9641,9.9649,9.9634,9.9225,9.8668,9.8336,9.8108,9.817,9.8604,7.4725,7.477,7.5974,7.6623,7.7083,7.8852,7.9586,7.9447,7.9271,7.913,7.9043,7.9084,7.9388,8.0085,8.0899,8.1488,8.2177,8.2857,8.3208,8.3275,8.3689,8.4207,8.4593,8.4951,8.5499,8.5769,8.6119,8.6447,8.6605,8.7047,8.7318,8.7237,8.6917,8.7067,8.6987,8.6666,8.6719,8.7467,8.8296,8.8505,8.9403,9.0502,9.1563,9.214,9.2493,9.2764,9.3184,9.3473,9.3581,9.3845,9.3919,9.3874,9.3815,9.3664,9.3495,9.3354,9.3173,9.2768,9.2315,9.215,9.1762,9.1428,9.0945,9.0907,9.1502,9.1613,9.2133,9.267,9.3,9.3309,9.3458,9.3437,9.33,9.33,9.3263,9.3263,9.3167,9.3184,9.3232,9.3354,9.3464,9.3709,9.4002,9.4557,9.4924,9.4699,9.4474,9.4301,9.4075,9.4038,9.4015,9.4117,9.416,9.4137,9.4122,9.4102,9.4131,9.4217,9.4368,9.4517,9.5066,9.5939,9.6547,9.7227,9.8399,9.9248,9.9462,9.9523,9.948,9.9373,9.9065,9.8841,9.8779,9.8985,9.9275,7.4574,7.4716,7.5443,7.6066,7.6775,7.8332,7.912,7.9191,7.9191,7.917,7.9186,7.9681,8.0021,8.0373,8.1491,8.2107,8.2318,8.2963,8.316,8.3363,8.3733,8.4338,8.4948,8.5463,8.59,8.6533,8.6936,8.6926,8.7231,8.7268,8.7352,8.7462,8.7366,8.7557,8.7286,8.69,8.7198,8.8168,8.8724,8.9111,9.0063,9.0847,9.1788,9.2397,9.2714,9.3012,9.3348,9.3535,9.3709,9.3815,9.3815,9.374,9.3603,9.3385,9.3275,9.3163,9.307,9.2946,9.2856,9.2802,9.2802,9.2356,9.1502,9.1353,9.1576,9.2022,9.2538,9.3033,9.3433,9.3923,9.427,9.4052,9.3871,9.3796,9.3737,9.3625,9.3476,9.347,9.3532,9.3587,9.3649,9.3852,9.4098,9.4593,9.5112,9.5037,9.4812,9.4662,9.4451,9.4038,9.4067,9.4088,9.4117,9.405,9.4096,9.4293,9.4458,9.4695,9.4608,9.4759,9.5248,9.5808,9.646,9.7295,9.8311,9.8944,9.9118,9.923,9.9318,9.9192,9.9117,9.9143,9.9036,9.9435,9.972,7.4287,7.4276,7.496,7.5398,7.576,7.7243,7.8315,7.8917,7.8973,7.8926,7.8796,7.9543,8.0211,8.0731,8.165,8.2331,8.2787,8.309,8.3284,8.3551,8.3754,8.4332,8.4924,8.5514,8.6063,8.6573,8.6925,8.7149,8.7251,8.7305,8.7305,8.7378,8.7375,8.7673,8.7659,8.7153,8.8016,8.8745,8.9313,9.0024,9.0825,9.1639,9.2367,9.2856,9.3016,9.3322,9.3618,9.377,9.3874,9.3889,9.3785,9.3709,9.3679,9.3401,9.3179,9.307,9.3021,9.2988,9.2988,9.2988,9.2988,9.2988,9.2393,9.2468,9.2579,9.2723,9.307,9.3523,9.4046,9.459,9.4857,9.4749,9.4513,9.4342,9.4133,9.3752,9.364,9.3686,9.3709,9.3785,9.3859,9.3971,9.4201,9.4706,9.515,9.5187,9.5187,9.5112,9.4804,9.4428,9.4082,9.4117,9.4125,9.4096,9.4608,9.4879,9.5029,9.5134,9.5138,9.5262,9.5847,9.6342,9.6667,9.7348,9.8396,9.8748,9.8758,9.8889,9.9043,9.9126,9.9094,9.9245,9.9414,9.9707,9.9996,7.4092,7.408,7.4466,7.4993,7.573,7.6889,7.7919,7.8676,7.8782,7.8699,7.8771,7.9768,8.0505,8.0997,8.2015,8.2787,8.3138,8.3173,8.3319,8.3573,8.3797,8.4347,8.49,8.5395,8.5857,8.6338,8.6733,8.6943,8.7098,8.7183,8.7183,8.7385,8.7214,8.7727,8.8169,8.8395,8.8932,8.9615,9.0254,9.0905,9.1683,9.2421,9.2884,9.3275,9.3291,9.3557,9.3815,9.3941,9.3971,9.3882,9.3694,9.3572,9.3495,9.3243,9.3082,9.3004,9.2988,9.2988,9.2971,9.2905,9.2938,9.2955,9.2975,9.3136,9.3405,9.3619,9.3891,9.4217,9.4809,9.5294,9.5373,9.5414,9.5146,9.4877,9.4361,9.3845,9.3837,9.3845,9.3919,9.3992,9.405,9.4108,9.4432,9.4908,9.5375,9.5675,9.5938,9.6088,9.557,9.4877,9.4418,9.416,9.4163,9.418,9.4804,9.5465,9.5638,9.5818,9.5899,9.6108,9.6574,9.6965,9.7379,9.7877,9.8492,9.863,9.8653,9.8621,9.8733,9.8852,9.9096,9.9271,9.9476,9.9747,10.0062,7.401,7.401,7.401,7.4817,7.6187,7.6939,7.7731,7.849,7.8581,7.8595,7.8855,8.0119,8.0729,8.108,8.219,8.2892,8.3138,8.3208,8.3385,8.3616,8.3797,8.4263,8.4738,8.5103,8.5572,8.6063,8.6429,8.6591,8.6873,8.7012,8.72,8.7481,8.7481,8.787,8.8605,8.9135,8.978,9.0822,9.09,9.1131,9.2286,9.2843,9.3012,9.3243,9.3407,9.3579,9.3694,9.38,9.3897,9.3747,9.3526,9.337,9.3211,9.3082,9.3021,9.3004,9.2988,9.2988,9.2971,9.2905,9.2905,9.2905,9.2929,9.3322,9.3677,9.4056,9.4291,9.5198,9.5918,9.6216,9.6331,9.5967,9.5615,9.515,9.4556,9.4186,9.4079,9.4122,9.4165,9.4208,9.4208,9.4274,9.4307,9.4747,9.5262,9.5886,9.6148,9.6351,9.6471,9.5621,9.5147,9.4687,9.4649,9.4877,9.5472,9.6043,9.6299,9.6441,9.6591,9.6892,9.7275,9.7681,9.8155,9.8312,9.8392,9.8567,9.8621,9.8605,9.8669,9.8858,9.9066,9.9318,9.9589,9.9892,10.0165,7.401,7.401,7.401,7.4537,7.5434,7.6222,7.6994,7.7731,7.8328,7.8504,7.8771,7.9592,8.04,8.0975,8.1945,8.2647,8.3068,8.3195,8.3472,8.3668,8.3861,8.4116,8.4671,8.496,8.5317,8.5531,8.5782,8.6229,8.6644,8.6891,8.7135,8.7389,8.7542,8.8101,8.9136,8.9662,9.0402,9.1773,9.1741,9.1922,9.2939,9.3163,9.3227,9.3375,9.3501,9.3563,9.3649,9.3725,9.374,9.3664,9.3401,9.3211,9.307,9.3021,9.2988,9.2988,9.3025,9.3099,9.312,9.3144,9.3219,9.3326,9.3454,9.3516,9.3763,9.4163,9.4926,9.6068,9.6862,9.7121,9.7041,9.6539,9.6003,9.5384,9.4778,9.4571,9.4362,9.439,9.4418,9.439,9.44,9.4344,9.4354,9.4603,9.5134,9.5375,9.5413,9.5803,9.6847,9.6682,9.6479,9.602,9.5624,9.5807,9.6298,9.6682,9.6997,9.713,9.7258,9.7595,9.797,9.8251,9.8493,9.8229,9.8195,9.8423,9.86,9.86,9.8695,9.8898,9.9207,9.9537,9.9919,10.0265,10.0438,7.401,7.399,7.3911,7.4292,7.4958,7.5449,7.612,7.6883,7.7312,7.7446,7.7768,7.9023,8.0049,8.0624,8.1558,8.219,8.2752,8.3103,8.3371,8.3646,8.3819,8.4053,8.4388,8.4717,8.5,8.5238,8.5819,8.6283,8.6609,8.6892,8.7171,8.7794,8.8109,8.8737,8.986,9.0392,9.0988,9.2487,9.2439,9.2801,9.3375,9.3275,9.3243,9.3338,9.347,9.3479,9.351,9.3572,9.3587,9.3479,9.3227,9.3135,9.3021,9.2988,9.2988,9.3136,9.3285,9.3545,9.3566,9.3698,9.3829,9.4106,9.4241,9.444,9.54,9.5816,9.5609,9.6659,9.7758,9.8092,9.7501,9.6959,9.6183,9.5459,9.4928,9.4589,9.4543,9.4597,9.4557,9.4513,9.4445,9.4358,9.426,9.4067,9.4625,9.5383,9.5308,9.6006,9.693,9.7674,9.7471,9.7238,9.6756,9.6702,9.7132,9.7463,9.7754,9.7849,9.7867,9.8086,9.8336,9.8617,9.8776,9.8536,9.8399,9.846,9.8616,9.8658,9.8807,9.905,9.9429,9.9828,10.0214,10.06,10.0759,7.3931,7.3891,7.3732,7.4001,7.4595,7.4776,7.5277,7.5995,7.6047,7.6049,7.6293,7.8231,7.9248,8.0098,8.1067,8.1685,8.2212,8.2647,8.3103,8.3516,8.3616,8.3939,8.4194,8.4382,8.4712,8.5326,8.6018,8.6502,8.6919,8.7439,8.8137,8.8814,8.9333,8.9876,9.1128,9.1778,9.2066,9.271,9.2933,9.2991,9.3114,9.3179,9.3163,9.3227,9.3322,9.3338,9.3354,9.3385,9.3432,9.3306,9.3135,9.3054,9.3004,9.2988,9.2988,9.3136,9.3657,9.3954,9.4197,9.4596,9.4926,9.5223,9.5269,9.5737,9.6696,9.6933,9.6761,9.7196,9.8258,9.8485,9.7854,9.7371,9.6528,9.5833,9.5341,9.4888,9.4954,9.4969,9.4839,9.4746,9.4596,9.4457,9.4108,9.3859,9.4287,9.5045,9.5832,9.6673,9.7386,9.7942,9.8129,9.8003,9.7719,9.7802,9.7967,9.8095,9.8317,9.8283,9.8279,9.8482,9.8679,9.8852,9.8929,9.8898,9.8821,9.8727,9.8736,9.8814,9.9005,9.9306,9.979,10.0264,10.0597,10.0934,10.1131,7.3652,7.3435,7.3395,7.3479,7.3729,7.4429,7.4819,7.4982,7.5623,7.5861,7.5736,7.6049,7.7083,7.8602,7.9704,8.0646,8.1791,8.2247,8.2941,8.3481,8.3494,8.3875,8.4152,8.4257,8.4465,8.5123,8.6003,8.6803,8.7249,8.8318,8.9239,8.9543,8.9921,9.0519,9.1289,9.1812,9.2224,9.283,9.3037,9.3021,9.2988,9.3021,9.3037,9.3103,9.3163,9.3211,9.3243,9.3259,9.3259,9.3179,9.3033,9.2971,9.2955,9.2955,9.2988,9.3248,9.3805,9.4288,9.4626,9.5261,9.5683,9.5794,9.5923,9.6348,9.7118,9.761,9.7541,9.7681,9.8396,9.8478,9.8095,9.7904,9.7322,9.6856,9.6344,9.6036,9.5927,9.5647,9.5415,9.519,9.4947,9.4527,9.3954,9.3897,9.412,9.4884,9.5682,9.6499,9.7321,9.8005,9.8727,9.858,9.8394,9.862,9.871,9.8538,9.867,9.8658,9.8664,9.8742,9.8836,9.8975,9.902,9.9081,9.9012,9.8905,9.8929,9.9043,9.9443,9.9777,10.0301,10.0726,10.1018,10.127,10.1419]}]]